     2              OBSERVATION DATA    GPS                 RINEX VERSION / TYPE
teqc 1999Jul19 19991123 03:22:54UTC                         PGM / RUN BY / DATE
                                                            COMMENT
Original Marker Name: OWEN                                  COMMENT
Campaign Name: HPGN 1991                                    COMMENT
4-Character Station Name: OWEN                              COMMENT
6-Character Antenna Code: TRMSST                            COMMENT
Vertical Measurement Point: BPA                             COMMENT
Vertical Offset to Rinex Ref. Point: 0.0000                 COMMENT
Radial Measurement Point: RRP                               COMMENT
Radial Offset to Rinex Ref. Point: 0.0000                   COMMENT
Antenna Height from Field Measurement: 2.2200 m             COMMENT
                                                            COMMENT
Original XYZ: -2410421.1292 -4477799.1473 3838692.5507      COMMENT
New XYZ position is based on association with SCEC monument COMMENT
E1F7W3N0+0011. Position of that monument is believed to be  COMMENT
valid to within 1 m horizontally; vertical accuracy         COMMENT
should be no worse than 3-times this value.                 COMMENT
                                                            COMMENT
Revised Rinex header created by UCSD GPS archive for        COMMENT
GSAC on 10-Mar-2000 (2000:070) 17:43:23 GMT                 COMMENT
For assistance contact dagnew@ucsd.edu or hjohnson@ucsd.edu COMMENT
                                                            COMMENT
OWENS VALLEY NCMN 7114                                      MARKER NAME
OWEN                                                        MARKER NUMBER
-Unknown- CALIF DEPT TRANSPORTATION                         OBSERVER / AGENCY
483 TRIMBLE 4000 SST NP 4.30 / SP 4.20                      REC # / TYPE / VERS
19 TR 4000SST L1/L2 GEO                                     ANT # / TYPE
 -2410422.5744 -4477802.7532  3838686.8101                  APPROX POSITION XYZ
        2.2200        0.0000        0.0000                  ANTENNA: DELTA H/E/N
     1     1     0                                          WAVELENGTH FACT L1/2
     5    C1    L1    L2    S1    S2                        # / TYPES OF OBSERV
     0                                                      INTERVAL
  1991     6     6    16    54   30.000000                  TIME OF FIRST OBS
  1991     6     6    22    48    0.000000                  TIME OF LAST OBS
                                                            END OF HEADER
 91  6  6 16 54 30.0000000  0  3G18G 2G11
  20834926.758          -0.94217        -0.45432        27.000           2.250
  24120039.867          -0.69215        -0.24431        11.250           0.469
  23985772.516          -0.21916        -0.34931        13.500           0.688
 91  6  6 16 54 45.0000000  0  3G18G 2G11
  20839227.195       22591.533 7     17604.04022        27.500           2.250
  24111241.578      -46227.418 5    -36020.95621        11.250           0.563
  23979626.219      -32292.447 6    -25163.07921        13.250           0.563
 91  6  6 16 55  0.0000000  0  3G18G 2G11
  20843538.891       45253.844 7     35262.95822        27.500           2.344
  24102444.969      -92455.612 5    -72042.81721        11.250           0.563
  23973491.969      -64536.455 6    -50288.24021        13.750           0.719
 91  6  6 16 55 15.0000000  0  3G18G 2G11
  20847866.602       67991.453 7     52980.54722        27.500           2.406
  24093648.805     -138679.438 5   -108061.27221        10.750           0.531
  23967369.023      -96726.310 6    -75371.20521        13.750           0.625
 91  6  6 16 55 30.0000000  0  3G18G 2G11
  20852205.594       90794.689 7     70749.26922        27.500           2.438
  24084853.273     -184908.292 5   -144083.62521        11.250           0.531
  23961251.578     -128871.112 6   -100419.05021        13.500           0.656
 91  6  6 16 55 45.0000000  0  3G18G 2G11
  20856557.398      113666.605 7     88571.50922        27.250           2.313
  24076053.141     -231138.906 5   -180107.40821        11.250           0.469
  23955140.898     -160967.433 6   -125429.12221        13.500           0.625
 91  6  6 16 56  0.0000000  0  3G18G 2G11
  20860922.680      136607.294 7    106447.34022        26.750           2.281
  24067256.367     -277371.012 5   -216132.32221        10.750           0.406
  23949045.492     -193014.736 6   -150401.00921        13.500           0.531
 91  6  6 16 56 15.0000000  0  3G18G 2G11
  20865302.328      159617.478 7    124377.32822        27.250           2.250
  24058459.750     -323603.517 5   -252157.53221        11.000           0.500
  23942956.531     -225011.887 6   -175333.80921        13.250           0.500
 91  6  6 16 56 30.0000000  0  3G18G 2G11
  20869693.797      182695.525 7    142360.19522        26.750           2.313
  24049660.148     -369837.969 5   -288184.28621        10.750           0.563
  23936873.039     -256960.174 6   -200228.53921        13.250           0.531
 91  6  6 16 56 45.0000000  0  3G18G 2G11
  20874098.836      205846.442 7    160399.84322        26.750           2.313
  24040862.836     -416069.329 5   -324208.60921        10.500           0.531
  23930804.906     -288854.251 6   -225081.03021        13.500           0.469
 91  6  6 16 57  0.0000000  0  3G18G 2G11
  20878518.875      229070.522 7    178496.50122        26.750           2.313
  24032063.211     -462296.588 5   -360229.75121        10.250           0.406
  23924741.594     -320692.919 6   -249890.33721        13.250           0.563
 91  6  6 16 57 15.0000000  0  3G18G 2G11
  20882951.961      252370.641 7    196652.40922        26.750           2.219
  24023271.445     -508516.801 5   -396245.39021        11.000           0.406
  23918695.617     -352473.082 6   -274654.06521        13.000           0.531
 91  6  6 16 57 30.0000000  0  3G18G 2G11
  20887399.672      275743.360 7    214864.89022        26.750           2.156
  24014473.945     -554733.316 5   -432258.16821        10.500           0.500
  23912658.258     -384197.781 6   -299374.56021        13.000           0.500
 91  6  6 16 57 45.0000000  0  3G18G 2G11
  20891862.117      299189.256 7    233134.38622        27.000           2.344
  24005680.695     -600945.242 5   -468267.36221        10.250           0.375
  23906633.148     -415865.899 6   -324050.97821        13.250           0.531
 91  6  6 16 58  0.0000000  0  3G18G 2G11
  20896338.273      322712.109 7    251463.85322        26.750           2.188
  23996886.164     -647148.477 5   -504269.78521        10.000           0.313
  23900621.211     -447473.202 6   -348679.99621        13.500           0.594
 91  6  6 16 58 15.0000000  0  3G18G 2G11
  20900834.031      346338.504 7    269874.00522        26.750           2.250
  23988104.117     -693316.619 5   -540244.85221        11.250           0.281
  23894622.523     -478993.155 6   -373240.96221        13.500           0.594
 91  6  6 16 58 30.0000000  0  3G18G 2G11
  20905342.805      370041.291 7    288343.67222        26.250           2.281
  23979317.813     -739476.361 5   -576213.40421        11.250           0.406
  23888639.336     -510452.109 6   -397754.39521        14.250           0.594
 91  6  6 16 58 45.0000000  0  3G18G 2G11
  20909869.953      393821.680 7    306873.81022        26.500           2.313
  23970538.984     -785626.162 6   -612174.17521        12.000           0.469
  23882663.641     -541848.347 6   -422218.95421        14.000           0.563
 91  6  6 16 59  0.0000000  0  3G18G 2G11
  20914408.570      417677.463 7    325462.69422        26.250           2.219
  23961757.789     -831768.218 6   -648128.92821        12.000           0.344
  23876700.602     -573183.810 6   -446636.15721        14.250           0.625
 91  6  6 16 59 15.0000000  0  3G18G 2G11
  20918964.805      441613.228 7    344113.90722        26.000           2.219
  23952978.922     -877897.405 6   -684073.67621        12.000           0.469
  23870751.594     -604453.286 6   -471001.95521        14.500           0.500
 91  6  6 16 59 30.0000000  0  4G18G 2G11G16
  20923533.875      465627.703 7    362826.45422        26.000           2.281
  23944200.609     -924014.948 5   -720009.33821        11.500           0.500
  23864812.016     -635657.825 6   -495317.14321        14.250           0.406
  24462395.805          -0.23615                         7.750
 91  6  6 16 59 45.0000000  0  4G18G 2G11G16
  20928118.438      489719.285 7    381599.08322        26.000           2.250
  23935427.219     -970122.412 6   -755937.15121        12.000           0.438
  23858886.547     -666798.745 6   -519582.76521        13.750           0.500
  24457023.977      -28215.822 5                         7.500
 91  6  6 17  0  0.0000000  0  4G18G 2G11G16
  20932717.750      513888.769 7    400432.40222        26.000           2.156
  23926655.227    -1016218.410 5   -791856.05521        11.750           0.563
  23852971.453     -697874.477 6   -543797.60221        14.000           0.469
  24451674.906      -56349.850 5                         8.000
 91  6  6 17  0 15.0000000  0  4G18G 2G11G16
  20937333.828      538143.474 7    419332.12722        26.000           2.281
  23917886.328    -1062300.162 6   -827763.81921        12.500           0.500
  23847070.406     -728880.922 6   -567958.45021        14.250           0.500
  24446338.883      -84398.181 5                         8.250
 91  6  6 17  0 30.0000000  0  4G18G 2G11G16
  20941963.102      562475.924 7    438292.43322        26.000           2.250
  23909120.859    -1108365.541 5   -863658.84521        11.750           0.438
  23841186.109     -759817.909 6   -592065.16621        15.000           0.563
  24441017.297     -112361.238 5        -0.32731         8.500           0.313
 91  6  6 17  0 45.0000000  0  4G18G 2G11G16
  20946607.695      586882.975 7    457310.87922        26.000           2.188
  23900356.516    -1154422.157 6   -899547.01821        13.000           0.531
  23835308.289     -790691.774 6   -616122.68021        14.750           0.563
  24435708.500     -140245.378 5    -21728.22021         9.250           0.281
 91  6  6 17  1  0.0000000  0  4G18G 2G11G16
  20951267.023      611369.853 7    476391.53022        26.250           2.125
  23891595.445    -1200464.288 6   -935423.92021        12.250           0.531
  23829446.914     -821496.618 6   -640126.41721        14.500           0.500
  24430415.477     -168044.872 5    -43390.13521         9.500           0.156
 91  6  6 17  1 15.0000000  0  4G18G 2G11G16
  20955943.602      635941.456 7    495538.20422        26.500           2.125
  23882837.555    -1246482.418 6   -971282.10921        13.250           0.500
  23823597.719     -852223.711 6   -664069.56221        14.250           0.438
  24425144.773     -195751.031 5    -64979.30121         9.250           0.313
 91  6  6 17  1 30.0000000  0  4G18G 2G11G16
  20960636.078      660598.447 7    514751.41622        26.750           2.250
  23874082.813    -1292484.858 6  -1007128.07621        12.250           0.594
  23817766.555     -882879.290 6   -687956.98321        14.750           0.531
  24419888.125     -223370.023 5    -86500.59221         9.250           0.250
 91  6  6 17  1 45.0000000  0  4G18G 2G11G16
  20965344.797      685342.631 7    534032.56222        27.000           2.156
  23865335.906    -1338464.962 6  -1042956.62521        13.000           0.469
  23811948.727     -913457.303 6   -711783.96621        14.500           0.563
  24414649.664     -250896.047 5   -107949.41721         8.500           0.219
 91  6  6 17  2  0.0000000  0  4G18G 2G11G16
  20970067.086      710165.139 7    553374.74322        27.000           2.156
  23856589.172    -1384431.617 6  -1078774.71921        13.000           0.531
  23806142.086     -943966.489 6   -735557.32221        14.250           0.531
  24409424.094     -278337.865 5   -129332.66621         8.000           0.188
 91  6  6 17  2 15.0000000  0  4G18G 2G11G16
  20974807.820      735069.694 7    572780.85622        27.500           2.125
  23847845.258    -1430380.341 6  -1114578.83321        13.000           0.500
  23800352.656     -974402.242 6   -759273.43821        14.500           0.563
  24404218.305     -305691.316 5   -150647.02921         7.500           0.219
 91  6  6 17  2 30.0000000  0  4G18G 2G11G16
  20979561.953      760053.820 7    592248.97922        27.500           2.156
  23839103.773    -1476313.772 6  -1150371.02421        12.250           0.531
  23794571.898    -1004766.985 6   -782934.23321        14.250           0.500
  24399036.945     -332959.065 5   -171894.61621         8.500           0.281
 91  6  6 17  2 45.0000000  0  4G18G 2G11G16
  20984332.531      785122.002 8    611782.59322        28.000           2.125
  23830368.703    -1522226.880 6  -1186147.38021        12.250           0.531
  23788807.656    -1035055.612 6   -806535.71621        13.750           0.469
  24393866.461     -360136.032 5   -193071.49921         8.500           0.250
 91  6  6 17  3  0.0000000  0  4G18G 2G11G16
  20989118.844      810277.211 7    631384.02022        27.500           2.219
  23821633.172    -1568116.685 5  -1221905.58721        11.750           0.500
  23783057.273    -1065264.790 6   -830075.30021        14.000           0.563
  24388712.781     -387219.023 5   -214175.09121         9.000           0.125
 91  6  6 17  3 15.0000000  0  4G18G 2G11G16
  20993922.430      835514.321 7    651049.27422        27.500           2.188
  23812903.805    -1613987.897 5  -1257649.28621        11.750           0.594
  23777322.570    -1095399.065 6   -853556.50821        13.750           0.625
  24383574.375     -414212.601 5   -235209.05321         9.500           0.156
 91  6  6 17  3 30.0000000  0  4G18G 2G11G16
  20998739.281      860831.700 7    670777.07322        27.500           2.156
  23804179.969    -1659842.022 6  -1293379.70221        12.250           0.563
  23771602.023    -1125459.695 6   -876980.32921        13.750           0.688
  24378454.016     -441118.072 5   -256174.34221         9.500           0.250
 91  6  6 17  3 45.0000000  0  4G18G 2G11G16
  21003575.664      886242.452 8    690577.62522        28.000           2.156
  23795459.477    -1705665.650 5  -1329086.33721        11.750           0.531
  23765898.508    -1155433.172 6   -900336.24321        13.500           0.531
  24373353.789     -467922.112 5   -277060.60421         9.750           0.125
 91  6  6 17  4  0.0000000  0  4G18G 2G11G16
  21008427.883      911741.561 8    710447.02222        28.000           2.219
  23786746.133    -1751463.621 6  -1364772.98321        12.000           0.625
  23760211.727    -1185324.042 6   -923627.78521        13.500           0.625
  24368271.656     -494629.893 5   -297871.86721         9.500           0.281
 91  6  6 17  4 15.0000000  0  4G18G 2G11G16
  21013297.664      937325.166 8    730382.25822        28.500           2.188
  23778034.203    -1797239.441 5  -1400442.37421        11.250           0.594
  23754538.805    -1215135.793 6   -946857.67921        13.750           0.531
  24363205.602     -521244.881 5   -318610.80821         9.000           0.219
 91  6  6 17  4 30.0000000  0  4G18G 2G11G16
  21018181.430      962995.691 8    750385.22822        28.000           2.281
  23769328.602    -1842990.654 5  -1436092.56621        11.750           0.500
  23748883.344    -1244865.754 6   -970023.83021        14.250           0.563
  24358159.344     -547764.404 5   -339275.35921         8.750           0.219
 91  6  6 17  4 45.0000000  0  4G18G 2G11G16
  21023082.930      988754.532 8    770457.01622        28.500           2.250
  23760624.398    -1888715.162 5  -1471721.98421        11.500           0.625
  23743244.297    -1274511.667 6   -993124.50321        14.250           0.594
  24353132.250     -574186.341 5   -359863.86621         8.500           0.188
 91  6  6 17  5  0.0000000  0  4G18G 2G11G16
  21028003.781     1014605.038 8    790600.23022        28.500           2.156
  23751931.773    -1934409.679 6  -1507328.01221        12.000           0.469
  23737618.359    -1304069.883 6  -1016156.83521        14.250           0.656
  24348122.656     -600507.130 5   -380373.52721         8.750           0.219
 91  6  6 17  5 15.0000000  0  4G18G 2G11G16
  21032938.406     1040542.498 8    810811.19122        28.250           2.219
  23743238.844    -1980078.733 5  -1542914.21821        11.750           0.563
  23732007.953    -1333544.717 6  -1039124.19121        13.750           0.625
  24343132.383     -626731.631 5   -400808.21421         9.000           0.250
 91  6  6 17  5 30.0000000  0  4G18G 2G11G16
  21037889.578     1066565.059 7    831088.47822        27.750           2.250
  23734552.945    -2025723.861 6  -1578481.76721        12.250           0.563
  23726413.742    -1362937.506 6  -1062027.61821        13.500           0.719
  24338159.875     -652861.224 5   -421168.94521         9.500           0.250
 91  6  6 17  5 45.0000000  0  4G18G 2G11G16
  21042859.234     1092679.983 7    851437.73122        27.750           2.250
  23725874.750    -2071337.696 6  -1614024.93421        12.500           0.594
  23720837.898    -1392240.631 6  -1084861.17721        14.250           0.656
  24333205.391     -678888.121 5   -441449.63021         8.500           0.188
 91  6  6 17  6  0.0000000  0  4G18G 2G11G16
  21047845.750     1118883.157 7    871855.75422        27.500           2.250
  23717199.438    -2116924.085 6  -1649546.72421        12.250           0.656
  23715278.227    -1421458.007 6  -1107627.90921        14.500           0.625
  24328269.891     -704816.547 5   -461653.57121         8.500           0.156
 91  6  6 17  6 15.0000000  0  4G18G 2G11G16
  21052850.055     1145174.741 7    892342.66522        27.500           2.344
  23708529.336    -2162482.300 6  -1685046.55021        12.750           0.563
  23709733.359    -1450588.667 6  -1130327.08021        14.500           0.656
  24323357.820     -730645.859 5   -481780.33421         9.000           0.219
 91  6  6 17  6 30.0000000  0  4G18G 2G11G16
  21057868.422     1171553.475 7    912897.48322        27.000           2.406
  23699866.578    -2208013.463 6  -1720525.30921        13.500           0.625
  23704204.586    -1479633.676 6  -1152959.50521        14.250           0.656
  24318461.492     -756376.917 5   -501830.49621         8.750           0.281
 91  6  6 17  6 45.0000000  0  4G18G 2G11G16
  21062904.320     1198019.607 7    933520.40122        26.750           2.469
  23691205.734    -2253517.142 6  -1755982.64721        13.500           0.531
  23698693.813    -1508592.266 6  -1175524.59321        14.500           0.656
  24313582.500     -782009.263 5   -521803.72121         8.500           0.188
 91  6  6 17  7  0.0000000  0  4G18G 2G11G16
  21067958.750     1224578.954 7    954215.95922        26.500           2.375
  23682552.797    -2298987.214 6  -1791413.80821        13.750           0.594
  23693202.328    -1537458.068 6  -1198017.38421        14.750           0.688
  24308724.563     -807536.739 5   -541695.26721         8.250           0.344
 91  6  6 17  7 15.0000000  0  4G18G 2G11G16
  21073031.555     1251234.104 7    974986.16323        26.000           2.531
  23673909.148    -2344421.021 6  -1826816.70121        14.250           0.500
  23687727.352    -1566228.158 6  -1220435.58121        14.750           0.594
  24303886.297     -832956.597 5   -561502.92521         8.500           0.313
 91  6  6 17  7 30.0000000  0  4G18G 2G11G16
  21078121.570     1277981.661 7    995828.36722        26.000           2.469
  23665269.656    -2389821.575 6  -1862193.69221        14.500           0.406
  23682269.984    -1594905.489 6  -1242781.50421        15.000           0.656
  24299067.664     -858272.149 5   -581229.32221         8.500           0.219
 91  6  6 17  7 45.0000000  0  4G18G 2G11G16
  21083228.000     1304817.177 7   1016739.11322        25.750           2.469
  23656631.703    -2435192.810 6  -1897547.84921        13.500           0.500
  23676830.102    -1623493.869 6  -1265058.12121        15.000           0.688
  24294270.094     -883487.042 5   -600877.26321         8.250           0.313
 91  6  6 17  8  0.0000000  0  4G18G 2G11G16
  21088351.102     1331745.448 7   1037722.14022        25.500           2.438
  23648005.570    -2480529.959 6  -1932875.42121        14.250           0.563
  23671408.875    -1651988.340 6  -1287261.55621        15.500           0.656
  24289490.922     -908596.419 5   -620443.00921         8.000           0.250
 91  6  6 17  8 15.0000000  0  4G18G 2G11G16
  21093493.648     1358763.862 7   1058775.40522        25.500           2.438
  23639384.453    -2525835.411 6  -1968178.31121        14.500           0.500
  23666002.891    -1680390.878 6  -1309393.34921        15.750           0.719
  24284736.766     -933602.607 5   -639928.32521         8.000           0.344
 91  6  6 17  8 30.0000000  0  4G18G 2G11G16
  21098651.758     1385868.950 7   1079896.20922        25.500           2.438
  23630770.125    -2571112.165 6  -2003458.82721        15.250           0.625
  23660616.219    -1708704.498 6  -1331455.87221        15.750           0.625
  24279996.414     -958508.859 5   -659335.80021         8.000           0.156
 91  6  6 17  8 45.0000000  0  4G18G 2G11G16
  21103826.469     1413062.544 7   1101085.96922        25.500           2.406
  23622158.938    -2616358.395 6  -2038715.56921        14.500           0.531
  23655244.969    -1736927.176 6  -1353447.51521        15.750           0.625
  24275277.813     -983313.096 5   -678663.77621         9.000           0.219
 91  6  6 17  9  0.0000000  0  4G18G 2G11G16
  21109019.516     1440349.326 7   1122348.35522        25.500           2.375
  23613554.320    -2661569.323 6  -2073944.78721        14.750           0.531
  23649893.719    -1765053.858 6  -1375364.37021        15.750           0.625
  24270579.898    -1008010.310 5   -697908.33021         9.500           0.281
 91  6  6 17  9 15.0000000  0  4G18G 2G11G16
  21114228.305     1467724.827 7   1143679.87222        25.250           2.344
  23604958.516    -2706748.838 6  -2109149.53821        14.500           0.563
  23644557.578    -1793088.258 6  -1397209.31321        15.500           0.625
  24265899.063    -1032604.915 5   -717072.98521         9.000           0.188
 91  6  6 17  9 30.0000000  0  4G18G 2G11G16
  21119456.125     1495197.660 7   1165087.22522        25.000           2.469
  23596367.727    -2751888.054 6  -2144322.88921        14.750           0.688
  23639242.391    -1821021.525 6  -1418975.44621        15.500           0.656
  24261237.531    -1057087.693 5   -736150.45621         9.000           0.375
 91  6  6 17  9 45.0000000  0  4G18G 2G11G16
  21124701.852     1522763.417 7   1186566.99022        25.250           2.344
  23587786.391    -2796990.932 6  -2179467.92221        14.750           0.625
  23633944.844    -1848857.336 6  -1440665.65221        15.750           0.594
  24256598.078    -1081462.734 5   -755143.98221         8.500           0.438
 91  6  6 17 10  0.0000000  0  4G18G 2G11G16
  21129964.563     1550422.311 7   1208119.33022        25.000           2.406
  23579210.047    -2842057.330 6  -2214584.52021        14.000           0.688
  23628667.203    -1876595.232 6  -1462279.53721        16.000           0.563
  24251980.727    -1105729.920 5   -774053.45121         7.750           0.281
 91  6  6 17 10 15.0000000  0  4G18G 2G11G16
  21135246.156     1578178.707 7   1229747.63823        25.000           2.531
  23570642.250    -2887082.504 6  -2249668.99421        14.000           0.719
  23623409.289    -1904230.452 6  -1483813.42921        16.000           0.656
  24247388.961    -1129884.238 5   -792874.98321         8.250           0.344
 91  6  6 17 10 30.0000000  0  4G18G 2G11G16
  21140546.945     1606030.159 7   1251450.02022        25.250           2.469
  23562079.945    -2932068.891 6  -2284723.26021        13.250           0.625
  23618169.273    -1931765.160 6  -1505269.00321        16.250           0.594
  24242812.969    -1153928.002 5   -811610.37121         8.750           0.188
 91  6  6 17 10 45.0000000  0  4G18G 2G11G16
  21145864.383     1633976.611 7   1273226.42922        25.250           2.313
  23553526.867    -2977015.940 6  -2319746.85521        13.500           0.656
  23612948.125    -1959198.713 6  -1526645.74321        16.000           0.531
  24238257.195    -1177860.914 5   -830259.38721         9.250           0.313
 91  6  6 17 11  0.0000000  0  4G18G 2G11G16
  21151200.633     1662013.007 7   1295072.91922        25.000           2.344
  23544981.031    -3021928.505 6  -2354743.57021        13.750           0.594
  23607746.898    -1986535.799 6  -1547947.33521        16.250           0.625
  24233723.047    -1201687.542 5   -848825.61021         9.500           0.250
 91  6  6 17 11 15.0000000  0  4G18G 2G11G16
  21156554.391     1690142.773 7   1316992.16922        25.000           2.375
  23536442.336    -3066803.008 6  -2389710.66421        14.000           0.719
  23602562.570    -2013772.548 6  -1569170.72221        15.750           0.594
  24229208.531    -1225404.277 5   -867306.18621         9.250           0.188
 91  6  6 17 11 30.0000000  0  4G18G 2G11G16
  21161924.484     1718370.109 7   1338987.44822        25.250           2.156
  23527909.305    -3111635.009 6  -2424644.61121        13.500           0.625
  23597401.789    -2040904.271 6  -1590312.28821        16.500           0.719
  24224715.453    -1249006.936 5   -885697.87421         8.500           0.219
 91  6  6 17 11 45.0000000  0  4G18G 2G11G16
  21167313.078     1746690.540 7   1361055.26822        25.000           2.344
  23519385.992    -3156428.738 6  -2459548.73521        14.000           0.719
  23592256.438    -2067934.973 6  -1611375.12721        16.250           0.719
  24220240.648    -1272499.523 5   -904003.78321         7.750           0.250
 91  6  6 17 12  0.0000000  0  4G18G 2G11G16
  21172720.094     1775101.928 7   1383193.96522        25.000           2.313
  23510868.445    -3201186.278 6  -2494424.67721        13.750           0.781
  23587131.656    -2094866.650 6  -1632360.81021        16.000           0.656
  24215795.414    -1295884.131 5   -922225.53821         8.000           0.344
 91  6  6 17 12 15.0000000  0  4G18G 2G11G16
  21178144.438     1803607.185 7   1405405.80822        24.750           2.188
  23502360.586    -3245904.148 6  -2529269.67921        14.500           0.688
  23582025.289    -2121695.612 6  -1653266.44821        16.000           0.563
  24211367.523    -1319157.499 5   -940360.61121         8.750           0.375
 91  6  6 17 12 30.0000000  0  4G18G 2G11G16
  21183586.102     1832203.971 7   1427688.97022        24.750           2.219
  23493856.633    -3290584.611 6  -2564085.56621        14.000           0.719
  23576941.109    -2148424.089 6  -1674093.78921        16.250           0.625
  24206961.781    -1342321.751 5   -958410.66221         9.500           0.438
 91  6  6 17 12 45.0000000  0  4G18G 2G11G16
  21189046.367     1860895.470 7   1450045.93322        25.000           2.313
  23485363.563    -3335223.913 6  -2598869.35421        14.750           0.688
  23571873.016    -2175048.222 6  -1694839.82621        16.000           0.625
  24202574.297    -1365372.946 5   -976372.61721         9.750           0.188
 91  6  6 17 13  0.0000000  0  4G18G 2G11G16
  21194523.727     1889679.304 7   1472474.84722        25.250           2.313
  23476875.945    -3379824.027 6  -2633622.61021        14.250           0.750
  23566827.188    -2201569.772 6  -1715505.92621        15.500           0.719
  24198211.094    -1388313.376 5   -994248.29421         9.750           0.313
 91  6  6 17 13 15.0000000  0  4G18G 2G11G16
  21200018.656     1918558.141 7   1494977.79622        25.000           2.313
  23468396.734    -3424382.202 6  -2668343.19221        15.000           0.656
  23561796.922    -2227985.669 6  -1736089.70121        15.250           0.563
  24193863.070    -1411140.499 5  -1012035.64921         8.750           0.219
 91  6  6 17 13 30.0000000  0  4G18G 2G11G16
  21205533.203     1947534.473 7   1517556.70922        25.000           2.250
  23459924.672    -3468895.875 6  -2703029.09821        14.750           0.750
  23556791.844    -2254293.307 6  -1756589.13121        15.750           0.594
  24189541.359    -1433851.201 5  -1029732.29921         8.500           0.125
 91  6  6 17 13 45.0000000  0  4G18G 2G11G16
  21211066.461     1976608.261 7   1540211.55722        25.500           2.281
  23451466.094    -3513364.624 6  -2737679.98721        15.250           0.750
  23551807.086    -2280491.946 6  -1777003.61421        15.750           0.625
  24185238.227    -1456445.080 5  -1047337.92421         8.250           0.250
 91  6  6 17 14  0.0000000  0  4G18G 2G11G16
  21216617.992     2005779.396 7   1562942.25822        25.750           2.313
  23443010.203    -3557788.471 6  -2772295.89521        14.500           0.750
  23546843.305    -2306581.584 6  -1797333.16221        16.000           0.719
  24180964.352    -1478922.117 5  -1064852.48421         8.750           0.281
 91  6  6 17 14 15.0000000  0  4G18G 2G11G16
  21222186.289     2035047.100 7   1585748.20922        25.750           2.250
  23434566.031    -3602167.979 6  -2806877.23821        15.000           0.719
  23541899.398    -2332562.497 6  -1817577.98421        15.750           0.594
  24176714.906    -1501283.179 5  -1082276.68821         9.250           0.219
 91  6  6 17 14 30.0000000  0  4G18G 2G11G16
  21227775.422     2064417.926 7   1608634.51222        26.000           2.313
  23426128.219    -3646496.250 6  -2841418.67821        15.000           0.656
  23536978.141    -2358427.633 6  -1837732.60721        16.000           0.750
  24172480.039    -1523520.999 5  -1099604.85921        10.000           0.375
 91  6  6 17 14 45.0000000  0  4G18G 2G11G16
  21233385.109     2093890.664 7   1631600.23622        26.250           2.125
  23417703.594    -3690774.212 6  -2875920.90921        15.250           0.688
  23532078.094    -2384177.913 6  -1857797.70521        15.750           0.688
  24168269.859    -1545636.579 5  -1116837.76821         9.500           0.344
 91  6  6 17 15  0.0000000  0  4G18G 2G11G16
  21239012.445     2123464.344 7   1654644.62222        26.250           2.219
  23409285.633    -3735002.684 6  -2910384.57521        15.000           0.625
  23527199.594    -2409814.004 6  -1877773.84921        15.750           0.656
  24164084.031    -1567630.837 5  -1133976.14621         9.250           0.344
 91  6  6 17 15 15.0000000  0  4G18G 2G11G16
  21244659.281     2153135.368 7   1677764.84722        26.500           2.125
  23400879.813    -3779184.629 6  -2944811.98621        15.000           0.656
  23522343.719    -2435338.540 6  -1897663.06321        16.000           0.688
  24159919.578    -1589506.639 5  -1151022.20621         9.000           0.344
 91  6  6 17 15 30.0000000  0  4G18G 2G11G16
  21250324.453     2182904.211 7   1700961.30122        26.500           2.313
  23392480.477    -3823319.378 6  -2979202.62421        14.750           0.688
  23517505.188    -2460750.780 6  -1917464.77421        15.250           0.625
  24155777.227    -1611263.661 5  -1167975.71921         8.750           0.250
 91  6  6 17 15 45.0000000  0  4G18G 2G11G16
  21256006.070     2212772.823 7   1724235.49422        25.750           2.281
  23384091.477    -3867404.563 6  -3013554.64721        14.500           0.813
  23512692.305    -2486048.281 6  -1937177.08121        15.750           0.688
  24151662.313    -1632899.558 5  -1184834.85221         9.250           0.313
 91  6  6 17 16  0.0000000  0  4G18G 2G11G16
  21261710.578     2242742.957 7   1747588.79822        25.750           2.250
  23375714.453    -3911438.467 6  -3047866.68621        15.250           0.750
  23507899.883    -2511229.001 6  -1956798.38921        15.750           0.656
  24147569.531    -1654412.307 5  -1201598.05621        10.250           0.250
 91  6  6 17 16 15.0000000  0  4G18G 2G11G16
  21267432.023     2272810.675 7   1771018.12922        26.000           2.156
  23367343.539    -3955424.848 6  -3082141.72221        15.000           0.781
  23503129.023    -2536296.493 6  -1976331.46021        15.500           0.719
  24143504.430    -1675805.691 5  -1218268.22221        10.500           0.344
 91  6  6 17 16 30.0000000  0  4G18G 2G11G16
  21273173.430     2302979.698 7   1794526.40722        26.000           2.250
  23358982.375    -3999359.669 6  -3116376.56321        15.000           0.813
  23498382.875    -2561246.636 6  -1995773.10521        15.750           0.656
  24139454.031    -1697075.551 5  -1234842.15321        10.750           0.281
 91  6  6 17 16 45.0000000  0  4G18G 2G11G16
  21278932.703     2333247.194 7   1818111.41722        25.750           2.219
  23350630.000    -4043245.649 6  -3150573.35921        15.250           0.688
  23493657.266    -2586081.897 6  -2015125.21721        15.750           0.688
  24135427.852    -1718224.638 5  -1251321.95621        10.500           0.250
 91  6  6 17 17  0.0000000  0  4G18G 2G11G16
  21284711.500     2363613.166 7   1841773.15822        26.000           2.250
  23342288.727    -4087082.239 6  -3184731.66621        14.750           0.781
  23488951.805    -2610801.564 6  -2034387.26221        15.500           0.688
  24131429.297    -1739252.512 5  -1267707.30221        10.000           0.344
 91  6  6 17 17 15.0000000  0  4G18G 2G11G16
  21290509.031     2394077.563 7   1865511.59322        25.750           2.156
  23333955.758    -4130868.950 6  -3218851.10721        14.750           0.719
  23484270.516    -2635405.228 6  -2053558.91821        15.750           0.719
  24127443.609    -1760158.802 5  -1283997.92521         8.750           0.313
 91  6  6 17 17 30.0000000  0  4G18G 2G11G16
  21296325.445     2424644.474 7   1889329.90922        25.750           2.219
  23325634.625    -4174601.702 6  -3252928.49921        15.000           0.813
  23479609.234    -2659888.479 6  -2072636.74321        15.250           0.656
  24123491.297    -1780939.376 5  -1300190.53421         8.500           0.281
 91  6  6 17 17 45.0000000  0  4G18G 2G11G16
  21302162.172     2455313.067 7   1913227.45722        25.500           2.281
  23317321.914    -4218281.053 6  -3286964.28421        15.000           0.656
  23474974.156    -2684251.610 6  -2091620.97521        15.500           0.688
  24119560.266    -1801594.451 5  -1316285.39821         9.750           0.250
 91  6  6 17 18  0.0000000  0  4G18G 2G11G16
  21308016.352     2486077.647 7   1937199.80122        25.000           2.281
  23309018.859    -4261912.366 6  -3320962.63721        15.000           0.750
  23470358.242    -2708499.857 6  -2110515.67721        15.500           0.688
  24115655.438    -1822129.799 5  -1332286.98021        10.500           0.219
 91  6  6 17 18 15.0000000  0  4G18G 2G11G16
  21313888.781     2516940.554 7   1961248.76122        24.000           2.219
  23300726.469    -4305493.246 6  -3354921.70321        15.250           0.781
  23465769.211    -2732630.717 6  -2129318.91721        15.750           0.656
  24111772.477    -1842542.785 5  -1348193.20021        10.750           0.281
 91  6  6 17 18 30.0000000  0  4G18G 2G11G16
  21319779.594     2547899.319 7   1985372.41122        24.250           2.344
  23292440.211    -4349025.915 6  -3388843.18221        14.750           0.813
  23461197.156    -2756646.344 6  -2148032.36421        15.500           0.688
  24107908.828    -1862835.781 5  -1364005.94021        10.500           0.344
 91  6  6 17 18 45.0000000  0  4G18G 2G11G16
  21325691.086     2578957.353 7   2009573.41722        24.250           2.406
  23284164.813    -4392506.461 6  -3422724.06821        14.500           0.875
  23456650.695    -2780542.635 6  -2166652.82221        15.500           0.719
  24104073.102    -1883004.990 5  -1379722.21621        10.000           0.281
 91  6  6 17 19  0.0000000  0  4G18G 2G11G16
  21331621.703     2610128.327 7   2033862.42822        24.250           2.313
  23275905.039    -4435920.886 6  -3456553.42521        15.250           0.781
  23452128.766    -2804305.523 6  -2185169.33921        15.500           0.625
  24100261.672    -1903036.149 5  -1395330.90721         9.750           0.250
 91  6  6 17 19 15.0000000  0  4G18G 2G11G16
  21337571.766     2641397.992 7   2058228.33822        24.500           2.281
  23267652.938    -4479283.123 6  -3490342.12221        15.000           0.844
  23447629.688    -2827948.811 6  -2203592.65221        15.750           0.594
  24096470.063    -1922943.213 5  -1410842.90621         9.250           0.406
 91  6  6 17 19 30.0000000  0  5G18G 2G11G16G 6
  21343543.492     2672768.502 7   2082672.82722        24.500           2.344
  23259414.281    -4522590.864 6  -3524088.34021        15.500           0.906
  23443153.422    -2851469.925 6  -2221920.76621        15.750           0.719
  24092706.289    -1942724.154 5  -1426256.61721         9.250           0.281
  24634630.656          -0.08814                         6.250
 91  6  6 17 19 45.0000000  0  5G18G 2G11G16G 6
  21349529.820     2704236.384 7   2107193.19722        24.000           2.344
  23251182.320    -4565847.377 6  -3557794.64521        15.500           0.906
  23438702.727    -2874871.927 6  -2240156.06621        16.500           0.719
  24088964.922    -1962382.252 5  -1441574.59121         9.500           0.281
  24627785.703      -35958.387 3                         5.750
 91  6  6 17 20  0.0000000  0  5G18G 2G11G16G 6
  21355536.602     2735803.706 7   2131791.04422        24.000           2.313
  23242960.477    -4609050.304 6  -3591459.19921        15.750           0.906
  23434271.047    -2898152.351 6  -2258296.64021        16.000           0.781
  24085249.820    -1981915.088 5  -1456794.99621        10.000           0.313
  24620948.773      -71904.801 3                         6.000
 91  6  6 17 20 15.0000000  0  5G18G 2G11G16G 6
  21361563.633     2767467.016 7   2156463.69122        24.000           2.375
  23234747.641    -4652202.692 6  -3625084.37321        15.750           0.875
  23429863.383    -2921314.188 6  -2276344.80821        15.500           0.750
  24081554.570    -2001325.643 5  -1471920.12321        10.500           0.344
  24614105.133     -107842.671 3                         5.500
 91  6  6 17 20 30.0000000  0  5G18G 2G11G16G 6
  21367606.563     2799226.176 7   2181211.02122        24.000           2.375
  23226546.320    -4695304.492 6  -3658670.12821        15.500           0.906
  23425479.766    -2944357.145 6  -2294300.32221        16.000           0.781
  24077886.695    -2020613.812 5  -1486949.87721        10.500           0.188
  24607274.469     -143772.024 3                         6.000
 91  6  6 17 20 45.0000000  0  5G18G 2G11G16G 6
  21373667.469     2831080.251 7   2206032.31122        23.500           2.375
  23218352.625    -4738356.221 6  -3692216.87621        15.750           0.875
  23421115.656    -2967281.408 6  -2312163.37321        16.000           0.656
  24074238.844    -2039780.096 5  -1501884.67321        10.250           0.344
  24600440.969     -179693.482 4        -0.03531         6.250           0.250
 91  6  6 17 21  0.0000000  0  5G18G 2G11G16G 6
  21379748.195     2863030.451 7   2230928.50522        23.500           2.281
  23210170.375    -4781356.827 6  -3725723.78121        16.250           0.938
  23416775.773    -2990085.805 6  -2329933.01021        15.750           0.688
  24070615.445    -2058823.264 5  -1516723.52321        10.000           0.281
  24593603.664     -215606.145 3    -27983.87421         5.750           0.219
 91  6  6 17 21 15.0000000  0  5G18G 2G11G16G 6
  21385846.344     2895079.007 7   2255901.34722        24.250           2.344
  23201997.859    -4824303.436 6  -3759188.60421        15.500           0.906
  23412459.063    -3012767.512 6  -2347607.04421        16.000           0.781
  24067012.719    -2077740.771 5  -1531464.42121         9.500           0.375
  24586769.289     -251507.368 3    -55958.84621         5.750           0.156
 91  6  6 17 21 30.0000000  0  5G18G 2G11G16G 6
  21391963.586     2927229.334 7   2280953.48122        24.500           2.313
  23193838.906    -4867192.403 6  -3792608.51221        15.750           0.844
  23408165.852    -3035322.698 6  -2365182.49221        15.750           0.750
  24063439.305    -2096529.215 5  -1546104.75621         9.750           0.313
  24579941.438     -287393.787 3    -83922.25721         6.000           0.219
 91  6  6 17 21 45.0000000  0  5G18G 2G11G16G 6
  21398102.906     2959478.819 7   2306082.88322        24.750           2.344
  23185686.781    -4910025.850 6  -3825985.17321        15.500           0.938
  23403899.930    -3057753.464 6  -2382660.98821        16.000           0.750
  24059886.695    -2115190.348 5  -1560645.90521        10.000           0.313
  24573116.297     -323267.654 4   -111875.86021         6.250           0.250
 91  6  6 17 22  0.0000000  0  5G18G 2G11G16G 6
  21404257.180     2991825.173 7   2331287.77422        24.750           2.281
  23177544.047    -4952806.047 6  -3859320.33821        14.750           0.875
  23399654.148    -3080061.886 6  -2400044.15121        16.250           0.813
  24056361.125    -2133726.605 5  -1575089.73121        10.250           0.313
  24566294.031     -359131.498 4   -139821.70521         6.500           0.125
 91  6  6 17 22 15.0000000  0  5G18G 2G11G16G 6
  21410431.344     3024270.684 7   2356569.91922        25.000           2.188
  23169413.797    -4995530.328 6  -3892611.92221        15.250           0.781
  23395430.086    -3102245.048 6  -2417329.71521        16.250           0.813
  24052853.766    -2152135.508 5  -1589434.33221         9.500           0.344
  24559469.570     -394982.737 4   -167757.68721         6.250           0.188
 91  6  6 17 22 30.0000000  0  5G18G 2G11G16G 6
  21416623.117     3056808.903 7   2381924.31422        25.000           2.281
  23161295.656    -5038204.891 6  -3925864.77321        15.500           0.906
  23391233.531    -3124308.840 6  -2434522.25621        16.250           0.719
  24049377.266    -2170422.882 5  -1603684.24721        10.250           0.375
  24552648.320     -430827.483 4   -195688.64721         6.250           0.156
 91  6  6 17 22 45.0000000  0  5G18G 2G11G16G 6
  21422834.320     3089445.705 7   2407355.51922        24.750           2.219
  23153186.172    -5080823.751 6  -3959074.21721        15.750           0.844
  23387058.539    -3146247.332 6  -2451617.15621        16.500           0.688
  24045925.398    -2188582.915 5  -1617834.93021        10.250           0.219
  24545835.164     -466660.184 4   -223610.20221         6.250           0.125
 91  6  6 17 23  0.0000000  0  5G18G 2G11G16G 6
  21429063.648     3122178.775 7   2432861.74222        25.000           2.250
  23145084.539    -5123388.871 6  -3992241.79121        15.250           0.844
  23382908.008    -3168062.414 6  -2468615.89921        16.500           0.719
  24042488.313    -2206617.554 5  -1631887.92821         9.750           0.281
  24539016.680     -502482.882 3   -251523.94521         6.000           0.125
 91  6  6 17 23 15.0000000  0  5G18G 2G11G16G 6
  21435310.195     3155009.856 7   2458444.33422        25.250           2.375
  23136996.289    -5165897.979 6  -4025365.71121        15.250           0.906
  23378781.453    -3189751.643 6  -2485516.56421        16.750           0.750
  24039080.547    -2224524.733 5  -1645841.57521         9.500           0.281
  24532203.078     -538293.586 4   -279428.35421         6.500           0.281
 91  6  6 17 23 30.0000000  0  5G18G 2G11G16G 6
  21441576.430     3187940.804 7   2484104.74722        25.000           2.156
  23128917.633    -5208348.937 6  -4058444.32821        15.250           0.969
  23374679.422    -3211312.768 6  -2502317.41721        16.750           0.750
  24035697.273    -2242302.311 5  -1659694.23921         9.750           0.250
  24525389.492     -574090.415 4   -307321.96521         6.750           0.281
 91  6  6 17 23 45.0000000  0  5G18G 2G11G16G 6
  21447861.508     3220967.387 7   2509839.68222        25.000           2.188
  23120848.523    -5250745.877 6  -4091480.85321        14.500           0.844
  23370599.414    -3232749.605 6  -2519021.41521        16.500           0.688
  24032341.586    -2259954.310 5  -1673449.03621        10.250           0.281
  24518577.586     -609877.469 4   -335207.96821         7.250           0.344
 91  6  6 17 24  0.0000000  0  5G18G 2G11G16G 6
  21454164.750     3254093.397 7   2535652.09122        25.000           2.125
  23112791.289    -5293084.952 6  -4124472.28621        14.750           0.906
  23366544.891    -3254058.183 6  -2535625.46921        16.750           0.594
  24029005.602    -2277476.753 5  -1687102.89921        10.500           0.375
  24511769.055     -645651.078 4   -363083.45721         7.250           0.219
 91  6  6 17 24 15.0000000  0  5G18G 2G11G16G 6
  21460486.219     3287315.325 7   2561539.24522        25.000           2.094
  23104744.625    -5335369.225 6  -4157421.02321        15.000           0.906
  23362512.953    -3275241.297 6  -2552131.77221        16.750           0.656
  24025696.680    -2294872.879 5  -1700658.33121        10.500           0.344
  24504962.391     -681414.286 4   -390950.88321         7.000           0.344
 91  6  6 17 24 30.0000000  0  5G18G 2G11G16G 6
  21466827.453     3320636.747 7   2587503.92222        25.000           2.031
  23096710.484    -5377594.744 6  -4190323.97221        15.250           0.906
  23358506.305    -3296295.136 6  -2568537.32321        16.500           0.625
  24022412.328    -2312139.172 5  -1714112.57921        10.250           0.281
  24498160.000     -717163.614 5   -418807.47621         7.500           0.344
 91  6  6 17 24 45.0000000  0  5G18G 2G11G16G 6
  21473188.086     3354054.180 7   2613543.41522        25.250           2.094
  23088686.602    -5419764.783 6  -4223183.68521        15.250           1.031
  23354523.914    -3317222.708 6  -2584844.49821        16.500           0.719
  24019153.250    -2329278.572 5  -1727467.95521        10.000           0.313
  24491360.125     -752902.419 5   -446655.88121         7.500           0.313
 91  6  6 17 25  0.0000000  0  5G18G 2G11G16G 6
  21479566.055     3387567.483 7   2639657.61222        25.250           2.000
  23080671.516    -5461878.911 6  -4255999.84021        15.500           0.938
  23350566.391    -3338023.490 6  -2601052.86721        16.500           0.688
  24015913.203    -2346290.694 5  -1740724.17321        10.000           0.375
  24484564.383     -788630.471 5   -474495.89121         7.500           0.313
 91  6  6 17 25 15.0000000  0  5G18G 2G11G16G 6
  21485962.203     3421178.615 7   2665848.03922        25.000           1.969
  23072667.289    -5503935.084 6  -4288770.83621        15.500           0.938
  23346633.422    -3358695.421 6  -2617160.83321        16.500           0.719
  24012696.852    -2363173.503 5  -1753879.62721         9.000           0.313
  24477766.148     -824345.925 4   -502326.09721         7.250           0.313
 91  6  6 17 25 30.0000000  0  5G18G 2G11G16G 6
  21492375.891     3454888.622 7   2692115.51022        24.750           2.031
  23064678.063    -5545931.885 6  -4321495.56521        15.750           1.000
  23342723.109    -3379236.867 6  -2633167.12321        16.250           0.781
  24009512.555    -2379925.688 5  -1766933.30121         9.000           0.313
  24470970.961     -860047.506 4   -530145.48321         7.000           0.219
 91  6  6 17 25 45.0000000  0  5G18G 2G11G16G 6
  21498808.906     3488695.201 7   2718458.22922        24.750           1.938
  23056696.469    -5587871.166 6  -4354175.47121        16.000           0.844
  23338838.078    -3399649.621 6  -2649073.13921        16.000           0.625
  24006347.195    -2396549.394 5  -1779886.85321         9.500           0.344
  24464178.523     -895737.133 4   -557955.54821         6.750           0.375
 91  6  6 17 26  0.0000000  0  5G18G 2G11G16G 6
  21505261.164     3522600.184 7   2744877.63222        24.750           1.813
  23048727.195    -5629751.177 6  -4386809.20821        16.000           0.906
  23334977.156    -3419931.745 6  -2664877.34721        16.000           0.719
  24003210.641    -2413042.428 5  -1792738.55821         9.500           0.281
  24457389.766     -931413.261 4   -585755.11721         6.750           0.281
 91  6  6 17 26 15.0000000  0  5G18G 2G11G16G 6
  21511732.117     3556604.151 7   2771374.16622        24.250           1.906
  23040768.195    -5671570.968 6  -4419396.00621        16.000           0.844
  23331143.594    -3440082.170 6  -2680578.95121        15.750           0.750
  24000096.008    -2429404.160 5  -1805487.97521        10.250           0.406
  24450599.648     -967075.169 4   -613543.57121         6.250           0.219
 91  6  6 17 26 30.0000000  0  5G18G 2G11G16G 6
  21518221.555     3590705.305 7   2797946.42922        24.250           2.000
  23032823.055    -5713331.772 6  -4451936.83921        16.500           0.844
  23327335.742    -3460102.033 6  -2696178.79721        15.500           0.750
  23997008.930    -2445635.670 5  -1818135.92321        10.250           0.313
  24443819.898    -1002724.269 4   -641322.06321         6.750           0.313
 91  6  6 17 26 45.0000000  0  5G18G 2G11G16G 6
  21524728.938     3624900.849 7   2824592.24422        24.250           1.938
  23024885.281    -5755036.795 6  -4484434.22021        16.500           0.844
  23323550.156    -3479994.276 6  -2711679.21721        15.500           0.813
  23993940.383    -2461740.187 5  -1830684.89121         9.750           0.406
  24437034.602    -1038363.743 4   -669093.06621         6.750           0.281
 91  6  6 17 27  0.0000000  0  5G18G 2G11G16G 6
  21531254.563     3659193.963 7   2851314.08322        24.250           2.000
  23016960.438    -5796682.232 6  -4516885.16821        16.750           0.938
  23319788.383    -3499754.957 6  -2727077.11521        15.750           0.750
  23990901.195    -2477714.053 5  -1843132.07821         9.500           0.281
  24430255.875    -1073989.971 4   -696853.73221         7.000           0.219
 91  6  6 17 27 15.0000000  0  5G18G 2G11G16G 6
  21537799.227     3693583.486 7   2878111.04822        24.250           1.938
  23009046.805    -5838268.984 6  -4549290.39221        17.000           0.844
  23316054.711    -3519384.924 6  -2742373.15821        15.750           0.781
  23987886.141    -2493557.935 5  -1855477.96721         9.000           0.281
  24423478.969    -1109604.016 4   -724604.90321         6.250           0.344
 91  6  6 17 27 30.0000000  0  5G18G 2G11G16G 6
  21544360.555     3728070.036 7   2904983.62022        24.000           2.000
  23001145.305    -5879795.897 6  -4581648.97721        17.750           1.000
  23312342.836    -3538882.750 6  -2757566.23321        15.250           0.875
  23984897.828    -2509270.959 5  -1867721.87221         8.750           0.344
  24416707.883    -1145204.953 4   -752345.86521         6.750           0.250
 91  6  6 17 27 45.0000000  0  5G18G 2G11G16G 6
  21550941.680     3762652.255 7   2931930.73522        23.500           2.000
  22993253.742    -5921264.087 6  -4613961.81621        17.250           1.000
  23308656.273    -3558249.494 6  -2772657.16121        15.500           0.781
  23981931.742    -2524854.158 5  -1879864.61921         8.750           0.406
  24409934.031    -1180793.986 4   -780077.55021         6.500           0.250
 91  6  6 17 28  0.0000000  0  5G18G 2G11G16G 6
  21557540.438     3797330.620 7   2958952.76822        23.750           2.000
  22985372.492    -5962672.662 6  -4646228.19321        17.250           1.000
  23304998.086    -3577484.287 6  -2787645.26721        15.250           0.813
  23978987.852    -2540307.154 5  -1891905.93021         9.000           0.281
  24403164.516    -1216370.619 4   -807799.57621         6.750           0.281
 91  6  6 17 28 15.0000000  0  5G18G 2G11G16G 6
  21564159.000     3832106.614 7   2986050.87622        23.500           2.031
  22977504.930    -6004020.086 6  -4678446.92021        17.000           1.125
  23301362.430    -3596585.300 6  -2802529.14221        15.750           0.781
  23976076.398    -2555628.072 5  -1903844.32721         9.000           0.344
  24396397.844    -1251933.184 4   -835510.64121         7.250           0.250
 91  6  6 17 28 30.0000000  0  5G18G 2G11G16G 6
  21570794.000     3866976.842 7   3013222.41422        23.250           2.000
  22969647.883    -6045309.593 6  -4710620.51621        17.500           1.063
  23297754.109    -3615555.678 6  -2817311.20921        15.500           0.813
  23973184.984    -2570820.137 5  -1915682.32121         9.500           0.375
  24389633.305    -1287485.061 4   -863213.35121         7.250           0.156
 91  6  6 17 28 45.0000000  0  5G18G 2G11G16G 6
  21577447.984     3901942.366 7   3040468.20922        23.250           1.938
  22961802.813    -6086539.568 6  -4742747.72921        18.000           1.094
  23294167.984    -3634393.706 6  -2831990.16021        15.500           0.719
  23970318.922    -2585881.932 5  -1927418.79521         8.750           0.375
  24382873.875    -1323024.895 5   -890906.69821         7.500           0.281
 91  6  6 17 29  0.0000000  0  5G18G 2G11G16G 6
  21584120.141     3937004.625 7   3067789.38222        23.000           2.063
  22953969.117    -6127708.424 6  -4774827.31321        18.000           1.094
  23290610.078    -3653097.616 6  -2846564.59021        15.750           0.781
  23967482.359    -2600811.598 5  -1939052.30421         9.000           0.250
  24376108.219    -1358551.054 4   -918589.38421         7.250           0.281
 91  6  6 17 29 15.0000000  0  5G18G 2G11G16G 6
  21590812.430     3972167.147 7   3095188.68222        23.000           2.000
  22946146.281    -6168812.116 6  -4806856.12121        17.500           1.094
  23287077.141    -3671663.355 6  -2861031.36921        16.000           0.750
  23964667.797    -2615605.316 5  -1950579.86921         9.000           0.375
  24369351.750    -1394059.957 4   -946258.61321         7.250           0.313
 91  6  6 17 29 30.0000000  0  5G18G 2G11G16G 6
  21597521.625     4007427.874 7   3122664.50722        23.250           1.906
  22938336.297    -6209852.647 6  -4838835.70421        17.500           1.063
  23283569.117    -3690092.827 6  -2875391.95121        15.750           0.844
  23961875.070    -2630265.276 5  -1962003.23421         8.500           0.250
  24362599.828    -1429553.605 4   -973915.96921         7.250           0.344
 91  6  6 17 29 45.0000000  0  5G18G 2G11G16G 6
  21604249.469     4042781.532 7   3150212.74122        23.250           2.094
  22930537.039    -6250835.018 6  -4870769.98221        17.500           1.063
  23280087.602    -3708390.894 6  -2889650.15121        15.500           0.750
  23959109.219    -2644796.437 5  -1973326.21821         8.500           0.250
  24355845.641    -1465037.264 5  -1001565.53921         7.500           0.313
 91  6  6 17 30  0.0000000  0  5G18G 2G11G16G 6
  21610994.633     4078230.258 7   3177835.05722        23.250           2.000
  22922751.117    -6291756.799 6  -4902657.04021        18.000           1.031
  23276631.813    -3726554.957 6  -2903803.92421        16.250           0.781
  23956367.531    -2659196.282 5  -1984546.87121         8.500           0.375
  24349094.617    -1500508.538 4  -1029205.46021         7.250           0.188
 91  6  6 17 30 15.0000000  0  5G18G 2G11G16G 6
  21617758.539     4113774.525 7   3205531.81722        23.000           2.000
  22914975.203    -6332617.001 6  -4934496.11721        18.000           0.938
  23273199.453    -3744583.954 6  -2917852.45721        16.000           0.875
  23953652.016    -2673463.908 5  -1995664.52021         9.000           0.344
  24342345.203    -1535966.713 4  -1056835.16421         6.750           0.281
 91  6  6 17 30 30.0000000  0  5G18G 2G11G16G 6
  21624542.008     4149417.114 7   3233305.19122        23.250           1.969
  22907212.094    -6373412.424 6  -4966284.71821        17.750           1.000
  23269794.828    -3762474.688 6  -2931793.25621        15.750           0.938
  23950964.133    -2687596.226 5  -2006676.74121         8.750           0.375
  24335602.492    -1571408.722 4  -1084452.28321         7.000           0.188
 91  6  6 17 30 45.0000000  0  5G18G 2G11G16G 6
  21631341.039     4185150.815 7   3261149.56322        23.250           1.906
  22899458.680    -6414150.108 6  -4998028.32821        17.500           0.969
  23266415.266    -3780234.083 6  -2945631.70521        15.500           0.844
  23948298.656    -2701600.379 5  -2017589.08721         8.750           0.375
  24328860.742    -1606841.775 4  -1112062.40521         7.250           0.281
 91  6  6 17 31  0.0000000  0  5G18G 2G11G16G 6
  21638160.750     4220980.203 7   3289068.48922        23.750           2.031
  22891718.641    -6454825.191 6  -5029723.15521        17.250           1.063
  23263060.813    -3797857.143 6  -2959363.93121        15.750           0.906
  23945657.641    -2715471.936 5  -2028398.09221         8.500           0.219
  24322117.383    -1642261.223 4  -1139661.92221         7.000           0.281
 91  6  6 17 31 15.0000000  0  5G18G 2G11G16G 6
  21644996.445     4256907.573 7   3317063.76822        23.500           2.031
  22883990.961    -6495435.265 6  -5061367.32321        17.500           0.938
  23259735.953    -3815341.195 6  -2972987.82721        15.750           0.875
  23943045.703    -2729208.248 5  -2039101.73321         8.750           0.375
  24315379.813    -1677664.628 4  -1167248.97421         7.000           0.250
 91  6  6 17 31 30.0000000  0  5G18G 2G11G16G 6
  21651850.063     4292926.971 7   3345130.75622        23.500           2.000
  22876274.930    -6535986.044 6  -5092965.29521        17.500           1.031
  23256433.070    -3832691.667 6  -2986507.65121        15.250           0.844
  23940457.055    -2742814.718 5  -2049704.18621         8.500           0.313
  24308646.336    -1713057.666 4  -1194827.93221         7.250           0.313
 91  6  6 17 31 45.0000000  0  5G18G 2G11G16G 6
  21658724.023     4329040.994 7   3373271.48122        23.750           1.938
  22868570.391    -6576474.530 6  -5124514.73321        17.750           1.000
  23253157.586    -3849905.777 6  -2999921.21421        15.250           0.875
  23937891.438    -2756288.631 5  -2060203.34421         8.750           0.406
  24301916.063    -1748437.731 4  -1222396.79421         7.250           0.375
 91  6  6 17 32  0.0000000  0  5G18G 2G11G16G 6
  21665612.797     4365250.510 7   3401486.61922        23.250           2.000
  22860879.430    -6616899.693 6  -5156014.81721        18.250           1.031
  23249908.422    -3866982.134 6  -3013227.43921        15.250           0.844
  23935355.070    -2769628.895 5  -2070598.37721         8.500           0.313
  24295186.711    -1783803.865 4  -1249954.78121         7.250           0.406
 91  6  6 17 32 15.0000000  0  5G18G 2G11G16G 6
  21672520.383     4401550.079 7   3429771.92022        23.000           1.875
  22853197.125    -6657266.666 6  -5187469.56421        18.250           1.094
  23246683.094    -3883925.904 6  -3026430.36421        15.500           0.844
  23932841.359    -2782840.693 5  -2080893.30421         8.750           0.344
  24288452.406    -1819161.314 4  -1277506.01121         6.750           0.313
 91  6  6 17 32 30.0000000  0  5G18G 2G11G16G 6
  21679447.398     4437947.024 7   3458133.09122        23.750           2.000
  22845527.500    -6697567.847 6  -5218873.05121        18.000           1.000
  23243485.078    -3900729.286 6  -3039523.89721        15.500           0.938
  23930350.406    -2795916.522 5  -2091082.29421         8.250           0.344
  24281726.977    -1854502.623 4  -1305044.69621         7.000           0.281
 91  6  6 17 32 45.0000000  0  5G18G 2G11G16G 6
  21686391.008     4474436.798 7   3486566.61522        23.750           1.875
  22837869.469    -6737807.522 6  -5250228.59821        18.000           0.906
  23240311.406    -3917396.588 6  -3052511.38021        16.000           1.000
  23927887.844    -2808860.863 5  -2101168.81321         8.250           0.250
  24275008.992    -1889832.300 5  -1332574.28221         7.500           0.469
 91  6  6 17 33  0.0000000  0  5G18G 2G11G16G 6
  21693354.031     4511018.179 7   3515071.50922        24.250           1.969
  22830223.234    -6777986.426 6  -5281536.79521        17.750           0.906
  23237167.188    -3933928.520 6  -3065393.38921        16.000           0.906
  23925448.430    -2821674.725 5  -2111153.65921         8.000           0.313
  24268292.516    -1925151.461 5  -1360095.66021         7.750           0.281
 91  6  6 17 33 15.0000000  0  5G18G 2G11G16G 6
  21700330.266     4547691.054 7   3543647.70022        23.750           1.969
  22822589.430    -6818104.131 6  -5312797.30521        18.000           1.031
  23234047.867    -3950324.639 6  -3078169.56521        16.000           0.844
  23923037.680    -2834357.542 5  -2121036.37621         8.250           0.438
  24261572.086    -1960459.784 5  -1387608.60721         8.000           0.250
 91  6  6 17 33 30.0000000  0  5G18G 2G11G16G 6
  21707328.031     4584455.296 7   3572295.08422        24.000           1.906
  22814966.586    -6858160.384 6  -5344009.93421        18.250           1.094
  23230952.367    -3966584.311 6  -3090839.42621        16.250           0.906
  23920648.500    -2846908.918 5  -2130816.69121         8.750           0.344
  24254850.625    -1995756.887 5  -1415112.82721         7.750           0.313
 91  6  6 17 33 45.0000000  0  5G18G 2G11G16G 6
  21714341.859     4621311.746 7   3601014.32222        24.000           1.938
  22807356.531    -6898154.387 6  -5375174.04921        18.000           1.031
  23227886.109    -3982706.718 6  -3103402.32521        16.250           0.969
  23918282.469    -2859328.096 5  -2140493.99721         8.750           0.313
  24248136.930    -2031042.229 5  -1442607.88521         7.750           0.281
 91  6  6 17 34  0.0000000  0  5G18G 2G11G16G 6
  21721372.711     4658259.503 7   3629804.70122        24.000           1.875
  22799757.773    -6938087.111 6  -5406290.43421        17.750           0.969
  23224844.398    -3998692.799 6  -3115859.00521        16.500           0.906
  23915947.422    -2871616.204 5  -2150069.18521         8.750           0.344
  24241426.125    -2066316.856 5  -1470094.58621         8.000           0.250
 91  6  6 17 34 15.0000000  0  5G18G 2G11G16G 6
  21728421.648     4695302.746 7   3658669.48922        23.750           1.875
  22792170.492    -6977953.631 6  -5437355.21221        17.500           1.125
  23221830.063    -4014537.456 6  -3128205.48421        16.500           0.969
  23913634.992    -2883768.583 5  -2159538.59221         8.750           0.313
  24234717.555    -2101575.996 5  -1497569.23421         8.250           0.344
 91  6  6 17 34 30.0000000  0  5G18G 2G11G16G 6
  21735487.367     4732439.479 7   3687607.12322        23.750           1.813
  22784595.797    -7017755.877 6  -5468369.91521        17.500           1.031
  23218839.578    -4030242.499 6  -3140443.16321        16.500           0.844
  23911347.539    -2895786.969 5  -2168903.59021         8.750           0.406
  24228007.273    -2136821.693 5  -1525033.40221         7.750           0.219
 91  6  6 17 34 45.0000000  0  5G18G 2G11G16G 6
  21742571.469     4769667.259 7   3716615.70522        23.750           1.844
  22777034.320    -7057495.675 6  -5499335.95621        17.500           1.094
  23215876.273    -4045809.763 6  -3152573.48721        16.750           0.813
  23909086.078    -2907673.322 5  -2178165.70021         8.250           0.313
  24221302.680    -2172056.061 5  -1552488.73821         8.000           0.156
 91  6  6 17 35  0.0000000  0  5G18G 2G11G16G 6
  21749673.977     4806989.872 7   3745698.16622        23.500           1.719
  22769484.430    -7097168.941 6  -5530250.16821        17.750           1.063
  23212941.367    -4061235.023 6  -3164593.18821        16.750           0.875
  23906845.227    -2919423.680 5  -2187321.88121         8.000           0.250
  24214601.523    -2207275.058 5  -1579932.13621         8.250           0.250
 91  6  6 17 35 15.0000000  0  5G18G 2G11G16G 6
  21756794.563     4844403.632 7   3774851.66022        23.250           1.750
  22761947.133    -7136779.354 6  -5561115.40021        17.750           1.063
  23210033.406    -4076521.742 6  -3176504.92121        17.000           0.906
  23904638.273    -2931042.081 5  -2196375.20421         8.500           0.281
  24207904.125    -2242482.589 5  -1607366.58421         8.750           0.156
 91  6  6 17 35 30.0000000  0  5G18G 2G11G16G 6
  21763931.250     4881908.673 7   3804076.29122        23.250           1.750
  22754421.570    -7176326.442 6  -5591931.27621        17.750           1.031
  23207151.766    -4091669.411 6  -3188308.29521        17.250           0.813
  23902449.602    -2942527.895 5  -2205325.24221         9.000           0.313
  24201205.648    -2277678.221 5  -1634791.73921         8.750           0.188
 91  6  6 17 35 45.0000000  0  5G18G 2G11G16G 6
  21771087.461     4919508.352 7   3833374.66022        23.500           1.813
  22746908.555    -7215806.229 6  -5622694.71021        17.500           1.031
  23204296.406    -4106673.940 6  -3200000.13321        17.000           0.938
  23900291.906    -2953877.022 5  -2214168.73221         9.250           0.281
  24194509.352    -2312857.974 5  -1662204.52521         8.500           0.219
 91  6  6 17 36  0.0000000  0  5G18G 2G11G16G 6
  21778258.406     4957200.025 7   3862744.70922        23.000           1.781
  22739409.461    -7255221.535 6  -5653407.90621        18.000           1.188
  23201466.938    -4121537.979 6  -3211582.50721        17.250           0.969
  23898160.992    -2965092.413 5  -2222908.04821         9.250           0.344
  24187816.375    -2348024.924 5  -1689607.34521         8.500           0.188
 91  6  6 17 36 15.0000000  0  5G18G 2G11G16G 6
  21785448.758     4994982.717 7   3892185.69122        23.000           1.750
  22731919.008    -7294572.541 6  -5684070.99021        17.750           1.156
  23198665.367    -4136261.796 6  -3223055.60421        17.250           0.938
  23896050.797    -2976174.407 5  -2231543.37621         8.750           0.344
  24181129.250    -2383179.469 5  -1717000.49321         9.000           0.188
 91  6  6 17 36 30.0000000  0  5G18G 2G11G16G 6
  21792655.227     5032853.326 7   3921695.17922        22.750           1.781
  22724443.938    -7333862.592 6  -5714686.57421        18.000           1.188
  23195889.758    -4150848.546 6  -3234421.90321        17.500           0.938
  23893966.109    -2987126.202 5  -2240077.27521         8.250           0.344
  24174441.805    -2418324.913 5  -1744386.54621         9.250           0.188
 91  6  6 17 36 45.0000000  0  5G18G 2G11G16G 6
  21799878.008     5070812.972 7   3951274.04322        22.750           1.844
  22716978.813    -7373089.904 6  -5745253.27221        18.000           1.219
  23193142.117    -4165296.406 6  -3245679.96221        17.500           0.969
  23891907.875    -2997946.323 5  -2248508.54821         8.750           0.375
  24167755.852    -2453459.666 5  -1771764.25621         9.000           0.188
 91  6  6 17 37  0.0000000  0  5G18G 2G11G16G 6
  21807120.828     5108863.805 7   3980923.96922        23.250           1.781
  22709525.828    -7412252.249 6  -5775769.34921        18.250           1.250
  23190419.047    -4179603.162 6  -3256828.08521        17.500           0.938
  23889869.055    -3008632.586 5  -2256835.53721         8.500           0.406
  24161070.063    -2488581.745 5  -1799132.10521         8.250           0.250
 91  6  6 17 37 15.0000000  0  5G18G 2G11G16G 6
  21814377.133     5147005.498 7   4010644.69722        23.250           1.750
  22702087.234    -7451349.664 6  -5806234.83021        18.000           1.156
  23187722.367    -4193768.714 6  -3267866.18021        17.250           0.875
  23887864.359    -3019185.035 5  -2265058.22721         8.750           0.313
  24154387.453    -2523691.280 5  -1826490.16721         8.500           0.219
 91  6  6 17 37 30.0000000  0  5G18G 2G11G16G 6
  21821653.203     5185236.540 7   4040435.04622        22.750           1.688
  22694659.070    -7490382.980 6  -5836650.35221        18.000           1.219
  23185053.578    -4207793.948 6  -3278794.93521        17.500           0.969
  23885880.961    -3029604.956 5  -2273177.65421         9.000           0.406
  24147713.008    -2558789.384 5  -1853839.31121         8.750           0.219
 91  6  6 17 37 45.0000000  0  5G18G 2G11G16G 6
  21828945.188     5223557.665 7   4070295.59222        22.750           1.688
  22687242.641    -7529351.571 6  -5867015.44921        17.750           1.188
  23182412.078    -4221677.928 6  -3289613.61421        17.750           0.875
  23883924.734    -3039891.525 5  -2281193.18121         9.250           0.406
  24141032.367    -2593875.413 5  -1881179.05321         8.500           0.219
 91  6  6 17 38  0.0000000  0  5G18G 2G11G16G 6
  21836254.563     5261967.144 7   4100224.98822        22.750           1.688
  22679839.883    -7568256.597 6  -5897331.00821        18.000           1.250
  23179795.914    -4235421.817 6  -3300323.14021        17.500           0.938
  23881995.977    -3050045.947 5  -2289105.74421         9.500           0.438
  24134359.516    -2628950.700 5  -1908510.43221         8.500           0.250
 91  6  6 17 38 15.0000000  0  5G18G 2G11G16G 6
  21843580.398     5300460.875 7   4130220.02522        23.250           1.781
  22672448.375    -7607101.756 6  -5927599.92721        17.750           1.344
  23177205.727    -4249029.213 6  -3310926.30621        17.250           0.969
  23880085.922    -3060072.049 5  -2296918.31121         9.250           0.344
  24127683.211    -2664019.095 5  -1935836.42321         8.500           0.281
 91  6  6 17 38 30.0000000  0  5G18G 2G11G16G 6
  21850921.469     5339042.482 7   4160283.54922        23.000           1.688
  22665067.641    -7645883.473 6  -5957819.39921        18.000           1.281
  23174644.875    -4262496.322 6  -3321420.16021        17.750           0.844
  23878199.867    -3069965.848 5  -2304627.77821         8.750           0.344
  24121013.211    -2699077.033 5  -1963154.29321         8.500           0.250
 91  6  6 17 38 45.0000000  0  5G18G 2G11G16G 6
  21858279.969     5377710.126 7   4190414.11022        22.750           1.656
  22657700.641    -7684603.164 6  -5987990.54421        18.000           1.250
  23172108.234    -4275824.490 6  -3331805.74221        18.000           0.844
  23876341.055    -3079729.363 5  -2312235.71321         8.250           0.469
  24114342.820    -2734126.001 5  -1990465.11321         8.500           0.281
 91  6  6 17 39  0.0000000  0  5G18G 2G11G16G 6
  21865653.125     5416464.965 7   4220612.61822        21.750           1.813
  22650343.633    -7723259.366 6  -6018112.20521        18.500           1.344
  23169599.969    -4289012.329 6  -3342081.98121        18.000           0.875
  23874508.617    -3089361.357 5  -2319741.16821         9.000           0.375
  24107677.930    -2769164.884 5  -2017768.10021         8.500           0.188
 91  6  6 17 39 15.0000000  0  5G18G 2G11G16G 6
  21873045.672     5455307.605 7   4250879.53222        22.000           1.656
  22643000.219    -7761850.907 6  -6048183.49721        18.500           1.313
  23167116.328    -4302058.639 6  -3352247.94121        17.750           0.875
  23872701.070    -3098860.602 5  -2327143.19421         8.750           0.438
  24101010.148    -2804192.587 5  -2045062.42021         8.250           0.250
 91  6  6 17 39 30.0000000  0  5G18G 2G11G16G 6
  21880454.242     5494239.885 7   4281216.30222        22.250           1.719
  22635669.430    -7800375.993 6  -6078203.00021        18.500           1.219
  23164660.203    -4314961.249 6  -3362301.92221        17.750           0.875
  23870921.688    -3108225.266 5  -2334440.36221         8.750           0.406
  24094346.359    -2839207.288 5  -2072346.56321         8.250           0.281
 91  6  6 17 39 45.0000000  0  5G18G 2G11G16G 6
  21887880.266     5533259.936 7   4311621.46122        22.250           1.719
  22628349.836    -7838836.254 6  -6108171.99921        18.500           1.250
  23162231.172    -4327721.722 6  -3372245.15521        17.750           0.844
  23869168.813    -3117456.847 5  -2341633.81921         9.250           0.438
  24087685.563    -2874210.659 5  -2099621.88221         8.000           0.281
 91  6  6 17 40  0.0000000  0  5G18G 2G11G16G 6
  21895322.586     5572363.939 7   4342092.04522        22.000           1.781
  22621043.727    -7877235.035 6  -6138093.08421        18.750           1.188
  23159830.000    -4340343.486 6  -3382080.29821        17.500           0.906
  23867436.289    -3126558.729 5  -2348726.18621         9.000           0.344
  24081027.117    -2909206.417 5  -2126891.27621         8.000           0.250
 91  6  6 17 40 15.0000000  0  5G18G 2G11G16G 6
  21902779.125     5611553.398 7   4372629.21122        22.250           1.688
  22613747.516    -7915570.671 6  -6167964.96821        18.750           1.250
  23157453.344    -4352824.828 6  -3391806.02021        17.500           0.906
  23865725.422    -3135529.434 5  -2355716.37521         9.250           0.344
  24074371.961    -2944192.916 5  -2154153.42921         8.000           0.250
 91  6  6 17 40 30.0000000  0  5G18G 2G11G16G 6
  21910253.125     5650828.070 7   4403232.77522        22.000           1.656
  22606464.891    -7953842.825 6  -6197787.37921        19.000           1.219
  23155105.984    -4365165.459 6  -3401422.10221        17.750           1.000
  23864042.734    -3144369.296 5  -2362604.58821         9.250           0.406
  24067711.195    -2979170.082 5  -2181408.34021         7.500           0.250
 91  6  6 17 40 45.0000000  0  5G18G 2G11G16G 6
  21917742.805     5690190.531 7   4433904.74922        21.750           1.594
  22599195.047    -7992048.573 6  -6227558.05521        19.000           1.156
  23152785.711    -4377362.304 6  -3410926.14121        17.750           0.875
  23862384.398    -3153075.141 5  -2369388.37921         8.500           0.344
  24061058.125    -3014135.085 5  -2208653.77721         8.000           0.313
 91  6  6 17 41  0.0000000  0  5G18G 2G11G16G 6
  21925249.805     5729635.227 7   4464640.79922        22.250           1.625
  22591935.742    -8030193.570 6  -6257281.39421        19.000           1.313
  23150490.422    -4389420.825 6  -3420322.39621        17.500           0.969
  23860751.109    -3161652.484 5  -2376072.02821         9.000           0.406
  24054406.641    -3049093.527 5  -2235894.10221         8.000           0.219
 91  6  6 17 41 15.0000000  0  5G18G 2G11G16G 6
  21932773.375     5769165.735 7   4495443.71322        22.750           1.688
  22584689.852    -8068273.649 6  -6286954.14021        19.000           1.250
  23148223.414    -4401336.829 6  -3429607.60221        17.250           0.906
  23859147.711    -3170097.715 5  -2382652.75221         9.250           0.313
  24047758.016    -3084041.512 5  -2263126.27221         8.000           0.219
 91  6  6 17 41 30.0000000  0  5G18G 2G11G16G 6
  21940310.766     5808779.034 7   4526311.14122        22.500           1.719
  22577454.273    -8106291.727 6  -6316578.58021        19.250           1.156
  23145982.484    -4413113.132 6  -3438783.94721        17.500           0.875
  23857566.250    -3178413.227 5  -2389132.39321         9.250           0.406
  24041107.734    -3118982.043 5  -2290352.64121         7.750           0.250
 91  6  6 17 41 45.0000000  0  5G18G 2G11G16G 6
  21947864.438     5848478.444 7   4557245.66622        21.750           1.688
  22570233.695    -8144243.965 6  -6346151.71821        19.250           1.313
  23143770.227    -4424745.868 6  -3447848.41221        18.000           0.969
  23856009.289    -3186595.584 5  -2395508.27021         9.750           0.438
  24034460.547    -3153911.315 5  -2317570.22921         7.750           0.313
 91  6  6 17 42  0.0000000  0  5G18G 2G11G16G 6
  21955437.508     5888267.682 7   4588250.19422        22.250           1.688
  22563022.852    -8182126.348 6  -6375670.41421        19.000           1.250
  23141583.922    -4436230.945 6  -3456797.83021        17.750           0.906
  23854475.523    -3194640.971 5  -2401777.42621         9.750           0.500
  24027818.367    -3188825.532 5  -2344776.08521         8.250           0.250
 91  6  6 17 42 15.0000000  0  5G18G 2G11G16G 6
  21963024.758     5928142.486 7   4619321.39222        22.000           1.594
  22555827.422    -8219942.772 6  -6405137.72121        19.000           1.219
  23139427.016    -4447572.325 6  -3465635.26221        17.500           0.875
  23852972.820    -3202553.601 5  -2407943.13121         9.500           0.406
  24021175.844    -3223728.864 5  -2371973.44221         7.750           0.313
 91  6  6 17 42 30.0000000  0  5G18G 2G11G16G 6
  21970628.680     5968101.041 7   4650457.85122        21.750           1.563
  22548643.227    -8257695.276 6  -6434555.21821        19.500           1.281
  23137295.078    -4458771.729 6  -3474362.07021        17.500           0.844
  23851491.242    -3210335.093 5  -2414006.63821         9.500           0.469
  24014533.273    -3258623.190 5  -2399163.80421         7.750           0.250
 91  6  6 17 42 45.0000000  0  5G18G 2G11G16G 6
  21978248.102     6008141.915 7   4681658.45922        21.750           1.594
  22541471.852    -8295384.776 6  -6463923.62121        19.500           1.219
  23135190.234    -4469830.035 6  -3482978.93021        17.500           0.781
  23850035.469    -3217986.419 5  -2419968.72521         9.250           0.375
  24007896.789    -3293509.632 5  -2426348.00421         8.000           0.156
 91  6  6 17 43  0.0000000  0  5G18G 2G11G16G 6
  21985883.398     6048267.187 7   4712924.82922        22.000           1.563
  22534312.250    -8333008.576 6  -6493240.83421        19.250           1.188
  23133112.164    -4480744.513 6  -3491483.71321        16.500           0.875
  23848602.133    -3225505.339 5  -2425827.62121         9.750           0.344
  24001258.219    -3328385.514 5  -2453523.98121         8.250           0.188
 91  6  6 17 43 15.0000000  0  5G18G 2G11G16G 6
  21993535.695     6088479.426 7   4744258.95822        22.250           1.594
  22527166.047    -8370564.050 6  -6522504.80821        19.000           1.281
  23131062.758    -4491512.572 6  -3499874.40521        16.500           0.875
  23847199.414    -3232889.397 5  -2431581.44721        10.250           0.375
  23994621.836    -3363248.500 5  -2480689.90321         8.000           0.281
 91  6  6 17 43 30.0000000  0  5G18G 2G11G16G 6
  22001203.156     6128776.987 7   4775659.57922        22.000           1.500
  22520032.367    -8408052.468 6  -6551716.52121        19.250           1.313
  23129042.828    -4502135.363 6  -3508151.89321        16.750           0.844
  23845819.297    -3240139.548 5  -2437230.93521        10.000           0.375
  23987995.516    -3398099.785 5  -2507846.73321         8.000           0.250
 91  6  6 17 43 45.0000000  0  5G18G 2G11G16G 6
  22008888.867     6169158.693 7   4807125.76721        22.000           1.375
  22512911.172    -8445474.777 6  -6580876.72921        19.000           1.375
  23127047.578    -4512613.707 6  -3516316.83821        16.250           0.938
  23844466.664    -3247256.983 5  -2442777.01621        10.250           0.375
  23981360.992    -3432940.519 5  -2534995.32621         8.000           0.313
 91  6  6 17 44  0.0000000  0  5G18G 2G11G16G 6
  22016589.406     6209625.252 7   4838658.06622        22.500           1.594
  22505801.430    -8482829.625 6  -6609984.37021        18.750           1.313
  23125080.945    -4522946.399 6  -3524368.28021        16.500           1.031
  23843139.836    -3254240.612 5  -2448218.79721        10.250           0.469
  23974737.727    -3467769.625 5  -2562134.84721         8.000           0.188
 91  6  6 17 44 15.0000000  0  5G18G 2G11G16G 6
  22024306.250     6250172.360 7   4870253.13921        22.750           1.469
  22498706.023    -8520121.251 6  -6639042.74021        19.000           1.281
  23123141.305    -4533137.630 6  -3532309.48921        16.500           0.906
  23841835.539    -3261094.684 5  -2453559.65521        10.500           0.406
  23968107.141    -3502591.428 5  -2589268.70821         7.750           0.344
 91  6  6 17 44 30.0000000  0  5G18G 2G11G16G 6
  22032038.422     6290800.141 7   4901911.07222        23.000           1.531
  22491621.891    -8557349.310 6  -6668051.58021        19.000           1.375
  23121229.688    -4543186.872 6  -3540140.05921        16.250           0.875
  23840552.961    -3267819.022 5  -2458799.41721         9.750           0.500
  23961484.555    -3537405.455 5  -2616396.48421         8.000           0.344
 91  6  6 17 44 45.0000000  0  5G18G 2G11G16G 6
  22039783.695     6331512.018 7   4933634.53522        22.250           1.563
  22484549.266    -8594510.123 6  -6697008.02321        19.000           1.375
  23119347.039    -4553090.452 6  -3547857.12821        16.750           0.875
  23839294.781    -3274409.888 5  -2463935.15321         9.250           0.375
  23954863.633    -3572208.336 5  -2643515.63621         8.250           0.344
 91  6  6 17 45  0.0000000  0  5G18G 2G11G16G 6
  22047546.758     6372305.014 7   4965421.20022        21.750           1.625
  22477491.016    -8631606.309 6  -6725914.09821        19.000           1.375
  23117488.555    -4562850.831 6  -3555462.60321        16.500           0.875
  23838068.375    -3280870.176 5  -2468969.15821        10.000           0.469
  23948239.336    -3607002.728 5  -2670628.08221         8.250           0.344
 91  6  6 17 45 15.0000000  0  5G18G 2G11G16G 6
  22055326.414     6413182.673 7   4997273.84622        22.000           1.594
  22470443.555    -8668633.903 6  -6754766.73521        18.750           1.438
  23115659.586    -4572464.100 6  -3562953.44821        16.750           0.906
  23836864.594    -3287195.797 5  -2473898.24821        10.000           0.344
  23941621.156    -3641784.790 5  -2697730.97421         8.500           0.219
 91  6  6 17 45 30.0000000  0  5G18G 2G11G16G 6
  22063120.703     6454143.120 7   5029190.99122        22.250           1.563
  22463410.188    -8705594.477 6  -6783567.15122        18.750           1.500
  23113856.430    -4581931.827 6  -3570330.87721        16.500           0.813
  23835686.570    -3293388.764 5  -2478723.93721        10.000           0.406
  23935003.664    -3676556.232 5  -2724825.56021         8.500           0.344
 91  6  6 17 45 45.0000000  0  5G18G 2G11G16G 6
  22070930.758     6495185.050 7   5061171.64322        21.750           1.563
  22456389.828    -8742488.935 6  -6812316.04521        19.000           1.375
  23112081.555    -4591254.860 6  -3577595.55821        16.750           0.938
  23834533.398    -3299449.968 5  -2483446.97521        10.000           0.375
  23928391.875    -3711318.108 5  -2751912.71421         8.750           0.313
 91  6  6 17 46  0.0000000  0  5G18G 2G11G16G 6
  22078756.313     6536310.235 7   5093217.15422        21.500           1.625
  22449382.188    -8779315.406 6  -6841011.96021        19.250           1.375
  23110335.875    -4600431.231 6  -3584745.96521        16.750           0.969
  23833405.758    -3305377.546 5  -2488065.89421        10.000           0.344
  23921778.828    -3746068.539 5  -2778990.94621         8.250           0.406
 91  6  6 17 46 15.0000000  0  5G18G 2G11G16G 6
  22086597.898     6577515.872 7   5125325.36422        21.750           1.531
  22442387.133    -8816076.457 6  -6869656.89821        19.500           1.344
  23108618.352    -4609463.293 6  -3591783.91321        17.250           0.844
  23832300.586    -3311174.123 5  -2492582.71421         9.750           0.375
  23915163.648    -3780810.149 5  -2806062.29321         8.250           0.281
 91  6  6 17 46 30.0000000  0  5G18G 2G11G16G 6
  22094454.656     6618802.753 7   5157496.89221        21.500           1.469
  22435405.023    -8852770.946 6  -6898249.98221        19.500           1.469
  23106927.633    -4618350.002 6  -3598708.59921        18.000           0.844
  23831222.148    -3316838.707 5  -2496996.69621         9.500           0.406
  23908558.164    -3815542.034 5  -2833126.07921         8.250           0.250
 91  6  6 17 46 45.0000000  0  5G18G 2G11G16G 6
  22102325.555     6660173.357 7   5189733.64222        21.250           1.563
  22428436.383    -8889395.802 6  -6926788.79721        19.500           1.438
  23105264.516    -4627088.183 6  -3605517.54621        18.000           0.938
  23830168.945    -3322368.253 5  -2501305.43621         9.250           0.469
  23901949.063    -3850261.191 5  -2860179.93921         8.000           0.250
 91  6  6 17 47  0.0000000  0  5G18G 2G11G16G 6
  22110216.375     6701626.609 7   5222034.79621        21.500           1.469
  22421477.742    -8925952.244 6  -6955274.30222        19.500           1.500
  23103630.438    -4635678.932 6  -3612211.60221        17.750           0.906
  23829144.328    -3327764.230 5  -2505510.11821         9.250           0.344
  23895344.227    -3884968.891 5  -2887224.87921         8.250           0.313
 91  6  6 17 47 15.0000000  0  5G18G 2G11G16G 6
  22118119.320     6743162.237 7   5254400.13521        21.500           1.406
  22414533.281    -8962440.091 7  -6983706.35722        20.000           1.594
  23102022.289    -4644122.332 6  -3618790.85221        17.250           0.875
  23828143.070    -3333026.621 5  -2509610.69321         9.500           0.469
  23888739.398    -3919665.147 5  -2914260.89021         8.250           0.344
 91  6  6 17 47 30.0000000  0  5G18G 2G11G16G 6
  22126038.164     6784774.893 7   5286825.50021        21.250           1.469
  22407603.117    -8998864.313 7  -7012088.82922        20.000           1.625
  23100443.227    -4652423.079 6  -3625258.94021        17.500           1.031
  23827166.813    -3338160.330 5  -2513611.00721         9.750           0.344
  23882141.930    -3954354.944 5  -2941291.85621         8.500           0.375
 91  6  6 17 47 45.0000000  0  5G18G 2G11G16G 6
  22133972.203     6826469.049 7   5319314.37521        20.750           1.344
  22400684.539    -9035219.935 7  -7040417.84721        20.000           1.469
  23098890.805    -4660576.201 6  -3631611.99221        17.500           0.875
  23826214.773    -3343160.709 5  -2517507.42521         9.750           0.438
  23875543.516    -3989033.520 5  -2968314.09021         8.500           0.219
 91  6  6 17 48  0.0000000  0  5G18G 2G11G16G 6
  22141918.813     6868239.107 7   5351862.38921        20.500           1.406
  22393779.156    -9071512.341 7  -7068697.60622        20.250           1.594
  23097365.938    -4668587.117 6  -3637854.23721        17.750           0.875
  23825287.672    -3348033.222 5  -2521304.20421         9.500           0.375
  23868942.188    -4023706.247 5  -2995331.80821         8.250           0.281
 91  6  6 17 48 15.0000000  0  5G18G 2G11G16G 6
  22149885.063     6910090.096 7   5384473.46521        20.500           1.313
  22386886.938    -9107736.483 7  -7096924.17022        20.500           1.500
  23095870.570    -4676450.743 6  -3643981.70121        17.500           0.906
  23824382.875    -3352772.912 5  -2524997.48221         9.000           0.313
  23862349.617    -4058368.320 5  -3022341.16721         8.750           0.406
 91  6  6 17 48 30.0000000  0  5G18G 2G11G16G 6
  22157863.156     6952022.293 7   5417147.82021        20.500           1.375
  22380006.742    -9143891.606 7  -7125096.95022        20.500           1.500
  23094401.070    -4684166.239 6  -3649993.74721        17.250           0.969
  23823508.125    -3357379.023 5  -2528586.68221         9.250           0.344
  23855757.344    -4093019.031 5  -3049341.70321         8.750           0.344
 91  6  6 17 48 45.0000000  0  5G18G 2G11G16G 6
  22165858.266     6994034.030 7   5449884.15321        20.250           1.406
  22373139.227    -9179978.981 7  -7153216.94122        20.500           1.500
  23092961.664    -4691734.947 6  -3655891.41821        17.250           0.938
  23822661.547    -3361853.275 5  -2532073.13221         9.750           0.406
  23849161.953    -4127659.714 5  -3076334.41321         8.750           0.344
 91  6  6 17 49  0.0000000  0  5G18G 2G11G16G 6
  22173867.086     7036121.911 7   5482679.82621        20.500           1.438
  22366283.039    -9216001.523 7  -7181286.41322        20.000           1.500
  23091549.898    -4699159.692 6  -3661676.90421        17.500           0.938
  23821831.570    -3366198.522 5  -2535459.05121        10.000           0.375
  23842574.125    -4162293.360 5  -3103321.62621         9.250           0.281
 91  6  6 17 49 15.0000000  0  5G18G 2G11G16G 6
  22181891.016     7078286.307 7   5515535.11022        20.500           1.563
  22359441.430    -9251958.719 7  -7209304.96122        20.000           1.531
  23090164.055    -4706440.005 6  -3667349.83721        17.500           0.844
  23821027.352    -3370414.271 5  -2538744.06021        10.000           0.281
  23835984.102    -4196919.698 5  -3130303.17121         8.750           0.406
 91  6  6 17 49 30.0000000  0  5G18G 2G11G16G 6
  22189930.000     7120527.725 7   5548450.41721        20.500           1.344
  22352611.016    -9287849.895 7  -7237272.06322        20.250           1.500
  23088805.633    -4713575.041 6  -3672909.57321        17.250           0.875
  23820250.578    -3374500.065 5  -2541927.84021        10.000           0.375
  23829397.859    -4231538.059 5  -3157278.49021         8.750           0.313
 91  6  6 17 49 45.0000000  0  5G18G 2G11G16G 6
  22197983.648     7162850.316 7   5581428.98221        20.750           1.344
  22345795.055    -9323670.803 7  -7265184.41622        20.250           1.563
  23087477.500    -4720560.360 6  -3678352.64921        17.500           0.906
  23819497.195    -3378451.819 5  -2545007.14221         9.500           0.344
  23822809.430    -4266144.203 5  -3184244.28421         8.750           0.375
 91  6  6 17 50  0.0000000  0  5G18G 2G11G16G 6
  22206053.289     7205249.705 7   5614467.37221        20.750           1.375
  22338991.789    -9359425.187 7  -7293044.92522        20.750           1.500
  23086176.219    -4727399.898 6  -3683682.14121        17.750           0.813
  23818772.648    -3382273.563 5  -2547985.14621         9.000           0.344
  23816223.594    -4300742.091 5  -3211203.64821         8.500           0.344
 91  6  6 17 50 15.0000000  0  5G18G 2G11G16G 6
  22214136.508     7247729.257 7   5647568.23121        21.000           1.313
  22332201.063    -9395109.462 7  -7320850.80721        20.500           1.469
  23084901.063    -4734089.932 6  -3688895.11921        17.750           0.938
  23818069.164    -3385961.314 5  -2550858.73721         9.250           0.375
  23809642.633    -4335328.112 5  -3238153.77621         8.750           0.250
 91  6  6 17 50 30.0000000  0  5G18G 2G11G16G 6
  22222234.164     7290284.912 7   5680728.40021        20.750           1.438
  22325422.078    -9430727.582 7  -7348605.14322        20.750           1.500
  23083656.617    -4740634.386 6  -3693994.67021        17.750           0.813
  23817394.758    -3389519.363 5  -2553631.24721         9.750           0.344
  23803065.609    -4369906.198 5  -3265097.72621         9.250           0.375
 91  6  6 17 50 45.0000000  0  5G18G 2G11G16G 6
  22230346.805     7332916.871 7   5713948.01821        20.750           1.281
  22318657.211    -9466278.878 7  -7376307.40821        20.750           1.438
  23082440.258    -4747032.629 6  -3698980.28521        17.250           0.875
  23816742.047    -3392947.300 5  -2556302.39821        10.000           0.375
  23796488.641    -4404476.005 5  -3292035.21821         9.500           0.313
 91  6  6 17 51  0.0000000  0  5G18G 2G11G16G 6
  22238474.047     7375623.840 7   5747226.09021        20.500           1.344
  22311904.219    -9501764.410 7  -7403958.42521        21.250           1.469
  23081249.031    -4753285.731 6  -3703852.80621        17.500           0.875
  23816109.195    -3396246.283 5  -2558873.05821         9.250           0.344
  23789912.141    -4439038.606 5  -3318967.08021         9.500           0.344
 91  6  6 17 51 15.0000000  0  5G18G 2G11G16G 6
  22246616.141     7418408.608 7   5780564.78021        20.750           1.313
  22305163.789    -9537180.665 7  -7431555.46722        21.250           1.563
  23080088.281    -4759390.173 6  -3708609.48621        17.250           1.031
  23815511.758    -3399412.926 5  -2561340.59121        10.000           0.281
  23783334.758    -4473590.614 5  -3345890.68021         9.250           0.281
 91  6  6 17 51 30.0000000  0  5G18G 2G11G16G 6
  22254770.047     7461266.261 7   5813960.27321        20.250           1.250
  22298437.289    -9572532.252 7  -7459102.12322        21.250           1.531
  23078953.500    -4765350.551 6  -3713253.91221        17.750           0.813
  23814936.188    -3402452.093 5  -2563708.79921        10.250           0.344
  23776758.859    -4508136.803 5  -3372809.78421         9.250           0.375
 91  6  6 17 51 45.0000000  0  5G18G 2G11G16G 6
  22262941.352     7504199.637 7   5847414.75921        20.250           1.406
  22291722.531    -9607816.444 7  -7486596.26021        21.000           1.406
  23077847.047    -4771164.003 6  -3717783.84721        17.500           0.906
  23814381.094    -3405361.057 5  -2565975.54921        10.000           0.375
  23770188.914    -4542674.439 5  -3399722.19721         9.250           0.313
 91  6  6 17 52  0.0000000  0  5G18G 2G11G16G 6
  22271125.586     7547209.290 7   5880928.68621        20.500           1.344
  22285021.367    -9643032.296 7  -7514037.14022        21.000           1.500
  23076770.125    -4776829.639 6  -3722198.60721        17.000           0.875
  23813850.055    -3408138.853 5  -2568140.07321         9.500           0.281
  23763617.164    -4577202.788 5  -3426627.36421         9.000           0.344
 91  6  6 17 52 15.0000000  0  5G18G 2G11G16G 6
  22279324.352     7590293.371 7   5914500.61221        20.250           1.313
  22278333.000    -9678181.056 7  -7541425.74622        21.250           1.563
  23075717.531    -4782348.731 6  -3726499.18021        17.500           0.875
  23813347.508    -3410787.017 5  -2570203.61321         9.250           0.406
  23757045.180    -4611723.130 5  -3453526.30721         8.750           0.344
 91  6  6 17 52 30.0000000  0  5G18G 2G11G16G 6
  22287537.500     7633456.909 7   5948134.45921        20.000           1.219
  22271657.391    -9713257.624 7  -7568758.09721        21.000           1.438
  23074697.461    -4787716.061 6  -3730681.49521        17.000           0.906
  23812869.453    -3413300.621 5  -2572162.29521         9.750           0.406
  23750482.219    -4646230.357 5  -3480415.05421         8.750           0.344
 91  6  6 17 52 45.0000000  0  5G18G 2G11G16G 6
  22295764.906     7676693.406 6   5981825.13621        19.500           1.313
  22264997.008    -9748268.284 7  -7596039.08921        21.250           1.469
  23073703.984    -4792937.887 6  -3734750.43221        17.250           0.906
  23812415.859    -3415686.059 5  -2574021.09821        10.000           0.344
  23743916.680    -4680730.827 5  -3507298.50221         9.000           0.344
 91  6  6 17 53  0.0000000  0  5G18G 2G11G16G 6
  22304008.906     7720005.415 6   6015574.66821        19.750           1.313
  22258347.336    -9783209.942 7  -7623266.31622        21.250           1.531
  23072737.836    -4798011.216 6  -3738703.66621        17.000           0.906
  23811986.188    -3417940.333 5  -2575777.70021         9.500           0.250
  23737351.422    -4715221.633 5  -3534174.41921         9.000           0.313
 91  6  6 17 53 15.0000000  0  5G18G 2G11G16G 6
  22312264.859     7763394.034 7   6049383.89021        20.000           1.344
  22251711.375    -9818081.402 7  -7650438.84622        21.250           1.531
  23071800.055    -4802934.791 6  -3742540.19521        17.000           0.938
  23811582.414    -3420062.291 5  -2577431.20021         9.500           0.313
  23730792.133    -4749701.672 5  -3561041.99521         8.750           0.313
 91  6  6 17 53 30.0000000  0  5G18G 2G11G16G 6
  22320535.477     7806857.242 6   6083251.22821        19.750           1.250
  22245088.023    -9852884.604 7  -7677558.18922        21.000           1.594
  23070892.680    -4807710.546 6  -3746261.54821        17.000           0.938
  23811206.422    -3422053.977 5  -2578983.19521        10.000           0.406
  23724233.766    -4784172.872 5  -3587902.63121         9.250           0.281
 91  6  6 17 53 45.0000000  0  5G18G 2G11G16G 6
  22328820.547     7850397.724 6   6117178.79221        19.500           1.281
  22238478.477    -9887616.383 7  -7704621.87722        20.500           1.563
  23070012.797    -4812335.273 6  -3749865.21821        17.250           0.875
  23810848.688    -3423912.462 5  -2580431.40621        10.000           0.313
  23717675.695    -4818632.118 5  -3614753.97321        10.000           0.344
 91  6  6 17 54  0.0000000  0  5G18G 2G11G16G 6
  22337120.203     7894010.246 6   6151162.48421        19.750           1.219
  22231882.219    -9922281.646 7  -7731633.73222        20.250           1.531
  23069161.297    -4816813.792 6  -3753354.96121        17.000           0.813
  23810515.445    -3425642.743 5  -2581779.68821         9.500           0.375
  23711120.906    -4853084.393 5  -3641599.86921        10.000           0.469
 91  6  6 17 54 15.0000000  0  5G18G 2G11G16G 6
  22345434.180     7937698.529 6   6185205.21221        19.500           1.250
  22225299.664    -9956876.255 7  -7758590.53721        21.000           1.469
  23068336.070    -4821141.990 6  -3756727.57521        17.000           0.875
  23810216.867    -3427240.919 5  -2583025.02421        10.000           0.219
  23704563.875    -4887525.630 5  -3668437.17021         9.250           0.313
 91  6  6 17 54 30.0000000  0  5G18G 2G11G16G 6
  22353760.750     7981462.793 6   6219307.14621        19.000           1.219
  22218729.641    -9991399.535 7                        21.250
  23067541.953    -4825319.195 6  -3759982.52321        17.250           0.938
  23809938.273    -3428706.538 5  -2584167.10921        10.000           0.313
  23698013.203    -4921955.384 5                         9.250
 91  6  6 17 54 45.0000000  0  5G18G 2G11G16G 6
  22362103.883     8025296.713 6   6253463.35221        19.250           1.250
  22212170.719   -10025857.584 7                        21.000
  23066772.844    -4829351.541 6  -3763124.59621        16.750           0.875
  23809682.719    -3430045.875 5  -2585210.77021         9.750           0.313
  23691463.922    -4956379.816 5                         9.500
 91  6  6 17 55  0.0000000  0  5G18G 2G11G16G 6
  22370458.945     8069197.211 6   6287671.44721        19.250           1.188
  22205627.188   -10060253.469 7                        21.000
  23066032.438    -4833242.052 6  -3766156.14321        16.500           1.000
  23809450.250    -3431261.996 5  -2586158.42921        10.000           0.375
  23684912.523    -4990801.925 5                         9.500
 91  6  6 17 55 15.0000000  0  5G18G 2G11G16G 6
  22378824.922     8113170.086 6   6321935.93321        19.000           1.219
  22199095.500   -10094580.888 7  -7865892.72022        21.250           1.688
  23065321.078    -4836984.534 6  -3769072.35121        17.000           0.906
  23809241.484    -3432348.684 5  -2587005.23521         9.500           0.313
  23678360.656    -5025215.665 5  -3775728.00521         9.500           0.344
 91  6  6 17 55 30.0000000  0  5G18G 2G11G16G 6
  22387205.922     8157210.367 6   6356252.93921        18.750           1.188
  22192575.766   -10128844.486 7  -7892591.60522        21.250           1.656
  23064636.195    -4840583.543 6  -3771876.76021        17.000           0.844
  23809061.570    -3433310.817 5  -2587754.97221         9.750           0.406
  23671813.953    -5059625.682 5  -3802540.98421         9.750           0.406
 91  6  6 17 55 45.0000000  0  5G18G 2G11G16G 6
  22395599.031     8201323.772 6   6390626.93021        18.500           1.219
  22186068.375   -10163038.219 7  -7919236.04522        21.500           1.719
  23063981.719    -4844033.026 6  -3774564.64921        17.000           0.875
  23808904.211    -3434142.551 5  -2588403.10621         9.750           0.313
  23665266.531    -5094025.958 5  -3829346.39121         9.500           0.344
 91  6  6 17 56  0.0000000  0  5G18G 2G11G16G 6
  22404008.586     8245511.376 6   6425058.74121        18.500           1.125
  22179574.273   -10197160.827 7  -7945825.06122        21.500           1.781
  23063352.875    -4847331.767 6  -3777135.08321        16.750           0.875
  23808769.133    -3434842.639 5  -2588948.66521         9.500           0.375
  23658724.008    -5128415.372 5  -3856143.30321         9.750           0.281
 91  6  6 17 56 15.0000000  0  5G18G 2G11G16G 6
  22412430.438     8289771.116 6   6459546.75321        18.500           1.156
  22173093.648   -10231213.964 7  -7972359.95022        21.000           1.813
  23062753.508    -4850481.472 6  -3779589.39021        16.750           0.938
  23808660.195    -3435412.805 5  -2589392.98921         9.250           0.375
  23652185.508    -5162795.735 5  -3882933.17721         9.750           0.281
 91  6  6 17 56 30.0000000  0  5G18G 2G11G16G 6
  22420867.531     8334101.958 6   6494090.17221        18.750           1.188
  22166627.953   -10265198.222 7  -7998841.16222        21.000           1.750
  23062182.516    -4853482.778 6  -3781928.04821        17.000           0.875
  23808576.477    -3435854.120 5  -2589736.87621         9.750           0.375
  23645642.992    -5197167.736 5  -3909716.54421         9.750           0.313
 91  6  6 17 56 45.0000000  0  5G18G 2G11G16G 6
  22429317.531     8378504.191 6   6528689.21521        19.000           1.219
  22160174.133   -10299113.132 7  -8025268.33622        21.000           1.813
  23061639.336    -4856335.115 6  -3784150.64121        16.750           0.813
  23808515.977    -3436166.218 5  -2589980.11021        10.250           0.344
  23639100.383    -5231530.785 5  -3936492.92321         9.750           0.281
 91  6  6 17 57  0.0000000  0  5G18G 2G11G16G 6
  22437779.367     8422979.673 6   6563345.34621        18.750           1.156
  22153733.664   -10332956.664 7  -8051639.89522        21.250           1.813
  23061125.641    -4859036.443 6  -3786255.55821        17.000           0.813
  23808482.117    -3436347.070 5                         9.750
  23632567.625    -5265883.045 5  -3963260.89521        10.250           0.469
 91  6  6 17 57 15.0000000  0  5G18G 2G11G16G 6
  22446257.688     8467528.835 6   6598058.88621        18.500           1.156
  22147306.969   -10366728.204 7  -8077955.36122        21.250           1.781
  23060638.383    -4861586.062 6  -3788242.26221        17.250           0.844
  23808473.891    -3436396.112 5                         9.750
  23626032.305    -5300223.820 5  -3990019.91021        10.750           0.281
 91  6  6 17 57 30.0000000  0  5G18G 2G11G16G 6
  22454748.000     8512151.128 6   6632829.40921        18.500           1.188
  22140893.672   -10400428.002 7  -8104214.91522        21.500           2.000
  23060182.789    -4863984.264 6  -3790110.97821        16.750           0.906
  23808490.836    -3436313.970 5                         9.750
  23619499.195    -5334553.493 5  -4016770.27521        10.750           0.500
 91  6  6 17 57 45.0000000  0  5G18G 2G11G16G 6
  22463253.719     8556841.888 6   6667653.28721        18.500           1.156
  22134493.516   -10434060.151 7  -8130421.76422        21.500           1.906
  23059754.586    -4866235.211 6  -3791864.95821        17.000           0.906
  23808531.563    -3436104.914 5                         9.750
  23612966.523    -5368876.265 5  -4043515.27321        10.250           0.406
 91  6  6 17 58  0.0000000  0  5G18G 2G11G16G 6
  22471770.586     8601604.881 6   6702533.44721        18.250           1.125
  22128108.125   -10467620.557 7  -8156572.70622        21.500           2.063
  23059356.070    -4868334.816 6  -3793500.99521        16.750           1.000
  23808590.602    -3435764.881 5                         9.500
  23606435.320    -5403188.105 5  -4070251.74521        10.250           0.438
 91  6  6 17 58 15.0000000  0  5G18G 2G11G16G 6
  22480304.180     8646440.353 6   6737470.08421        18.750           1.156
  22121734.836   -10501108.443 7  -8182667.14022        21.500           2.000
  23058986.102    -4870282.500 6  -3795018.65521        17.250           0.875
  23808684.008    -3435293.269 5  -2589300.05821         9.250           0.344
  23599909.813    -5437488.422 5  -4096979.24021        10.250           0.438
 91  6  6 17 58 30.0000000  0  5G18G 2G11G16G 6
  22488849.594     8691345.396 6   6772460.93121        18.500           1.219
  22115375.938   -10534526.643 7  -8208707.27522        21.500           2.031
  23058643.594    -4872080.943 6  -3796420.02821        17.000           0.938
  23808796.547    -3434693.047 5  -2588832.39521         9.500           0.313
  23593387.375    -5471780.007 5  -4123699.93621        10.750           0.375
 91  6  6 17 58 45.0000000  0  5G18G 2G11G16G 6
  22497406.898     8736318.235 6   6807504.61021        18.250           1.063
  22109029.844   -10567876.709 7  -8234694.31922        21.500           2.063
  23058329.469    -4873731.813 6  -3797706.40521        16.750           0.906
  23808936.563    -3433965.888 5  -2588265.80021         9.500           0.438
  23586858.250    -5506064.532 5  -4150415.12121        10.250           0.313
 91  6  6 17 59  0.0000000  0  5G18G 2G11G16G 6
  22505978.055     8781361.308 6   6842603.01421        17.750           1.000
  22102696.055   -10601156.226 7  -8260626.38622        21.500           2.000
  23058042.250    -4875232.551 6  -3798875.80021        17.000           0.938
  23809099.703    -3433109.433 5  -2587598.44921         9.500           0.375
  23580342.547    -5540339.489 5  -4177122.86421        10.750           0.375
 91  6  6 17 59 15.0000000  0  5G18G 2G11G16G 6
  22514563.117     8826473.811 6   6877755.51821        18.000           1.094
  22096376.836   -10634365.267 7  -8286503.54522        21.250           1.969
  23057786.531    -4876583.277 6  -3799928.30021        17.750           0.969
  23809287.430    -3432124.146 5  -2586830.72421         9.250           0.375
  23573818.867    -5574605.085 5  -4203823.29721        11.000           0.406
 91  6  6 17 59 30.0000000  0  5G18G 2G11G16G 6
  22523159.914     8871653.469 6   6912960.34821        18.000           1.094
  22090069.766   -10667505.940 7  -8312327.42422        21.250           2.125
  23057558.102    -4877786.050 6  -3800865.52621        17.500           0.969
  23809499.555    -3431012.310 5  -2585964.39321         9.500           0.438
  23567297.469    -5608863.520 5  -4230518.16121        10.750           0.375
 91  6  6 17 59 45.0000000  0  5G18G 2G11G16G 6
  22531771.227     8916904.456 6   6948220.76821        18.000           1.031
  22083778.266   -10700573.843 7  -8338094.60222        21.250           2.000
  23057356.805    -4878836.623 6  -3801684.13721        17.250           0.906
  23809738.578    -3429769.796 5  -2584996.21321        10.000           0.250
  23560784.719    -5643110.508 5  -4257204.09721        11.250           0.344
 91  6  6 18  0  0.0000000  0  5G18G 2G11G16G 6
  22540395.617     8962220.956 6   6983532.23921        18.000           1.000
  22077496.813   -10733574.367 7  -8363809.28122        21.000           1.969
  23057186.203    -4879740.421 6  -3802388.38821        17.250           0.938
  23809993.906    -3428401.731 5  -2583930.22121         9.750           0.313
  23554267.758    -5677351.527 5  -4283885.38521        10.750           0.406
 91  6  6 18  0 15.0000000  0  5G18G 2G11G16G 6
  22549031.469     9007601.808 6   7018893.85121        18.250           1.031
  22071230.234   -10766508.223 7  -8389472.00822        21.250           2.000
  23057042.430    -4880498.175 6  -3802978.83621        17.000           0.969
  23810280.211    -3426909.379 5  -2582767.39321        10.000           0.219
  23547752.219    -5711587.314 5  -4310562.59921        10.250           0.281
 91  6  6 18  0 30.0000000  0  5G18G 2G11G16G 6
  22557679.242     9053050.344 6   7054308.19821        17.750           1.063
  22064977.531   -10799371.842 7  -8415080.00422        21.750           2.031
  23056926.969    -4881106.192 6  -3803452.60221        17.500           0.938
  23810587.844    -3425289.170 5  -2581504.92721         9.750           0.344
  23541236.070    -5745814.265 5  -4337232.93521        10.250           0.438
 91  6  6 18  0 45.0000000  0  5G18G 2G11G16G 6
  22566340.734     9098569.522 6   7089777.58621        17.750           1.000
  22058737.953   -10832162.140 7  -8440630.87222        21.500           2.094
  23056837.242    -4881561.419 6  -3803807.33021        17.750           0.938
  23810922.813    -3423538.075 5  -2580140.47221         9.500           0.344
  23534726.781    -5780029.385 5  -4363894.04121        10.500           0.438
 91  6  6 18  1  0.0000000  0  5G18G 2G11G16G 6
  22575017.102     9144155.594 6   7125299.10721        17.500           1.000
  22052511.414   -10864882.227 7  -8466127.02522        22.250           2.000
  23056781.805    -4881867.013 6  -3804045.44221        17.500           0.906
  23811277.922    -3421659.360 5  -2578676.55821         9.500           0.281
  23528214.758    -5814235.854 5  -4390548.41721        10.250           0.313
 91  6  6 18  1 15.0000000  0  5G18G 2G11G16G 6
  22583703.914     9189811.012 6   7160874.66521        17.500           1.000
  22046298.281   -10897529.708 7  -8491566.60222        21.250           2.000
  23056752.375    -4882020.628 6                        17.750
  23811659.000    -3419650.992 5  -2577111.62721         9.250           0.344
  23521706.352    -5848431.343 5  -4417194.22921        10.000           0.406
 91  6  6 18  1 30.0000000  0  5G18G 2G11G16G 6
  22592405.703     9235532.218 6   7196501.48021        17.500           1.000
  22040098.531   -10930107.792 7  -8516952.10622        21.500           2.156
  23056751.727    -4882025.549 6                        17.500
  23812069.188    -3417516.293 5  -2575448.26221         9.750           0.344
  23515204.078    -5882619.108 5  -4443834.03321        10.000           0.344
 91  6  6 18  1 45.0000000  0  5G18G 2G11G16G 6
  22601119.375     9281319.582 6   7232179.84821        17.750           1.063
  22033912.672   -10962615.703 7  -8542282.92122        21.500           2.000
  23056778.688    -4881881.022 6                        17.000
  23812500.063    -3415254.470 5  -2573685.82921         9.500           0.313
  23508699.656    -5916798.443 5  -4470467.25621        10.500           0.438
 91  6  6 18  2  0.0000000  0  5G18G 2G11G16G 6
  22609843.391     9327172.733 6   7267909.47221        17.500           1.000
  22027741.297   -10995053.352 7  -8567558.99022        21.750           1.906
  23056831.867    -4881586.963 6                        17.250
  23812955.211    -3412865.683 5  -2571824.47121        10.000           0.250
  23502199.742    -5950969.366 5  -4497093.93121        10.750           0.375
 91  6  6 18  2 15.0000000  0  5G18G 2G11G16G 6
  22618581.914     9373091.547 6   7303690.26721        17.750           0.938
  22021581.078   -11027420.637 7  -8592780.22822        21.500           1.938
  23056920.266    -4881143.362 6  -3803481.53121        17.500           0.875
  23813431.195    -3410350.288 5  -2569864.43721        10.000           0.281
  23495696.969    -5985131.848 5  -4523714.01821        10.000           0.438
 91  6  6 18  2 30.0000000  0  5G18G 2G11G16G 6
  22627335.852     9419094.543 6   7339536.66521        17.750           1.000
  22015437.555   -11059698.828 7  -8617932.03822        21.250           1.938
  23057036.953    -4880531.495 6  -3803004.75121        17.000           0.844
  23813931.414    -3407689.421 5  -2567791.07721         9.250           0.250
  23489200.828    -6019267.168 5  -4550312.94721        10.500           0.406
 91  6  6 18  2 45.0000000  0  5G18G 2G11G16G 6
  22636104.938     9465170.048 6   7375439.55321        17.750           0.906
  22009311.844   -11091899.334 7  -8643023.31722        21.500           1.938
  23057181.383    -4879762.725 6  -3802405.70921        17.000           0.875
  23814467.914    -3404894.784 5  -2565613.47721         9.500           0.313
  23482705.477    -6053386.744 5  -4576899.62021        10.250           0.469
 91  6  6 18  3  0.0000000  0  5G18G 2G11G16G 6
  22644884.445     9511311.038 6   7411393.47321        17.750           0.938
  22003196.484   -11124028.819 7  -8668059.25422        21.500           1.875
  23057355.328    -4878843.813 6  -3801689.67121        16.750           0.875
  23815025.445    -3401973.226 5  -2563336.98021         9.500           0.375
  23476217.836    -6087497.437 5  -4603479.36321        11.000           0.375
 91  6  6 18  3 15.0000000  0  5G18G 2G11G16G 6
  22653677.750     9557513.370 6   7447395.19221        18.000           1.000
  21997095.000   -11156091.174 7  -8693042.88322        21.250           1.844
  23057558.758    -4877778.624 6  -3800859.65121        16.750           0.844
  23815607.125    -3398928.857 5  -2560964.77021         9.500           0.375
  23469725.727    -6121602.910 5  -4630055.04221        10.500           0.344
 91  6  6 18  3 30.0000000  0  5G18G 2G11G16G 6
  22662483.781     9603782.529 6   7483448.98921        18.250           0.938
  21991009.250   -11188080.693 7  -8717969.75522        21.250           1.875
  23057789.086    -4876561.493 6  -3799911.23221        16.500           0.813
  23816208.406    -3395755.881 5  -2558492.34521         9.000           0.281
  23463236.414    -6155697.676 5  -4656622.37421        10.750           0.344
 91  6  6 18  3 45.0000000  0  5G18G 2G11G16G 6
  22671300.156     9650122.249 6   7519557.76921        18.500           0.906
  21984935.445   -11219993.088 7  -8742836.52722        21.250           1.875
  23058051.109    -4875188.395 6  -3798841.28421        16.500           0.906
  23816835.344    -3392450.467 5  -2555916.72521         8.750           0.375
  23456753.688    -6189777.589 5  -4683178.14121        10.750           0.438
 91  6  6 18  4  0.0000000  0  5G18G 2G11G16G 6
  22680130.180     9696523.608 6   7555714.57221        18.250           0.906
  21978876.430   -11251836.977 7  -8767649.91322        21.250           1.813
  23058339.820    -4873667.864 6  -3797656.45521        16.500           0.875
  23817488.766    -3389021.390 5  -2553244.74821         9.500           0.313
  23450266.734    -6223851.171 5  -4709728.95821        11.000           0.438
 91  6  6 18  4 15.0000000  0  5G18G 2G11G16G 6
  22688973.570     9742990.787 6   7591922.66421        18.000           0.906
  21972830.695   -11283608.097 7  -8792406.59322        21.500           1.813
  23058659.672    -4871995.652 6  -3796353.43521        16.500           0.906
  23818166.734    -3385464.591 5  -2550473.25221         9.500           0.313
  23443787.781    -6257914.283 5  -4736271.63621        11.500           0.406
 91  6  6 18  4 30.0000000  0  5G18G 2G11G16G 6
  22697825.734     9789520.995 6   7628179.87521        17.750           0.938
  21966798.258   -11315308.978 7  -8817108.54922        21.500           1.781
  23059006.563    -4870174.295 6  -3794934.19521        17.000           0.875
  23818868.602    -3381782.737 5  -2547604.31321         9.500           0.219
  23437302.883    -6291969.403 5  -4762808.07321        11.000           0.500
 91  6  6 18  4 45.0000000  0  5G18G 2G11G16G 6
  22706693.844     9836117.608 6   7664488.82821        17.500           0.938
  21960779.328   -11346935.920 7  -8841752.88622        21.250           1.906
  23059380.281    -4868200.027 6  -3793395.80121        16.250           0.938
  23819593.320    -3377972.168 5  -2544635.06521         9.500           0.313
  23430830.102    -6326012.917 5  -4789335.47021        11.500           0.406
 91  6  6 18  5  0.0000000  0  5G18G 2G11G16G 6
  22715573.188     9882780.485 6   7700849.41121        17.250           0.844
  21954775.531   -11378488.604 7  -8866339.36222        21.000           1.844
  23059785.367    -4866072.660 6  -3791738.11721        16.500           0.906
  23820344.664    -3374032.575 5  -2541565.29721         9.500           0.313
  23424349.969    -6360044.555 5  -4815853.62121        11.750           0.531
 91  6  6 18  5 15.0000000  0  5G18G 2G11G16G 6
  22724465.367     9929507.002 6   7737259.58521        17.250           0.938
  21948783.539   -11409969.422 7  -8890869.83522        20.750           1.969
  23060219.391    -4863794.539 6  -3789962.96521        16.750           0.906
  23821114.219    -3369966.411 5  -2538396.87421         9.500           0.313
  23417879.102    -6394066.653 5  -4842364.34321        11.500           0.406
 91  6  6 18  5 30.0000000  0  5G18G 2G11G16G 6
  22733369.344     9976302.125 6   7773723.22821        17.000           0.813
  21942808.883   -11441373.002 7  -8915340.11922        21.250           2.000
  23060682.109    -4861360.600 6  -3788066.39521        17.000           0.875
  23821914.813    -3365769.151 5  -2535126.31221         9.250           0.344
  23411408.406    -6428074.160 5  -4868863.68421        11.750           0.344
 91  6  6 18  5 45.0000000  0  5G18G 2G11G16G 6
  22742289.063    10023167.281 6   7810241.42621        17.250           0.906
  21936847.922   -11472697.435 7  -8939748.73322        21.000           2.000
  23061174.898    -4858768.871 6  -3786046.86721        16.750           0.969
  23822740.375    -3361438.791 5  -2531752.04721         9.500           0.250
  23404938.492    -6462065.096 5  -4895350.09821        11.250           0.344
 91  6  6 18  6  0.0000000  0  5G18G 2G11G16G 6
  22751220.219    10070097.833 6   7846810.58621        17.750           0.813
  21930899.695   -11503947.377 7  -8964099.29722        20.500           2.031
  23061697.992    -4856023.978 6  -3783907.99221        17.500           0.781
  23823589.883    -3356980.440 5  -2528278.04921         9.250           0.344
  23398472.945    -6496043.968 5  -4921827.12621        11.500           0.469
 91  6  6 18  6 15.0000000  0  5G18G 2G11G16G 6
  22760162.570    10117092.089 6   7883429.39821        17.000           0.875
  21924967.367   -11535124.410 7  -8988393.05022        20.750           1.969
  23062250.594    -4853127.434 6  -3781650.94421        18.000           0.938
  23824458.914    -3352395.278 5  -2524705.22921         9.500           0.219
  23392011.664    -6530012.322 6  -4948295.95521        12.000           0.406
 91  6  6 18  6 30.0000000  0  5G18G 2G11G16G 6
  22769116.445    10164147.511 6   7920095.85521        17.250           0.844
  21919048.859   -11566230.505 7  -9012631.53222        21.500           2.031
  23062828.797    -4850081.469 6  -3779277.46721        17.750           0.938
  23825354.367    -3347685.694 5  -2521035.46321         9.250           0.250
  23385547.453    -6563972.385 5  -4974758.33021        11.500           0.469
 91  6  6 18  6 45.0000000  0  5G18G 2G11G16G 6
  22778081.070    10211263.076 6   7956809.18821        17.000           0.906
  21913141.563   -11597266.503 7  -9036815.38422        21.500           1.969
  23063437.102    -4846887.027 6  -3776788.29021        17.500           0.875
  23826275.117    -3342853.095 5  -2517269.81821         9.000           0.281
  23379087.641    -6597925.008 5  -5001214.90921        11.750           0.438
 91  6  6 18  7  0.0000000  0  5G18G 2G11G16G 6
  22787058.852    10258440.979 6   7993571.08521        16.750           0.875
  21907250.578   -11628229.627 7  -9060942.46422        22.000           2.000
  23064074.375    -4843541.352 6  -3774181.26321        18.000           0.938
  23827219.578    -3337894.829 5  -2513406.28521         8.500           0.281
  23372626.945    -6631867.562 6  -5027663.63821        12.000           0.594
 91  6  6 18  7 15.0000000  0  5G18G 2G11G16G 6
  22796048.234    10305683.347 6   8030383.22021        16.500           0.844
  21901372.391   -11659117.503 7  -9085010.90022        22.500           2.063
  23064739.703    -4840042.191 6  -3771454.64321        18.250           0.938
  23828188.594    -3332808.369 5  -2509442.84021         9.000           0.250
  23366171.250    -6665797.763 5  -5054102.74821        11.500           0.469
 91  6  6 18  7 30.0000000  0  5G18G 2G11G16G 6
  22805053.055    10352988.284 6   8067244.11121        16.500           0.969
  21895508.492   -11689931.944 7  -9109022.12122        22.750           2.063
  23065433.859    -4836391.340 6  -3768609.82321        17.750           0.969
  23829182.195    -3327596.126 5  -2505381.40121         9.000           0.313
  23359717.164    -6699717.398 6  -5080533.61821        12.000           0.563
 91  6  6 18  7 45.0000000  0  5G18G 2G11G16G 6
  22814066.906    10400353.505 6   8104151.97021        16.750           0.813
  21889658.727   -11720675.154 7  -9132977.83922        22.500           1.906
  23066157.719    -4832590.914 6  -3765648.45121        17.750           0.906
  23830196.328    -3322259.932 5  -2501223.36521         8.750           0.281
  23353263.992    -6733628.445 6  -5106957.79521        12.000           0.500
 91  6  6 18  8  0.0000000  0  5G18G 2G11G16G 6
  22823089.219    10447771.645 6   8141101.07621        16.750           0.813
  21883820.227   -11751353.764 7  -9156883.21422        23.000           2.094
  23066908.563    -4828647.547 6  -3762575.68921        17.500           0.938
  23831231.570    -3316806.685 5  -2496974.13221         8.500           0.313
  23346811.203    -6767537.717 6  -5133380.57821        12.000           0.500
 91  6  6 18  8 15.0000000  0  5G18G 2G11G16G 6
  22832126.766    10495260.234 6   8178105.07421        16.500           0.844
  21877998.211   -11781949.987 7  -9180724.39722        22.750           2.094
  23067689.211    -4824543.634 6  -3759377.83921        17.500           0.969
  23832295.250    -3311219.038 5  -2492620.13921         9.000           0.313
  23340361.133    -6801427.409 6  -5159788.12321        12.000           0.438
 91  6  6 18  8 30.0000000  0  5G18G 2G11G16G 6
  22841173.773    10542814.522 6   8215160.25821        16.250           0.844
  21872190.258   -11812468.282 7  -9204504.86022        22.500           2.031
  23068500.008    -4820283.832 6  -3756058.51221        17.500           0.906
  23833385.547    -3305501.663 5  -2488165.08121         8.750           0.188
  23333913.742    -6835302.195 6  -5186184.04921        12.000           0.469
 91  6  6 18  8 45.0000000  0  5G18G 2G11G16G 6
  22850233.906    10590427.663 6   8252261.29621        16.000           0.969
  21866396.477   -11842915.272 7  -9228229.75922        22.500           2.188
  23069338.359    -4815874.866 6  -3752622.95221        17.250           0.906
  23834495.625    -3299661.746 5  -2483614.55721         8.000           0.344
  23327469.836    -6869168.685 6  -5212573.50021        12.500           0.406
 91  6  6 18  9  0.0000000  0  5G18G 2G11G16G 6
  22859304.750    10638091.764 6   8289402.05921        15.750           0.906
  21860615.531   -11873298.335 7  -9251904.84522        23.000           2.125
  23070204.297    -4811324.117 6  -3749076.91521        17.250           0.906
  23835629.156    -3293706.460 5  -2478974.08521         8.750           0.281
  23321026.594    -6903034.305 6  -5238962.29121        12.250           0.469
 91  6  6 18  9 15.0000000  0  5G18G 2G11G16G 6
  22868385.336    10685810.185 6   8326585.13921        15.750           0.906
  21854846.656   -11903613.979 7  -9275527.39322        23.250           2.125
  23071098.172    -4806628.005 6  -3745417.59921        17.500           0.938
  23836781.391    -3287632.076 5  -2474240.85321         8.500           0.313
  23314581.203    -6936895.458 6  -5265347.58421        12.000           0.531
 91  6  6 18  9 30.0000000  0  5G18G 2G11G16G 6
  22877481.203    10733595.970 6   8363820.71321        15.750           0.938
  21849092.992   -11933849.058 7  -9299087.17122        23.250           2.250
  23072022.555    -4801773.477 6  -3741634.85021        17.000           0.906
  23837966.336    -3281425.999 5  -2469404.99221         8.750           0.344
  23308138.703    -6970739.014 6  -5291719.17421        12.500           0.500
 91  6  6 18  9 45.0000000  0  5G18G 2G11G16G 6
  22886586.133    10781445.500 6   8401105.96621        16.000           0.875
  21843353.578   -11964006.789 7  -9322586.67822        23.750           2.188
  23072974.609    -4796763.795 6  -3737731.19821        17.500           0.906
  23839170.172    -3275091.347 5  -2464468.94221         8.500           0.344
  23301703.797    -7004568.223 5  -5318079.59021        11.750           0.500
 91  6  6 18 10  0.0000000  0  5G18G 2G11G16G 6
  22895703.820    10829359.392 6   8438441.34821        15.750           0.781
  21837630.156   -11994086.056 7  -9346025.04222        23.750           2.313
  23073958.953    -4791598.097 6  -3733705.97721        17.750           0.875
  23840401.617    -3268627.722 5  -2459432.39721         8.250           0.313
  23295268.039    -7038382.088 5  -5344428.04121        11.750           0.563
 91  6  6 18 10 15.0000000  0  5G18G 2G11G16G 6
  22904833.414    10877334.128 6   8475824.16121        16.250           0.844
  21831920.695   -12024090.161 7  -9369404.84522        23.500           2.281
  23074970.695    -4786279.817 6  -3729561.85321        17.750           0.969
  23841654.961    -3262038.562 5  -2454298.02921         8.000           0.281
  23288838.500    -7072184.030 6  -5370767.19821        12.250           0.531
 91  6  6 18 10 30.0000000  0  5G18G 2G11G16G 6
  22913973.703    10925369.360 6   8513254.09921        15.750           0.844
  21826225.438   -12054019.265 7  -9392726.20022        23.750           2.219
  23076012.563    -4780809.044 6  -3725298.91821        17.500           0.969
  23842930.625    -3255323.851 5  -2449065.83021         8.000           0.281
  23282406.438    -7105973.997 6  -5397097.03021        12.000           0.438
 91  6  6 18 10 45.0000000  0  5G18G 2G11G16G 6
  22923126.531    10973465.259 6   8550731.31221        15.750           0.813
  21820544.172   -12083872.871 7  -9415988.73122        23.250           2.281
  23077080.656    -4775185.196 6  -3720916.69321        17.250           0.844
  23844231.883    -3248483.416 5  -2443735.65921         8.000           0.406
  23275978.445    -7139751.547 6  -5423417.17521        12.000           0.469
 91  6  6 18 11  0.0000000  0  5G18G 2G11G16G 6
  22932288.250    11021624.320 6   8588257.75921        15.250           0.844
  21814878.195   -12113648.252 7  -9439190.30522        23.000           2.219
  23078180.930    -4769405.696 6  -3716413.19021        17.500           0.875
  23845559.789    -3241514.933 5  -2438305.72621         8.250           0.281
  23269553.680    -7173513.960 6  -5449725.52821        12.000           0.406
 91  6  6 18 11 15.0000000  0  5G18G 2G11G16G 6
  22941465.617    11069843.194 6   8625830.79421        15.500           0.781
  21809225.750   -12143348.281 7  -9462333.16522        23.000           2.188
  23079309.844    -4763473.724 6  -3711790.86821        17.750           0.844
  23846909.922    -3234421.578 5  -2432778.46721         8.500           0.250
  23263135.555    -7207264.356 6  -5476024.51821        12.000           0.563
 91  6  6 18 11 30.0000000  0  5G18G 2G11G16G 6
  22950653.406    11118125.554 6   8663453.31421        15.250           0.750
  21803589.570   -12172968.951 7  -9485414.18522        23.000           2.313
  23080469.328    -4757385.138 6  -3707046.50821        17.750           0.906
  23848283.805    -3227199.474 5  -2427150.89321         8.500           0.406
  23256713.211    -7240998.546 6  -5502310.87621        12.000           0.531
 91  6  6 18 11 45.0000000  0  5G18G 2G11G16G 6
  22959853.930    11166468.725 6   8701123.21521        15.500           0.781
  21797966.773   -12202513.014 7  -9508435.51522        22.750           2.281
  23081658.906    -4751142.577 6  -3702182.17521        18.000           0.813
  23849683.711    -3219851.087 5  -2421424.92221         9.000           0.250
  23250296.211    -7274719.261 5  -5528586.75221        11.750           0.469
 91  6  6 18 12  0.0000000  0  5G18G 2G11G16G 6
  22969066.406    11214876.977 6   8738843.82521        15.750           0.813
  21792360.453   -12231975.594 7  -9531393.34922        22.750           2.250
  23082876.563    -4744741.667 6  -3697194.45321        18.250           0.844
  23851108.281    -3212372.145 5  -2415597.24521         8.750           0.219
  23243884.492    -7308421.663 6  -5554848.34221        12.000           0.438
 91  6  6 18 12 15.0000000  0  5G18G 2G11G16G 6
  22978288.320    11263346.131 6   8776611.89021        15.250           0.781
  21786768.359   -12261360.493 7  -9554290.65223        22.750           2.500
  23084122.219    -4738186.094 6  -3692086.20921        18.250           1.000
  23852556.125    -3204766.859 5  -2409671.08021         8.500           0.281
  23237476.641    -7342109.835 6  -5581098.85121        12.000           0.438
 91  6  6 18 12 30.0000000  0  5G18G 2G11G16G 6
  22987524.148    11311876.816 6   8814427.89821        15.250           0.719
  21781192.359   -12290666.817 7  -9577126.72722        23.000           2.281
  23085399.625    -4731475.152 6  -3686856.89621        18.500           0.938
  23854025.453    -3197034.259 5  -2403645.72121         8.250           0.219
  23231066.789    -7375782.753 5  -5607337.47021        11.750           0.438
 91  6  6 18 12 45.0000000  0  5G18G 2G11G16G 6
  22996769.555    11360472.421 6   8852294.50821        14.500           0.781
  21775631.305   -12319890.906 7  -9599898.72522        22.500           2.313
  23086706.766    -4724605.174 6  -3681503.66121        18.750           0.906
  23855521.461    -3189170.841 5  -2397518.42421         8.250           0.375
  23224662.398    -7409436.723 6  -5633561.32221        12.500           0.469
 91  6  6 18 13  0.0000000  0  5G18G 2G11G16G 6
  23006031.453    11409131.815 6   8890210.80021        15.000           0.844
  21770085.078   -12349033.780 7  -9622607.43822        22.500           2.375
  23088043.578    -4717577.144 6  -3676027.26821        18.250           0.938
  23857042.125    -3181177.900 5  -2391290.19721         8.250           0.281
  23218261.578    -7443072.718 6  -5659771.17021        12.250           0.500
 91  6  6 18 13 15.0000000  0  5G18G 2G11G16G 6
  23015301.961    11457852.853 6   8928175.15021        14.500           0.781
  21764555.242   -12378097.236 7  -9645254.27022        22.750           2.313
  23089411.250    -4710393.039 6  -3670429.27121        18.000           0.844
  23858588.148    -3173057.583 5  -2384962.71221         8.500           0.281
  23211862.555    -7476692.557 6  -5685968.42921        12.000           0.469
 91  6  6 18 13 30.0000000  0  5G18G 2G11G16G 6
  23024586.563    11506639.073 6   8966190.27421        15.000           0.750
  21759040.398   -12407077.558 7  -9667836.32222        22.500           2.375
  23090809.656    -4703049.183 6  -3664706.78021        18.250           0.969
  23860158.836    -3164806.363 5  -2378533.23121         8.250           0.375
  23205468.414    -7510292.618 6  -5712150.26521        12.000           0.500
 91  6  6 18 13 45.0000000  0  5G18G 2G11G16G 6
  23033881.602    11555488.906 6   9004254.97621        15.000           0.750
  21753540.945   -12435975.572 7  -9690354.23522        22.500           2.375
  23092237.063    -4695546.795 6  -3658860.76721        18.250           0.938
  23861750.016    -3156425.158 5  -2372002.47021         8.000           0.313
  23199076.375    -7543873.770 5  -5738317.38121        11.750           0.531
 91  6  6 18 14  0.0000000  0  5G18G 2G11G16G 6
  23043191.547    11604407.138 6   9042372.97221        15.250           0.750
  21748058.086   -12464786.392 7  -9712804.20822        22.750           2.313
  23093695.969    -4687880.895 6  -3652887.33021        18.250           0.813
  23863371.922    -3147909.305 5  -2365366.78521         7.750           0.281
  23192688.141    -7577431.141 5  -5764465.96221        11.500           0.594
 91  6  6 18 14 15.0000000  0  5G18G 2G11G16G 6
  23052512.336    11653390.532 6   9080541.73121        14.750           0.719
  21742592.117   -12493513.053 7  -9735188.60122        23.000           2.406
  23095183.453    -4680054.471 6  -3646788.81921        18.000           0.938
  23865015.594    -3139262.187 5  -2358628.81321         7.500           0.344
  23186308.992    -7610967.748 5  -5790598.36921        11.500           0.469
 91  6  6 18 14 30.0000000  0  5G18G 2G11G16G 6
  23061848.141    11702443.111 6   9118764.40721        15.250           0.656
  21737142.547   -12522151.131 7  -9757503.96522        22.750           2.313
  23096707.039    -4672063.273 6  -3640561.91321        18.000           0.813
  23866690.641    -3130479.507 5  -2351785.20421         8.500           0.344
  23179931.711    -7644479.105 5  -5816711.08921        11.500           0.594
 91  6  6 18 14 45.0000000  0  5G18G 2G11G16G 6
  23071195.352    11751565.372 6   9157041.38621        15.250           0.750
  21731709.258   -12550699.842 7  -9779749.69522        22.500           2.406
  23098258.305    -4663906.609 6  -3634206.07621        18.250           0.969
  23868389.484    -3121560.682 5  -2344835.53321         8.500           0.281
  23173557.727    -7677964.543 5  -5842803.61721        11.250           0.563
 91  6  6 18 15  0.0000000  0  5G18G 2G11G16G 6
  23080556.742    11800757.421 6   9195372.73721        15.250           0.750
  21726293.906   -12579158.861 7  -9801925.52822        22.500           2.281
  23099840.563    -4655584.324 6  -3627721.17921        18.000           0.969
  23870112.414    -3112505.805 5  -2337779.82321         8.500           0.281
  23167188.352    -7711423.694 5  -5868875.67721        11.250           0.719
 91  6  6 18 15 15.0000000  0  5G18G 2G11G16G 6
  23089930.570    11850020.125 6   9233759.14121        14.500           0.750
  21720895.531   -12607527.219 7  -9824030.72122        22.500           2.344
  23101456.734    -4647095.507 6  -3621106.51421        18.000           1.000
  23871856.656    -3103313.969 5  -2330617.39521         8.000           0.281
  23160832.289    -7744855.576 6  -5894926.46321        12.000           0.563
 91  6  6 18 15 30.0000000  0  5G18G 2G11G16G 6
  23099318.430    11899357.222 6   9272203.52321        14.500           0.813
  21715514.539   -12635800.690 7  -9846061.96922        22.500           2.344
  23103105.297    -4638436.005 6  -3614358.85421        18.000           0.969
  23873635.945    -3093981.164 5  -2323345.11321         8.250           0.344
  23154478.008    -7778255.967 5  -5920952.72021        11.750           0.594
 91  6  6 18 15 45.0000000  0  5G18G 2G11G16G 6
  23108720.938    11948768.631 6   9310705.81621        14.250           0.625
  21710153.617   -12663979.055 7  -9868019.11022        22.750           2.344
  23104785.719    -4629605.663 6  -3607478.06421        18.250           1.000
  23875437.953    -3084507.183 5  -2315962.84621         8.750           0.281
  23148126.539    -7811624.577 5  -5946954.23421        11.750           0.656
 91  6  6 18 16  0.0000000  0  5G18G 2G11G16G 6
  23118138.320    11998256.223 6   9349267.45021        14.250           0.688
  21704810.813   -12692060.043 7  -9889900.37222        23.000           2.188
  23106497.969    -4620602.380 6  -3600462.52721        17.750           1.000
  23877270.227    -3074890.023 5  -2308469.00121         8.250           0.375
  23141786.609    -7844959.207 6  -5972929.24021        12.250           0.625
 91  6  6 18 16 15.0000000  0  5G18G 2G11G16G 6
  23127572.836    12047827.914 6   9387894.63421        14.250           0.719
  21699486.219   -12720035.470 7  -9911699.38322        23.000           2.250
  23108245.953    -4611418.195 6  -3593306.02521        18.000           1.031
  23879130.063    -3065121.777 5  -2300857.43321         8.500           0.281
  23135451.664    -7878251.857 6  -5998871.55421        12.000           0.563
 91  6  6 18 16 30.0000000  0  5G18G 2G11G16G 6
  23137020.078    12097477.874 6   9426582.79221        14.750           0.688
  21694181.328   -12747911.008 7  -9933420.55922        22.500           2.344
  23110027.258    -4602058.490 6  -3586012.75121        18.250           0.844
  23881013.164    -3055208.475 5  -2293132.83821         8.000           0.344
  23129123.398    -7911508.017 6  -6024785.43421        12.500           0.563
 91  6  6 18 16 45.0000000  0  5G18G 2G11G16G 6
  23146483.156    12147207.716 6   9465333.21221        14.250           0.625
  21688896.367   -12775684.581 7  -9955062.27822        23.000           2.281
  23111841.445    -4592521.531 6  -3578581.35621        17.750           0.938
  23882927.180    -3045148.317 5  -2285293.81521         7.750           0.281
  23122799.031    -7944725.673 6  -6050669.30921        12.250           0.594
 91  6  6 18 17  0.0000000  0  5G18G 2G11G16G 6
  23155963.648    12197021.290 6   9504148.86421        14.500           0.594
  21683632.078   -12803352.120 7  -9976621.37422        23.000           2.250
  23113689.875    -4582803.424 6  -3571008.80621        17.500           0.875
  23884872.695    -3034937.089 5  -2277337.04621         8.000           0.344
  23116486.742    -7977900.714 6  -6076519.95921        12.250           0.531
 91  6  6 18 17 15.0000000  0  5G18G 2G11G16G 6
  23165458.508    12246925.405 6   9543035.08421        13.750           0.688
  21678388.703   -12830906.702 7  -9998092.45222        22.750           2.281
  23115574.461    -4572897.226 6  -3563289.69621        17.500           1.031
  23886848.758    -3024568.320 5  -2269257.53421         8.750           0.344
  23110181.070    -8011026.201 6  -6102332.01521        12.500           0.469
 91  6  6 18 17 30.0000000  0  5G18G 2G11G16G 6
  23174971.813    12296917.060 6   9581989.48621        13.750           0.656
  21673164.414   -12858350.966 7 -10019477.56422        22.500           2.281
  23117496.336    -4562805.729 6  -3555426.18621        17.500           0.906
  23888850.461    -3014044.913 5  -2261057.51821         8.750           0.188
  23103888.727    -8044104.730 6  -6128107.47521        12.750           0.500
 91  6  6 18 17 45.0000000  0  5G18G 2G11G16G 6
  23184501.930    12346998.348 6   9621013.75721        13.500           0.625
  21667963.953   -12885682.421 7 -10040774.77722        22.750           2.156
  23119452.289    -4552526.574 6  -3547416.45721        17.750           0.938
  23890880.320    -3003364.533 5  -2252735.19621         8.750           0.375
  23097600.328    -8077133.880 6  -6153844.45421        12.750           0.500
 91  6  6 18 18  0.0000000  0  5G18G 2G11G16G 6
  23194049.609    12397175.813 6   9660112.96221        13.500           0.656
  21662786.156   -12912894.185 7 -10061978.72222        23.000           2.219
  23121445.422    -4542052.888 6  -3539255.13721        17.750           0.844
  23892940.094    -2992520.445 5  -2244285.29421         8.750           0.313
  23091325.844    -8110106.741 6  -6179537.57721        13.000           0.531
 91  6  6 18 18 15.0000000  0  5G18G 2G11G16G 6
  23203614.977    12447447.237 6   9699285.39121        13.250           0.531
  21657630.156   -12939988.097 7 -10083090.83722        23.000           2.250
  23123475.344    -4531386.794 6  -3530943.89921        17.500           0.875
  23895038.672    -2981514.926 5  -2235709.61821         8.750           0.344
  23085062.453    -8143025.165 6  -6205188.27821        13.000           0.594
 91  6  6 18 18 30.0000000  0  5G18G 2G11G16G 6
  23213203.609    12497818.171 6   9738535.34521        13.750           0.594
  21652497.828   -12966958.656 7 -10104106.82822        23.250           2.125
  23125539.898    -4520522.731 6  -3522478.39521        16.500           0.969
  23897167.102    -2970342.583 5  -2227003.92721         8.500           0.344
  23078813.898    -8175883.615 6  -6230792.25421        13.500           0.625
 91  6  6 18 18 45.0000000  0  5G18G 2G11G16G 6
  23222808.016    12548291.885 6   9777865.40321        13.500           0.656
  21647389.547   -12993802.174 7 -10125023.83022        23.500           2.156
  23127647.813    -4509457.138 6  -3513855.86221        17.500           0.938
  23899323.547    -2958999.703 5  -2218165.39321         8.250           0.156
  23072572.766    -8208678.332 6  -6256346.55521        13.500           0.594
 91  6  6 18 19  0.0000000  0  5G18G 2G11G16G 6
  23232433.727    12598873.397 6   9817279.43821        13.750           0.594
  21642306.133   -13020513.107 7 -10145837.51422        24.000           2.156
  23129793.195    -4498184.694 6  -3505072.15021        17.250           0.938
  23901514.164    -2947481.289 5  -2209190.03021         8.250           0.313
  23066343.953    -8241403.936 6  -6281847.01221        13.500           0.656
 91  6  6 18 19 15.0000000  0  5G18G 2G11G16G 6
  23242081.047    12649562.953 6   9856777.67521        14.250           0.625
  21637248.344   -13047091.023 7 -10166547.55622        24.000           2.188
  23131974.586    -4486705.000 6  -3496126.93521        17.250           0.969
  23903740.578    -2935787.125 5  -2200077.77721         8.000           0.344
  23060129.203    -8274059.869 6  -6307293.17121        13.500           0.563
 91  6  6 18 19 30.0000000  0  5G18G 2G11G16G 6
  23251747.195    12700357.697 6   9896357.87421        14.000           0.594
  21632215.063   -13073538.694 7 -10187156.10822        24.000           2.188
  23134199.328    -4475020.995 6  -3487022.51521        17.500           0.906
  23905998.203    -2923920.356 5  -2190831.00321         8.000           0.313
  23053928.023    -8306648.888 6  -6332687.19121        13.500           0.531
 91  6  6 18 19 45.0000000  0  5G18G 2G11G16G 6
  23261433.078    12751262.441 6   9936023.79321        13.250           0.563
  21627209.109   -13099850.809 7 -10207659.03322        24.250           2.250
  23136464.219    -4463127.442 6  -3477754.82121        17.500           1.031
  23908289.492    -2911875.612 5  -2181445.51521         8.500           0.250
  23047737.977    -8339165.798 6  -6358025.02421        13.000           0.719
 91  6  6 18 20  0.0000000  0  5G18G 2G11G16G 6
  23271138.617    12802280.763 6   9975778.19821        12.750           0.500
  21622227.352   -13126023.452 7 -10228053.27922        24.500           2.313
  23138768.047    -4451020.655 6  -3468320.96021        17.500           1.000
  23910616.164    -2899649.171 5  -2171918.46921         8.750           0.406
  23041563.539    -8371606.622 6  -6383303.57021        13.250           0.563
 91  6  6 18 20 15.0000000  0  5G18G 2G11G16G 6
  23280871.383    12853416.453 6  10015624.07221        12.250           0.688
  21617275.148   -13152052.691 7 -10248335.77922        24.250           2.125
  23141113.617    -4438696.658 6                        17.750
  23912979.664    -2887237.248 5                         9.000
  23035407.969    -8403967.357 6  -6408519.70021        13.750           0.594
 91  6  6 18 20 30.0000000  0  5G18G 2G11G16G 6
  23290625.563    12904669.580 6  10055561.44521        13.000           0.625
  21612349.570   -13177938.177 7 -10268506.26722        24.500           2.219
  23143499.242    -4426155.185 6                        17.500
  23915375.234    -2874640.014 5                         8.500
  23029266.117    -8436247.622 6  -6433673.14121        13.500           0.656
 91  6  6 18 20 45.0000000  0  5G18G 2G11G16G 6
  23300400.859    12956047.574 6  10095596.12521        12.000           0.563
  21607452.945   -13203672.137 7 -10288558.68122        24.500           2.250
  23145931.719    -4413388.621 6                        17.250
  23917808.523    -2861849.910 5                         8.250
  23023138.391    -8468439.524 6  -6458757.70821        14.250           0.625
 91  6  6 18 21  0.0000000  0  5G18G 2G11G16G 6
  23310203.148    13007546.757 6  10135725.23821        12.500           0.656
  21602583.742   -13229258.143 7 -10308495.80522        24.500           2.313
  23148401.258    -4400400.576 6                        17.750
  23920276.922    -2848870.510 5                         8.000
  23017029.469    -8500546.703 6  -6483776.26821        14.000           0.688
 91  6  6 18 21 15.0000000  0  5G18G 2G11G16G 6
  23320026.477    13059175.170 6  10175955.03121        12.500           0.531
  21597743.680   -13254687.579 7 -10328310.93022        24.750           2.219
  23150914.828    -4387182.772 6                        17.500
  23922786.727    -2835693.568 5                         8.500
  23010938.039    -8532560.576 6  -6508722.13121        13.750           0.656
 91  6  6 18 21 30.0000000  0  5G18G 2G11G16G 6
  23329877.414    13110930.101 6  10216283.42921        13.250           0.500
  21592934.625   -13279962.828 7 -10348005.91122        24.500           2.313
  23153472.469    -4373737.758 6                        17.750
  23925331.148    -2822321.849 5                         9.000
  23004860.719    -8564483.596 6  -6533597.19721        13.500           0.688
 91  6  6 18 21 45.0000000  0  5G18G 2G11G16G 6
  23339749.094    13162810.684 6  10256709.73621        13.000           0.531
  21588154.336   -13305084.791 7 -10367581.44722        24.500           2.313
  23156075.688    -4360066.359 6  -3397447.52121        17.250           1.000
  23927910.328    -2808756.288 5                         8.750
  22998803.570    -8596316.406 6  -6558401.95821        13.750           0.719
 91  6  6 18 22  0.0000000  0  5G18G 2G11G16G 6
  23349647.141    13214821.868 6  10297237.79621        12.750           0.531
  21583404.383   -13330048.084 7 -10387033.34522        24.500           2.281
  23158721.914    -4346163.412 6  -3386614.06821        17.500           0.938
  23930531.367    -2794992.055 5                         8.750
  22992766.469    -8628053.849 6  -6583132.42021        13.750           0.719
 91  6  6 18 22 15.0000000  0  5G18G 2G11G16G 6
  23359569.953    13266965.813 6  10337869.29721        12.750           0.563
  21578684.914   -13354849.980 7 -10406359.47722        24.250           2.344
  23161411.766    -4332026.445 6  -3375598.25921        17.250           1.031
  23933187.633    -2781026.357 5        -0.09631         8.750           0.250
  22986743.914    -8659693.186 6  -6607786.43821        14.500           0.656
 91  6  6 18 22 30.0000000  0  5G18G 2G11G16G 6
  23369516.211    13319244.227 6  10378605.60121        12.500           0.563
  21573995.461   -13379488.926 7 -10425558.63922        24.000           2.375
  23164147.367    -4317653.949 6  -3364398.92121        17.250           0.906
  23935884.242    -2766857.942 5     11040.17121         9.000           0.188
  22980743.031    -8691232.777 6  -6632362.72821        14.250           0.719
 91  6  6 18 22 45.0000000  0  5G18G 2G11G16G 6
  23379489.281    13371653.258 6  10419443.67521        13.000           0.563
  21569336.969   -13403968.284 7 -10444633.44922        23.250           2.375
  23166925.719    -4303049.410 6  -3353018.77321        18.000           0.969
  23938623.711    -2752490.532 5     22235.49421         9.000           0.344
  22974758.117    -8722675.931 6  -6656863.86721        14.500           0.656
 91  6  6 18 23  0.0000000  0  5G18G 2G11G16G 6
  23389488.102    13424199.036 6  10460388.31821        12.500           0.500
  21564711.008   -13428281.576 7 -10463578.85022        23.750           2.406
  23169751.281    -4288206.318 6  -3341452.73521        18.000           0.844
  23941395.453    -2737917.730 5     33590.89421         9.750           0.344
  22968795.844    -8754016.013 6  -6681284.69921        14.000           0.656
 91  6  6 18 23 15.0000000  0  5G18G 2G11G16G 6
  23399514.281    13476881.915 6  10501439.78321        13.000           0.531
  21560116.500   -13452428.486 7 -10482394.60722        24.000           2.375
  23172620.719    -4273124.471 6  -3329700.65621        17.750           0.875
  23944207.742    -2723139.339 5     45106.44721         9.750           0.281
  22962848.125    -8785252.751 6  -6705624.99921        14.000           0.688
 91  6  6 18 23 30.0000000  0  5G18G 2G11G16G 6
  23409562.148    13529692.977 6  10542591.12521        12.750           0.500
  21555550.875   -13476417.206 7 -10501087.10722        24.000           2.344
  23175534.328    -4257812.471 6  -3317769.23621        17.750           0.844
  23947057.797    -2708164.249 5     56775.29721         9.500           0.313
  22956923.891    -8816394.514 6  -6729891.29521        14.250           0.688
 91  6  6 18 23 45.0000000  0  5G18G 2G11G16G 6
  23419640.609    13582640.804 6  10583849.04021        13.000           0.500
  21551016.734   -13500239.141 7 -10519649.63822        23.750           2.438
  23178494.242    -4242261.665 6  -3305651.72821        17.750           0.906
  23949944.250    -2692983.669 5     68604.24121         9.000           0.313
  22951020.984    -8847432.490 6  -6754076.71921        14.500           0.688
 91  6  6 18 24  0.0000000  0  5G18G 2G11G16G 6
  23429742.047    13635723.347 6  10625211.93721        13.000           0.563
  21546515.883   -13523896.145 7 -10538083.65122        23.750           2.344
  23181497.867    -4226473.921 6  -3293349.60821        17.750           0.875
  23952872.492    -2677599.499 5     80591.86221         9.000           0.313
  22945132.273    -8878368.418 6  -6778182.62221        14.500           0.750
 91  6  6 18 24 15.0000000  0  5G18G 2G11G16G 6
  23439871.898    13688941.628 6  10666680.59421        13.250           0.563
  21542045.984   -13547386.498 7 -10556387.80322        23.750           2.438
  23184548.805    -4210447.934 6  -3280861.82921        17.750           0.938
  23955837.766    -2662010.615 5     92738.98121         8.750           0.281
  22939263.883    -8909200.642 6  -6802207.71121        14.250           0.719
 91  6  6 18 24 30.0000000  0  5G18G 2G11G16G 6
  23450022.781    13742292.358 6  10708252.45521        13.250           0.531
  21537606.242   -13570713.360 7 -10574564.56123        23.500           2.563
  23187641.438    -4194186.913 6  -3268190.91121        17.750           0.906
  23958841.164    -2646220.351 5    105043.04221         9.250           0.281
  22933416.008    -8939932.415 6  -6826154.53921        14.250           0.719
 91  6  6 18 24 45.0000000  0  5G18G 2G11G16G 6
  23460200.844    13795775.201 6  10749927.27721        13.250           0.531
  21533198.563   -13593876.792 7 -10592613.97322        23.250           2.375
  23190779.578    -4177691.091 6  -3255337.03521        17.500           0.875
  23961889.938    -2630229.191 5    117503.62421         9.250           0.188
  22927588.945    -8970563.681 6  -6850023.03921        14.250           0.625
 91  6  6 18 25  0.0000000  0  5G18G 2G11G16G 6
  23470401.633    13849386.333 6  10791702.05621        12.750           0.406
  21528821.070   -13616880.413 7 -10610538.85423        24.000           2.500
  23193964.602    -4160964.289 6  -3242303.17021        17.500           0.938
  23964965.984    -2614040.761 5    130117.92721         9.250           0.188
  22921776.297    -9001098.088 6  -6873816.06721        13.750           0.719
 91  6  6 18 25 15.0000000  0  5G18G 2G11G16G 6
  23480626.000    13903119.909 6  10833572.24421        12.250           0.500
  21524473.156   -13639729.561 7 -10628343.36723        24.000           2.531
  23197191.000    -4144011.953 6  -3229093.57321        17.500           0.844
  23968085.070    -2597660.701 5    142881.55921         9.500           0.375
  22915983.938    -9031540.906 6  -6897537.72521        13.750           0.750
 91  6  6 18 25 30.0000000  0  5G18G 2G11G16G 6
  23490875.523    13956976.516 6  10875538.29321        12.000           0.563
  21520154.875   -13662423.745 7 -10646027.12823        24.000           2.500
  23200458.945    -4126833.626 6  -3215707.88021        17.000           0.813
  23971236.586    -2581088.757 5    155794.70521         9.500           0.344
  22910210.023    -9061891.576 6  -6921187.58321        14.250           0.750
 91  6  6 18 25 45.0000000  0  5G18G 2G11G16G 6
  23501147.703    14010955.233 5  10917599.49421        11.750           0.625
  21515867.258   -13684963.485 7 -10663590.54723        24.000           2.531
  23203770.875    -4109429.932 6  -3202146.56421        17.250           0.906
  23974427.492    -2564325.741 5    168856.73121         9.750           0.188
  22904450.703    -9092150.498 6  -6944765.94521        14.000           0.688
 91  6  6 18 26  0.0000000  0  5G18G 2G11G16G 6
  23511439.344    14065053.782 5  10959754.08121        11.250           0.500
  21511605.859   -13707350.625 7 -10681035.05323        23.750           2.594
  23207123.266    -4091802.920 6  -3188411.24121        17.250           0.844
  23977653.055    -2547373.796 5    182065.98321         9.500           0.281
  22898710.008    -9122319.623 6  -6968274.33421        14.500           0.625
 91  6  6 18 26 15.0000000  0  5G18G 2G11G16G 6
  23521757.227    14119268.199 5  11001998.95221        11.250           0.469
  21507373.492   -13729588.858 7 -10698363.52823        23.500           2.688
  23210521.422    -4073956.386 6  -3174504.86121        17.000           0.906
  23980911.375    -2530236.783 5    195419.42721         9.500           0.281
  22892983.477    -9152402.454 6  -6991715.48021        14.000           0.656
 91  6  6 18 26 30.0000000  0  5G18G 2G11G16G 6
  23532095.438    14173590.508 5  11044327.88521        11.250           0.500
  21503168.641   -13751685.782 7 -10715581.89523        23.500           2.688
  23213957.906    -4055898.250 6  -3160433.59621        17.250           0.781
  23984210.047    -2512922.693 5    208910.86021         9.250           0.219
  22887275.648    -9182406.844 6  -7015095.50921        14.750           0.719
 91  6  6 18 26 45.0000000  0  5G18G 2G11G16G 6
  23542451.945    14228018.683 5  11086739.31721        11.250           0.500
  21498990.883   -13773643.326 7 -10732691.65423        23.250           2.656
  23217432.703    -4037630.514 6  -3146199.01621        17.250           0.875
  23987536.508    -2495433.571 5    222538.69221         9.250           0.281
  22881582.453    -9212334.501 6  -7038415.73721        15.000           0.594
 91  6  6 18 27  0.0000000  0  5G18G 2G11G16G 6
  23552832.477    14282552.555 5  11129233.11721        11.250           0.469
  21494839.383   -13795461.464 7 -10749692.78623        23.000           2.656
  23220949.648    -4019153.194 6  -3131801.11721        17.000           0.844
  23990899.852    -2477769.559 5    236302.79121         9.500           0.250
  22875900.664    -9242185.265 6  -7061676.04721        14.750           0.688
 91  6  6 18 27 15.0000000  0  5G18G 2G11G16G 6
  23563227.898    14337184.381 5  11171803.21021        11.000           0.563
  21490711.695   -13817147.736 7 -10766591.15823        23.000           2.688
  23224502.406    -4000474.021 6  -3117245.93721        17.000           0.844
  23994291.297    -2459938.296 5    250197.22721         9.500           0.219
  22870231.984    -9271966.619 6  -7084882.28021        14.500           0.656
 91  6  6 18 27 30.0000000  0  5G18G 2G11G16G 6
  23573641.586    14391916.133 5  11214451.19621        11.250           0.531
  21486610.711   -13838699.678 7 -10783384.86423        23.000           2.688
  23228099.563    -3981590.724 6  -3102531.68521        17.250           0.844
  23997719.445    -2441938.064 5    264223.32321         9.750           0.281
  22864578.805    -9301676.132 6  -7108032.53021        14.500           0.656
 91  6  6 18 27 45.0000000  0  5G18G 2G11G16G 6
  23584075.391    14446740.998 5  11257171.71921        11.500           0.375
  21482533.430   -13860123.895 7 -10800079.04523        22.500           2.594
  23231729.609    -3962509.994 6  -3087663.59221        17.500           0.875
  24001173.648    -2423775.365 5    278376.01021         9.750           0.313
  22858937.602    -9331320.346 6  -7131131.88721        15.000           0.688
 91  6  6 18 28  0.0000000  0  5G18G 2G11G16G 6
  23594523.711    14501650.985 5  11299958.58421        11.500           0.438
  21478479.875   -13881428.004 7 -10816679.63123        23.250           2.750
  23235395.797    -3943239.609 6  -3072647.71921        17.500           0.813
  24004658.828    -2405458.153 5    292649.10921         9.750           0.281
  22853308.664    -9360906.829 6  -7154186.26921        15.000           0.688
 91  6  6 18 28 15.0000000  0  5G18G 2G11G16G 6
  23604984.773    14556640.322 5  11342807.28221        11.250           0.438
  21474448.211   -13902617.298 7 -10833190.74623        23.500           2.656
  23239098.031    -3923785.150 6  -3057488.40921        17.250           0.875
  24008174.680    -2386992.168 5    307038.13021         9.750           0.313
  22847686.633    -9390441.055 6  -7177199.93121        14.750           0.594
 91  6  6 18 28 30.0000000  0  5G18G 2G11G16G 6
  23615467.867    14611709.190 5  11385717.95021        11.250           0.500
  21470437.148   -13923691.671 7 -10849612.31723        23.500           2.750
  23242835.234    -3904146.544 6  -3042185.60721        17.250           0.844
  24011713.000    -2368377.457 5    321543.00021         9.500           0.313
  22842078.805    -9419922.718 6  -7200172.63321        15.500           0.688
 91  6  6 18 28 45.0000000  0  5G18G 2G11G16G 6
  23625958.828    14666852.543 5  11428686.65121        11.000           0.406
  21466448.266   -13944655.702 7 -10865947.90923        23.500           2.656
  23246606.875    -3884328.619 6  -3026743.08421        17.250           0.938
  24015286.844    -2349618.909 5    336159.98721         9.500           0.344
  22836477.203    -9449356.446 6  -7223107.99021        15.000           0.656
 91  6  6 18 29  0.0000000  0  5G18G 2G11G16G 6
  23636468.352    14722069.155 5  11471712.43921        11.250           0.406
  21462478.344   -13965510.320 7 -10882198.24223        23.500           2.563
  23250410.172    -3864332.476 6  -3011161.68821        17.000           0.781
  24018882.492    -2330717.593 5    350888.23121         9.000           0.250
  22830882.578    -9478743.072 6  -7246006.64521        15.000           0.625
 91  6  6 18 29 15.0000000  0  5G18G 2G11G16G 6
  23646987.695    14777348.598 5  11514787.20821        11.250           0.375
  21458528.836   -13986265.630 7 -10898371.18923        23.250           2.656
  23254246.688    -3844168.352 6  -2995449.39721        17.250           0.938
  24022503.219    -2311683.867 5    365719.63621         9.000           0.281
  22825299.141    -9508092.594 6  -7268876.38021        15.000           0.656
 91  6  6 18 29 30.0000000  0  5G18G 2G11G16G 6
  23657517.953    14832693.922 5  11557913.29021        11.500           0.438
  21454598.703   -14006918.543 7 -10914464.34423        23.250           2.531
  23258118.203    -3823833.261 6  -2979603.88221        16.750           0.750
  24026152.008    -2292514.772 5    380656.51221         9.250           0.313
  22819722.914    -9537401.930 6  -7291714.80921        15.250           0.594
 91  6  6 18 29 45.0000000  0  5G18G 2G11G16G 6
  23668062.789    14888100.312 5  11601086.93921        11.750           0.375
  21450688.188   -14027473.552 7 -10930481.21322        23.500           2.469
  23262020.047    -3803331.879 6  -2963628.79821        16.750           0.813
  24029826.523    -2273215.215 5    395695.04821         9.250           0.281
  22814148.703    -9566675.459 6  -7314525.34021        15.000           0.625
 91  6  6 18 30  0.0000000  0  5G18G 2G11G16G 6
  23678618.672    14943565.145 5  11644306.16321        11.750           0.406
  21446793.703   -14047933.039 7 -10946423.65323        23.750           2.531
  23265952.133    -3782666.605 6  -2947526.00321        16.750           0.719
  24033524.586    -2253787.669 5    410833.34421         9.250           0.188
  22808585.438    -9595915.473 6  -7337309.74621        14.750           0.656
 91  6  6 18 30 15.0000000  0  5G18G 2G11G16G 6
  23689185.727    14999083.853 5  11687567.35621        11.500           0.406
  21442918.844   -14068301.007 7 -10962294.77723        24.000           2.594
  23269915.852    -3761841.804 6  -2931298.89821        16.500           0.875
  24037243.195    -2234236.387 5    426068.06121         9.250           0.281
  22803029.453    -9625125.904 6  -7360071.11021        15.000           0.594
 91  6  6 18 30 30.0000000  0  5G18G 2G11G16G 6
  23699759.477    15054652.720 5  11730867.60821        11.500           0.438
  21439059.586   -14088581.147 7 -10978097.46123        24.250           2.563
  23273907.727    -3740861.242 6  -2914950.42621        16.750           0.875
  24040986.195    -2214565.393 5    441396.05921         9.250           0.188
  22797474.609    -9654310.435 6  -7382812.28921        14.500           0.625
 91  6  6 18 30 45.0000000  0  5G18G 2G11G16G 6
  23710341.773    15110274.599 5  11774209.19221        11.250           0.406
  21435217.969   -14108770.445 7 -10993829.36323        24.500           2.594
  23277930.867    -3719721.991 6  -2898478.30421        16.500           0.719
  24044755.469    -2194771.911 5    456819.46421         9.500           0.250
  22791926.625    -9683466.005 6  -7405530.89821        14.750           0.594
 91  6  6 18 31  0.0000000  0  5G18G 2G11G16G 6
  23720937.953    15165946.030 5  11817589.36321        11.000           0.531
  21431392.328   -14128872.004 7 -11009492.89423        24.250           2.531
  23281984.438    -3698427.490 6  -2881885.20021        16.500           0.719
  24048539.266    -2174859.312 5    472335.72021         9.500           0.219
  22786383.469    -9712595.699 6  -7428229.34521        14.750           0.625
 91  6  6 18 31 15.0000000  0  5G18G 2G11G16G 6
  23731537.680    15221658.255 5  11861001.32221        10.250           0.531
  21427581.891   -14148894.114 7 -11025094.51422        24.500           2.469
  23286062.555    -3676986.169 6  -2865177.68721        16.500           0.781
  24052352.586    -2154836.338 5    487937.97321         9.500           0.219
  22780841.461    -9741707.772 6  -7450914.06421        14.500           0.719
 91  6  6 18 31 30.0000000  0  5G18G 2G11G16G 6
  23742148.422    15277414.312 5  11904447.46021        10.250           0.313
  21423788.219   -14168833.312 7 -11040631.52823        25.250           2.531
  23290172.617    -3655394.711 6  -2848353.19221        16.000           0.813
  24056186.234    -2134699.626 5    503628.82121         9.250           0.281
  22775305.867    -9770798.658 6  -7473582.27921        14.500           0.688
 91  6  6 18 31 45.0000000  0  5G18G 2G11G16G 6
  23752761.484    15333205.901 5  11947921.27221        10.000           0.281
  21420008.242   -14188697.714 7 -11056110.26022        24.750           2.344
  23294307.641    -3633661.551 6  -2831418.27621        16.250           0.813
  24060036.445    -2114457.792 5    519401.63621         9.000           0.281
  22769774.016    -9799876.505 6  -7496240.32721        14.750           0.656
 91  6  6 18 32  0.0000000  0  5G18G 2G11G16G 6
  23763386.922    15389034.108 5  11991423.62021        10.000           0.469
  21416241.711   -14208486.014 7 -11071529.69422        25.250           2.375
  23298469.375    -3611785.366 6  -2814371.91121        16.500           0.813
  24063909.516    -2094109.783 5    535257.16421         9.250           0.313
  22764240.883    -9828939.921 6  -7518887.13421        14.500           0.719
 91  6  6 18 32 15.0000000  0  5G18G 2G11G16G 6
  23774018.641    15444896.439 5  12034952.57321         9.500           0.375
  21412490.992   -14228200.422 7 -11086891.55122        25.250           2.438
  23302657.508    -3589768.750 6  -2797216.12721        16.250           0.781
  24067801.063    -2073658.172 5    551193.41221         9.250           0.281
  22758714.930    -9857991.316 6  -7541524.57921        14.750           0.719
 91  6  6 18 32 30.0000000  0  5G18G 2G11G16G 6
  23784655.289    15500789.180 5  12078505.22021         9.250           0.281
  21408753.531   -14247844.421 7 -11102198.54122        25.500           2.438
  23306874.523    -3567615.177 6  -2779953.62121        16.000           0.781
  24071709.438    -2053106.268 5    567207.82621         8.750           0.250
  22753189.375    -9887033.653 6  -7564154.95721        14.500           0.656
 91  6  6 18 32 45.0000000  0  5G18G 2G11G16G 6
  23795297.648    15556711.294 5  12122080.72721         9.000           0.375
  21405028.328   -14267418.823 7 -11117451.30023        25.250           2.500
  23311114.805    -3545325.523 6  -2762585.07621        16.000           0.750
  24075636.148    -2032455.336 5    583299.39021         8.750           0.250
  22747663.461    -9916067.828 6  -7586778.97621        14.750           0.813
 91  6  6 18 33  0.0000000  0  5G18G 2G11G16G 6
  23805943.938    15612661.862 5  12165678.41121         9.250           0.500
  21401316.023   -14286924.407 7 -11132650.43423        25.250           2.531
  23315383.406    -3522900.725 6  -2745111.22821        16.250           0.688
  24079588.758    -2011706.200 5    599467.49021         8.500           0.344
  22742140.117    -9945094.474 6  -7609397.13621        14.500           0.781
 91  6  6 18 33 15.0000000  0  5G18G 2G11G16G 6
  23816597.844    15668641.502 5  12209298.76121         9.500           0.281
  21397617.414   -14306360.310 7 -11147795.27122        25.750           2.469
  23319677.203    -3500340.085 6  -2727531.52221        16.250           0.813
  24083555.977    -1990858.240 5    615712.58021         8.250           0.125
  22736618.695    -9974112.631 6  -7632008.67121        14.250           0.844
 91  6  6 18 33 30.0000000  0  5G18G 2G11G16G 6
  23827256.313    15724650.035 5  12252941.62021         9.250           0.313
  21393932.484   -14325726.215 7 -11162885.56623        25.750           2.625
  23323998.500    -3477643.466 6  -2709845.86721        16.750           0.781
  24087543.109    -1969911.610 5    632034.56321         8.750           0.281
  22731096.938   -10003121.880 6  -7654613.27121        14.250           0.813
 91  6  6 18 33 45.0000000  0  5G18G 2G11G16G 6
  23837919.523    15780686.302 5  12296606.08121         9.250           0.375
  21390260.320   -14345023.060 7 -11177922.04622        25.500           2.469
  23328344.641    -3454812.120 6  -2692055.21521        16.750           0.625
  24091549.031    -1948867.253 5    648432.72021         8.750           0.313
  22725579.680   -10032123.296 6  -7677211.77221        15.000           0.781
 91  6  6 18 34  0.0000000  0  5G18G 2G11G16G 6
  23848586.008    15836743.573 5  12340286.91921         9.750           0.250
  21386599.703   -14364257.166 7 -11192909.63823        25.750           2.594
  23332713.031    -3431852.610 6  -2674164.70521        16.500           0.813
  24095573.305    -1927732.074 5    664901.59621         9.000           0.281
  22720060.938   -10061123.173 6  -7699809.06121        14.250           0.875
 91  6  6 18 34 15.0000000  0  5G18G 2G11G16G 6
  23859257.008    15892819.852 5  12383982.56821         9.750           0.281
  21382951.477   -14383430.453 7 -11207849.84623        25.750           2.563
  23337106.297    -3408767.095 6  -2656176.01021        16.750           0.656
  24099609.375    -1906508.307 5    681439.55721         8.500           0.313
  22714540.836   -10090123.321 6  -7722406.58621        14.500           0.750
 91  6  6 18 34 30.0000000  0  5G18G 2G11G16G 6
  23869932.500    15948915.432 5  12427693.24221         9.500           0.406
  21379313.305   -14402542.101 7 -11222742.01723        26.000           2.594
  23341523.461    -3385554.824 6  -2638088.53821        17.000           0.750
  24103659.758    -1885195.129 5    698047.15221         8.000           0.281
  22709023.023   -10119122.895 6  -7745003.64521        14.750           0.781
 91  6  6 18 34 45.0000000  0  5G18G 2G11G16G 6
  23880610.789    16005031.021 5  12471419.53221         9.750           0.469
  21375689.242   -14421591.488 7 -11237585.68222        26.000           2.469
  23345963.672    -3362215.320 6  -2619901.93121        17.000           0.688
  24107738.883    -1863792.344 5    714724.59921         8.000           0.250
  22703505.711   -10148121.113 6  -7767599.65421        14.750           0.813
 91  6  6 18 35  0.0000000  0  5G18G 2G11G16G 6
  23891290.742    16061171.109 5  12515164.90221         9.250           0.406
  21372078.055   -14440573.772 7 -11252377.05123        26.250           2.563
  23350428.945    -3338743.896 6  -2601612.52821        17.000           0.750
  24111826.680    -1842295.309 5    731475.46221         8.000           0.313
  22697988.438   -10177113.021 6  -7790190.73821        15.000           0.906
 91  6  6 18 35 15.0000000  0  5G18G 2G11G16G 6
  23901976.133    16117327.042 5  12558922.60421         9.500           0.469
  21368477.125   -14459496.883 7 -11267122.31822        26.000           2.438
  23354917.383    -3315148.889 6  -2583226.82921        16.750           0.781
  24115932.477    -1820712.508 5    748293.16521         8.250           0.281
  22692469.781   -10206106.623 6  -7812783.14521        15.250           0.844
 91  6  6 18 35 30.0000000  0  5G18G 2G11G16G 6
  23912668.797    16173497.574 5  12602691.69621         9.750           0.438
  21364886.320   -14478362.063 7 -11281822.43723        26.250           2.625
  23359430.430    -3291431.464 6  -2564745.73221        16.000           0.781
  24120054.539    -1799045.294 5    765176.63421         8.250           0.438
  22686954.195   -10235102.975 6  -7835377.69021        15.250           0.875
 91  6  6 18 35 45.0000000  0  5G18G 2G11G16G 6
  23923360.047    16229688.071 5  12646476.34621         9.750           0.531
  21361308.453   -14497163.678 7 -11296473.03123        25.750           2.500
  23363967.797    -3267586.354 6  -2546165.14421        16.250           0.719
  24124194.883    -1777288.622 5    782129.79621         8.500           0.250
  22681435.836   -10264096.444 6  -7857969.98821        15.500           0.875
 91  6  6 18 36  0.0000000  0  5G18G 2G11G16G 6
  23934056.727    16285898.774 5  12690276.71921         9.500           0.344
  21357743.109   -14515901.288 7 -11311073.74422        25.750           2.469
  23368529.875    -3243613.172 6  -2527484.75221        16.750           0.750
  24128355.031    -1755441.734 5    799153.33121         8.750           0.031
  22675919.172   -10293086.445 6  -7880559.60121        15.500           0.844
 91  6  6 18 36 15.0000000  0  5G18G 2G11G16G 6
  23944760.078    16342123.993 5  12734088.42121        10.250           0.438
  21354188.164   -14534580.605 7 -11325629.04123        25.750           2.531
  23373118.398    -3219517.724 6  -2508709.09321        16.750           0.781
  24132528.367    -1733510.376 5    816242.64621         8.250           0.438
  22670401.008   -10322078.526 6  -7903150.82221        15.250           0.938
 91  6  6 18 36 30.0000000  0  5G18G 2G11G16G 6
  23955460.992    16398372.747 5  12777918.47921        10.250           0.344
  21350646.977   -14553192.222 7 -11340131.58423        25.500           2.531
  23377727.008    -3195290.875 6  -2489831.04521        16.750           0.656
  24136716.125    -1711485.734 5    833404.58921         8.000           0.438
  22664886.766   -10351063.217 6  -7925736.28521        15.750           0.906
 91  6  6 18 36 45.0000000  0  5G18G 2G11G16G 6
  23966169.727    16454639.562 5  12821762.58121         9.750           0.375
  21347116.531   -14571740.924 7 -11354585.10522        25.250           2.469
  23382363.445    -3170937.585 6  -2470854.47021        16.750           0.750
  24140927.203    -1689372.990 5    850635.24121         8.250           0.250
  22659372.773   -10380045.266 6  -7948319.68021        16.000           0.938
 91  6  6 18 37  0.0000000  0  5G18G 2G11G16G 6
  23976880.164    16510919.436 5  12865616.87321         9.750           0.375
  21343598.094   -14590231.470 7 -11368993.30922        25.250           2.344
  23387017.508    -3146462.948 6  -2451783.33821        16.750           0.875
  24145153.336    -1667177.420 5    867930.41421         8.250           0.344
  22653855.297   -10409029.500 6  -7970904.79121        16.000           0.875
 91  6  6 18 37 15.0000000  0  5G18G 2G11G16G 6
  23987594.000    16567215.926 5  12909484.10421         9.500           0.375
  21340091.727   -14608660.080 7 -11383353.25222        25.750           2.469
  23391699.563    -3121863.477 6  -2432614.93221        16.750           0.750
  24149392.602    -1644895.376 5    885292.98321         8.500           0.563
  22648341.422   -10438011.982 6  -7993488.53121        16.000           0.813
 91  6  6 18 37 30.0000000  0  5G18G 2G11G16G 6
  23998308.477    16623530.151 5  12953365.14621         9.250           0.406
  21336595.797   -14627025.514 7 -11397663.97022        25.250           2.375
  23396403.797    -3097137.950 6  -2413348.31021        16.750           0.875
  24153648.648    -1622525.674 5    902723.83821         8.250           0.188
  22642826.336   -10466991.505 6  -8016069.96421        16.000           0.813
 91  6  6 18 37 45.0000000  0  5G18G 2G11G16G 6
  24009029.336    16679860.252 5  12997258.54921         9.500           0.344
  21333113.633   -14645329.486 7 -11411926.79523        25.500           2.500
  23401131.078    -3072288.181 6  -2393984.86621        16.500           0.719
  24157922.750    -1600070.340 5    920221.43721         8.750           0.469
  22637311.781   -10495969.536 6  -8038650.23921        16.000           0.813
 91  6  6 18 38  0.0000000  0  5G18G 2G11G16G 6
  24019749.422    16736204.059 5  13041162.67121         9.750           0.406
  21329642.281   -14663573.901 7 -11426143.21123        25.250           2.500
  23405885.391    -3047316.437 6  -2374526.37721        16.500           0.719
  24162213.180    -1577531.776 5    937783.86621         8.750           0.250
  22631797.250   -10524947.955 6  -8061230.80321        16.000           0.813
 91  6  6 18 38 15.0000000  0  5G18G 2G11G16G 6
  24030475.453    16792560.589 5  13085076.69421         9.250           0.344
  21326181.625   -14681759.292 7 -11440313.63222        25.500           2.438
  23410660.930    -3022223.322 6  -2354973.31021        16.500           0.844
  24166517.875    -1554910.689 5    955410.61321         8.500           0.313
  22626283.516   -10553927.104 6  -8083811.95221        16.250           0.781
 91  6  6 18 38 30.0000000  0  5G18G 2G11G16G 6
  24041204.375    16848930.917 5  13129001.47821         9.000           0.375
  21322731.672   -14699884.580 7 -11454437.22223        25.500           2.563
  23415460.875    -2997007.918 6  -2335324.96221        16.250           0.844
  24170833.641    -1532206.124 5    973102.41721         7.750           0.219
  22620768.258   -10582905.969 6  -8106392.86721        16.250           0.781
 91  6  6 18 38 45.0000000  0  5G18G 2G11G16G 6
  24051931.063    16905311.258 5  13172934.03721         8.000           0.281
  21319294.141   -14717953.015 7 -11468516.50922        25.250           2.469
  23420280.789    -2971673.900 6  -2315584.18021        16.250           0.688
  24175172.922    -1509421.669 5    990856.45121         7.750           0.188
  22615253.672   -10611887.677 6  -8128976.01121        16.250           0.875
 91  6  6 18 39  0.0000000  0  5G18G 2G11G16G 6
  24062661.414    16961707.122 5  13216878.67921         8.500           0.375
  21315867.078   -14735958.777 7 -11482546.96322        25.250           2.469
  23425125.828    -2946215.507 6  -2295746.48421        16.000           0.688
  24179526.563    -1486551.831 5   1008677.04521         8.000           0.344
  22609738.188   -10640866.372 6  -8151556.80021        16.000           0.781
 91  6  6 18 39 15.0000000  0  5G18G 2G11G16G 6
  24073393.477    17018121.154 5  13260837.52821         8.500           0.281
  21312452.750   -14753898.903 7 -11496526.26923        25.250           2.594
  23429993.594    -2920629.927 6  -2275809.68521        16.250           0.750
  24183893.047    -1463593.842 5   1026566.33721         8.000           0.250
  22604223.477   -10669838.944 6  -8174132.82121        16.250           0.750
 91  6  6 18 39 30.0000000  0  5G18G 2G11G16G 6
  24084128.883    17074547.076 5  13304805.62121         8.000           0.344
  21309050.523   -14771779.612 7 -11510459.27823        25.250           2.531
  23434884.352    -2894923.615 6  -2255778.81321        15.750           0.875
  24188279.352    -1440554.383 5   1044519.07321         8.500           0.219
  22598712.156   -10698811.495 6  -8196708.82321        16.250           0.781
 91  6  6 18 39 45.0000000  0  5G18G 2G11G16G 6
  24094875.211    17130991.236 5  13348787.92921         8.750           0.250
  21305661.141   -14789594.353 7 -11524340.88322        25.000           2.406
  23439801.516    -2869090.202 6  -2235648.90521        15.750           0.844
  24192685.633    -1417426.873 5   1062540.44221         8.750           0.281
  22593200.344   -10727777.385 6  -8219279.62921        16.000           0.719
 91  6  6 18 40  0.0000000  0  5G18G 2G11G16G 6
  24105618.078    17187449.275 5  13392781.03621         8.750           0.313
  21302282.055   -14807347.001 7 -11538174.10122        25.000           2.438
  23444741.148    -2843133.693 6  -2215423.06221        16.000           0.750
  24197097.992    -1394215.331 5   1080627.26721         8.500           0.219
  22587688.461   -10756740.400 6  -8241848.20321        15.750           0.844
 91  6  6 18 40 15.0000000  0  5G18G 2G11G16G 6
  24116364.102    17243924.408 5  13436787.49521         8.750           0.250
  21298917.047   -14825034.168 7 -11551956.29422        25.250           2.469
  23449703.969    -2817051.027 6  -2195098.91221        16.000           0.750
  24201528.828    -1370917.162 5   1098781.62721         8.000           0.219
  22582178.492   -10785697.065 6  -8264411.82821        15.750           0.750
 91  6  6 18 40 30.0000000  0  5G18G 2G11G16G 6
  24127116.695    17300415.791 5  13480806.58621         9.750           0.313
  21295563.664   -14842656.339 7 -11565687.84022        25.250           2.438
  23454690.164    -2790843.000 6  -2174677.09121        15.500           0.781
  24205980.109    -1347533.048 5   1117002.93821         8.250           0.344
  22576668.242   -10814647.926 6  -8286970.92021        16.000           0.750
 91  6  6 18 40 45.0000000  0  5G18G 2G11G16G 6
  24137869.094    17356921.621 5  13524836.94221         9.750           0.406
  21292221.047   -14860215.445 7 -11579370.24822        25.000           2.438
  23459701.367    -2764511.476 6  -2154159.01821        15.500           0.750
  24210444.461    -1324064.907 5   1135289.72121         8.250           0.250
  22571160.672   -10843594.458 6  -8309526.64721        16.250           0.719
 91  6  6 18 41  0.0000000  0  5G18G 2G11G16G 6
  24148629.492    17413438.523 5  13568875.91721         9.750           0.313
  21288891.711   -14877714.179 7 -11593005.61623        24.750           2.563
  23464734.828    -2738059.429 6  -2133547.04421        16.000           0.688
  24214927.797    -1300515.814 5   1153639.59321         8.250           0.250
  22565653.438   -10872539.496 6  -8332081.21721        16.750           0.813
 91  6  6 18 41 15.0000000  0  5G18G 2G11G16G 6
  24159385.477    17469969.467 5  13612925.83521         9.750           0.406
  21285574.805   -14895149.499 7 -11606591.56623        25.000           2.625
  23469791.117    -2711484.094 6  -2112838.99721        16.000           0.656
  24219419.281    -1276882.944 5   1172054.73921         8.000           0.281
  22560145.805   -10901479.989 6  -8354632.23021        16.750           0.781
 91  6  6 18 41 30.0000000  0  5G18G 2G11G16G 6
  24170143.734    17526504.563 5  13656978.97821         9.750           0.344
  21282267.188   -14912530.838 7 -11620135.45423        25.250           2.656
  23474870.484    -2684794.944 6  -2092042.25721        15.750           0.688
  24223933.406    -1253176.323 5   1190527.34821         7.750           0.219
  22554636.805   -10930425.145 6  -8377186.89121        16.750           0.688
 91  6  6 18 41 45.0000000  0  5G18G 2G11G16G 6
  24180901.969    17583050.109 5  13701040.26921        10.000           0.375
  21278969.844   -14929851.793 7 -11633632.29223        25.000           2.625
  23479973.008    -2657985.925 6  -2071152.13421        15.750           0.750
  24228460.680    -1229389.908 5   1209062.15421         7.750           0.281
  22549131.266   -10959368.489 6  -8399740.13121        16.500           0.656
 91  6  6 18 42  0.0000000  0  5G18G 2G11G16G 6
  24191667.117    17639604.946 5  13745108.80921        10.250           0.250
  21275685.391   -14947113.117 7 -11647082.66123        25.000           2.563
  23485098.109    -2631057.981 6  -2050169.32421        15.250           0.719
  24233003.258    -1205524.344 5   1227658.60721         7.750           0.375
  22543621.242   -10988310.609 6  -8422292.42221        16.500           0.781
 91  6  6 18 42 15.0000000  0  5G18G 2G11G16G 6
  24202431.383    17696171.941 5  13789186.81121        10.000           0.281
  21272414.289   -14964311.568 7 -11660484.04023        25.250           2.563
  23490245.180    -2604008.274 6  -2029091.64121        15.000           0.750
  24237558.711    -1181576.885 5   1246318.86521         7.750           0.250
  22538115.430   -11017248.450 6  -8444841.37521        16.500           0.750
 91  6  6 18 42 30.0000000  0  5G18G 2G11G16G 6
  24213198.328    17752752.573 5  13833275.47021         9.500           0.188
  21269152.453   -14981445.878 7 -11673835.43423        25.250           2.688
  23495416.313    -2576835.553 6  -2007918.10421        15.000           0.625
  24242136.078    -1157546.429 5   1265043.83521         8.000           0.344
  22532609.922   -11046180.437 6  -8467385.77521        16.750           0.781
 91  6  6 18 42 45.0000000  0  5G18G 2G11G16G 6
  24223965.320    17809345.293 5  13877373.53821         9.000           0.313
  21265903.586   -14998517.180 7 -11687137.74323        24.500           2.625
  23500609.836    -2549541.085 6  -1986649.69321        14.750           0.594
  24246725.117    -1133434.324 5   1283832.40321         7.750           0.344
  22527104.359   -11075107.521 6  -8489926.34421        17.000           0.781
 91  6  6 18 43  0.0000000  0  5G18G 2G11G16G 6
  24234735.391    17865948.034 5  13921479.38321         8.500           0.313
  21262666.445   -15015527.258 7 -11700392.33623        24.250           2.625
  23505823.547    -2522126.921 6  -1965288.01221        15.000           0.688
  24251328.367    -1109242.695 5   1302682.94721         8.250           0.219
  22521599.656   -11104031.433 6  -8512464.44921        17.000           0.844
 91  6  6 18 43 15.0000000  0  5G18G 2G11G16G 6
  24245509.063    17922564.416 5  13965595.88321         8.250           0.375
  21259442.688   -15032472.110 7 -11713596.10723        24.500           2.656
  23511065.797    -2494589.351 6  -1943830.17021        14.500           0.656
  24255948.125    -1084967.938 5   1321598.26121         8.250           0.250
  22516099.328   -11132948.193 6  -8534996.98121        16.750           0.906
 91  6  6 18 43 30.0000000  0  5G18G 2G11G16G 6
  24256285.211    17979190.044 5  14009719.54521         8.250           0.313
  21256229.820   -15049356.015 7 -11726752.38823        24.500           2.719
  23516328.242    -2466932.827 6  -1922279.64221        14.500           0.688
  24260577.461    -1060614.443 5   1340574.93421         8.500           0.344
  22510597.156   -11161861.915 6  -8557527.13821        16.750           0.781
 91  6  6 18 43 45.0000000  0  5G18G 2G11G16G 6
  24267062.664    18035826.400 5  14053851.63621         8.000           0.344
  21253028.891   -15066177.055 7 -11739859.68223        24.500           2.625
  23521615.586    -2439155.733 6  -1900635.16721        14.750           0.719
  24265229.281    -1036180.903 5   1359613.97821         8.500           0.375
  22505093.500   -11190770.602 6  -8580053.38621        16.500           0.813
 91  6  6 18 44  0.0000000  0  5G18G 2G11G16G 6
  24277840.422    18092479.281 5  14097996.54221         7.500           0.344
  21249840.781   -15082929.103 7 -11752913.21323        24.000           2.688
  23526923.336    -2411252.057 6  -1878892.04721        15.000           0.688
  24269895.422    -1011661.248 5   1378720.11421         8.000           0.313
  22499596.820   -11219667.973 6  -8602570.80921        17.250           0.875
 91  6  6 18 44 15.0000000  0  5G18G 2G11G16G 6
  24288623.133    18149145.165 4  14142151.61621         7.250           0.313
  21246665.469   -15099615.666 7 -11765915.72223        24.250           2.594
  23532255.656    -2383225.559 6  -1857053.22021        14.500           0.781
  24274571.016     -987059.236 5   1397890.44021         7.500           0.375
  22494098.930   -11248557.422 6  -8625082.06021        17.250           0.938
 91  6  6 18 44 30.0000000  0  5G18G 2G11G16G 6
  24299410.188    18205821.659 4  14186314.94321         7.250           0.250
  21243501.922   -15116238.893 7 -11778868.87323        24.250           2.719
  23537611.938    -2355078.625 6  -1835120.55921        14.500           0.656
  24279271.328     -962377.499 5   1417122.87721         7.500           0.313
  22488602.523   -11277441.043 6  -8647588.77421        17.750           0.813
 91  6  6 18 44 45.0000000  0  5G18G 2G11G16G 6
  24310197.383    18262504.457 4  14230483.19421         7.250           0.188
  21240350.266   -15132802.737 7 -11791775.75023        24.000           2.719
  23542989.578    -2326815.386 6  -1813097.26421        14.500           0.719
  24283982.461     -937619.815 5   1436414.49721         7.750           0.250
  22483107.820   -11306322.648 6  -8670093.91321        17.750           1.000
 91  6  6 18 45  0.0000000  0  5G18G 2G11G16G 6
  24320983.195    18319193.419 4  14274656.23821         7.250           0.219
  21237208.984   -15149306.780 7 -11804636.03323        24.000           2.813
  23548393.195    -2298435.811 6  -1790983.31121        15.000           0.594
  24288710.328     -912786.392 4   1455765.13921         7.000           0.313
  22477611.773   -11335201.770 6  -8692597.11321        17.750           0.875
 91  6  6 18 45 15.0000000  0  5G18G 2G11G16G 6
  24331775.195    18375895.885 5  14318839.79221         7.500           0.250
  21234080.641   -15165743.890 7 -11817444.16123        24.250           2.750
  23553819.383    -2269932.627 6  -1768773.04021        15.000           0.656
  24293448.883     -887870.418 4   1475180.09921         6.500           0.344
  22472117.891   -11364071.023 6  -8715092.62821        17.750           0.938
 91  6  6 18 45 30.0000000  0  5G18G 2G11G16G 6
  24342571.547    18432610.955 5  14363033.20021         8.250           0.250
  21230965.977   -15182114.468 7 -11830200.44523        24.500           2.719
  23559267.469    -2241306.727 6  -1746467.15721        15.000           0.750
  24298199.977     -862872.892 4   1494658.59621         6.500           0.156
  22466625.586   -11392930.834 6  -8737580.77921        17.750           0.938
 91  6  6 18 45 45.0000000  0  5G18G 2G11G16G 6
  24353366.375    18489337.322 5  14407235.36221         8.500           0.313
  21227863.633   -15198419.491 7 -11842905.64723        24.000           2.781
  23564735.586    -2212559.193 6  -1724066.48921        15.000           0.688
  24302979.617     -837794.803 4   1514199.86821         7.250           0.219
  22461136.406   -11421781.991 6  -8760062.19221        17.750           0.969
 91  6  6 18 46  0.0000000  0  5G18G 2G11G16G 6
  24364162.703    18546074.460 5  14451445.97221         8.500           0.219
  21224773.953   -15214659.488 7 -11855560.18023        24.750           2.719
  23570227.156    -2183690.811 6  -1701571.65921        15.250           0.750
  24307768.000     -812636.625 4   1533803.58021         7.250           0.281
  22455646.922   -11450624.932 6  -8782537.20221        17.750           1.031
 91  6  6 18 46 15.0000000  0  5G18G 2G11G16G 6
  24374961.805    18602823.716 5  14495666.00721         8.500           0.281
  21221696.023   -15230832.615 7 -11868162.61023        25.250           2.750
  23575744.000    -2154699.974 6  -1678981.40221        15.250           0.656
  24312574.328     -787396.972 4   1553470.74821         7.000           0.281
  22450160.938   -11479457.712 6  -8805004.28521        17.750           1.063
 91  6  6 18 46 30.0000000  0  5G18G 2G11G16G 6
  24385763.133    18659581.150 5  14539892.39221         9.000           0.188
  21218630.188   -15246942.491 7 -11880715.75423        25.000           2.781
  23581284.461    -2125590.575 6  -1656298.77321        15.000           0.594
  24317388.695     -762080.006 4   1573198.16321         6.750           0.344
  22444672.063   -11508283.849 6  -8827466.19321        17.000           1.094
 91  6  6 18 46 45.0000000  0  5G18G 2G11G16G 6
  24396566.180    18716347.349 5  14584125.61521         9.000           0.188
  21215576.133   -15262988.493 7 -11893219.12723        24.750           2.750
  23586845.563    -2096362.145 6  -1633523.38121        15.000           0.563
  24322225.516     -736685.341 4   1592986.12521         7.000           0.219
  22439190.992   -11537102.563 6  -8849922.32421        17.250           0.969
 91  6  6 18 47  0.0000000  0  5G18G 2G11G16G 6
  24407370.688    18773127.358 5  14628369.60221         9.000           0.313
  21212535.938   -15278965.507 7 -11905668.74023        24.750           2.750
  23592431.680    -2067009.732 6  -1610651.38421        15.000           0.656
  24327070.688     -711207.913 5   1612838.58321         7.500           0.281
  22433709.094   -11565908.625 6  -8872368.59021        17.250           1.000
 91  6  6 18 47 15.0000000  0  5G18G 2G11G16G 6
  24418175.281    18829912.756 5  14672617.77721         9.500           0.281
  21209507.922   -15294881.275 7 -11918070.63023        24.750           2.719
  23598037.977    -2037541.339 6  -1587689.01721        14.500           0.531
  24331936.336     -685655.724 4   1632749.29021         7.000           0.375
  22428228.266   -11594709.742 6  -8894811.01021        17.250           1.031
 91  6  6 18 47 30.0000000  0  5G18G 2G11G16G 6
  24428985.039    18886708.432 5  14716874.00121         9.500           0.188
  21206490.938   -15310730.653 7 -11930420.78223        24.750           2.750
  23603669.063    -2007952.131 6  -1564632.50021        14.250           0.563
  24336808.250     -660024.006 4   1652721.96821         7.000           0.281
  22422750.719   -11623500.617 6  -8917245.44221        17.750           1.000
 91  6  6 18 47 45.0000000  0  5G18G 2G11G16G 6
  24439794.641    18943515.206 5  14761138.84721         9.000           0.250
  21203487.953   -15326512.736 7 -11942718.50323        25.000           2.813
  23609323.117    -1978241.390 6  -1541481.29121        14.750           0.688
  24341704.070     -634312.321 4   1672756.94021         7.000           0.313
  22417272.578   -11652280.128 6  -8939671.02421        17.250           0.969
 91  6  6 18 48  0.0000000  0  5G18G 2G11G16G 6
  24450606.313    19000333.821 5  14805412.89821         8.750           0.313
  21200498.656   -15342226.423 7 -11954962.92423        24.750           2.719
  23615001.688    -1948408.260 6  -1518234.71521        14.750           0.625
  24346606.859     -608520.070 4   1692854.72221         6.250           0.313
  22411798.055   -11681047.216 6  -8962086.92521        17.250           1.000
 91  6  6 18 48 15.0000000  0  5G18G 2G11G16G 6
  24461417.578    19057161.501 5  14849694.04921         8.500           0.281
  21197520.148   -15357874.400 7 -11967156.14323        25.250           2.719
  23620701.016    -1918455.753 6  -1494895.12221        14.750           0.594
  24351529.188     -582649.734 3   1713013.31521         5.750           0.375
  22406326.945   -11709804.442 6  -8984495.14021        17.500           1.031
 91  6  6 18 48 30.0000000  0  5G18G 2G11G16G 6
  24472233.172    19113998.587 5  14893982.51421         7.750           0.250
  21194556.539   -15373456.146 7 -11979297.75223        25.750           2.781
  23626424.102    -1888383.413 6  -1471462.14221        14.500           0.656
  24356467.391     -556700.845 3   1733233.12721         6.000           0.219
  22400855.609   -11738550.983 6  -9006895.02121        17.500           1.063
 91  6  6 18 48 45.0000000  0  5G18G 2G11G16G 6
  24483049.516    19170843.948 5  14938277.42021         7.500           0.188
  21191603.969   -15388972.344 7 -11991388.28623        26.000           2.688
  23632167.813    -1858192.142 6  -1447936.50021        14.500           0.656
  24361420.773     -530674.876 4   1753513.01721         6.250           0.250
  22395388.211   -11767287.474 6  -9029287.08421        17.750           0.969
 91  6  6 18 49  0.0000000  0  5G18G 2G11G16G 6
  24493872.367    19227701.569 4  14982581.86921         7.250           0.188
  21188663.430   -15404418.796 7 -12003424.47723        26.250           2.813
  23637937.000    -1827878.062 6  -1424315.17421        14.750           0.563
  24366388.164     -504567.951 4   1773855.99121         6.500           0.281
  22389921.672   -11796009.710 6  -9051668.03721        17.250           1.063
 91  6  6 18 49 15.0000000  0  5G18G 2G11G16G 6
  24504692.359    19284567.616 5  15026892.91921         7.500           0.219
  21185735.406   -15419799.143 7 -12015409.15423        26.250           2.750
  23643728.914    -1797444.977 6  -1400601.09421        14.750           0.563
  24371371.703     -478384.048 4   1794258.96721         6.250           0.156
  22384459.000   -11824721.142 6  -9074040.57121        16.750           0.938
 91  6  6 18 49 30.0000000  0  5G18G 2G11G16G 6
  24515513.617    19341442.171 4  15071210.57121         7.250           0.250
  21182821.844   -15435113.119 7 -12027342.11623        26.250           2.688
  23649542.852    -1766892.826 6  -1376794.24321        14.750           0.594
  24376373.180     -452122.839 4   1814722.12321         6.750           0.219
  22378996.883   -11853421.349 6  -9096404.35621        16.500           0.938
 91  6  6 18 49 45.0000000  0  5G18G 2G11G16G 6
  24526336.000    19398325.752 4  15115535.26021         6.500           0.156
  21179921.477   -15450359.948 7 -12039222.75723        26.750           2.813
  23655377.977    -1736221.173 6  -1352894.27321        14.250           0.656
  24381386.578     -425784.103 4   1835245.73421         7.000           0.250
  22373536.813   -11882109.304 6  -9118758.59821        16.500           0.938
 91  6  6 18 50  0.0000000  0  5G18G 2G11G16G 6
  24537167.078    19455218.882 4  15159867.43021         6.750           0.188
  21177032.945   -15465538.470 7 -12051050.16723        26.750           2.750
  23661237.711    -1705429.264 6  -1328900.60321        14.250           0.625
  24386413.039     -399367.058 4   1855830.35221         7.250           0.250
  22368082.758   -11910784.066 6  -9141102.55121        17.000           0.969
 91  6  6 18 50 15.0000000  0  5G18G 2G11G16G 6
  24547992.984    19512121.857 4  15204207.22621         6.750           0.250
  21174157.477   -15480648.120 7 -12062823.91423        26.750           2.781
  23667120.547    -1674516.680 6  -1304812.90521        14.500           0.594
  24391449.844     -372871.381 4   1876476.24221         6.750           0.250
  22362628.641   -11939444.733 6  -9163435.53121        16.750           1.063
 91  6  6 18 50 30.0000000  0  5G18G 2G11G16G 6
  24558825.633    19569033.094 4  15248553.46521         6.500           0.250
  21171295.391   -15495690.549 7 -12074545.28023        27.250           2.813
  23673026.156    -1643485.152 6  -1280632.51521        14.250           0.656
  24396506.719     -346298.955 4   1897181.90321         6.500           0.219
  22357174.867   -11968092.842 6  -9185758.72121        16.750           0.969
 91  6  6 18 50 45.0000000  0  5G18G 2G11G16G 6
  24569654.172    19625950.925 3  15292904.83521         6.000           0.281
  21168444.398   -15510667.484 7 -12086215.61423        27.250           2.781
  23678953.820    -1612336.590 6  -1256360.93321        14.250           0.656
  24401574.078     -319651.464 4   1917946.08221         6.500           0.281
  22351727.273   -11996729.870 6  -9208073.27821        16.750           1.000
 91  6  6 18 51  0.0000000  0  4G18G 2G11G 6
  24580489.836    19682880.690 3  15337265.48121         6.000           0.188
  21165607.297   -15525573.077 7 -12097830.35723        27.250           2.719
  23684904.055    -1581065.496 6  -1231993.88121        14.250           0.563
  22346280.258   -12025349.853 6  -9230374.55421        16.500           0.906
 91  6  6 18 51 15.0000000  0  4G18G 2G11G 6
  24591325.219    19739821.928 4  15381635.10121         6.500           0.281
  21162784.906   -15540407.361 7 -12109389.53623        27.250           2.750
  23690876.422    -1549672.129 6  -1207531.53321        14.000           0.563
  22340836.734   -12053952.918 6  -9252662.64521        17.000           1.000
 91  6  6 18 51 30.0000000  0  3G 2G11G 6
  21159976.031   -15555171.777 7 -12120894.27423        27.500           2.688
  23696873.406    -1518158.265 6  -1182975.29121        14.000           0.625
  22335396.914   -12082540.243 6  -9274938.47621        17.250           0.906
 91  6  6 18 51 45.0000000  0  3G 2G11G 6
  21157180.328   -15569865.676 7 -12132344.06223        27.750           2.656
  23702894.188    -1486523.384 6  -1158324.76521        14.000           0.594
  22329960.133   -12111111.077 6  -9297201.45021        17.000           1.063
 91  6  6 18 52  0.0000000  0  3G 2G11G 6
  21154397.234   -15584488.564 7 -12143738.52323        27.500           2.688
  23708937.633    -1454767.070 6  -1133579.60321        14.250           0.594
  22324527.508   -12139664.691 6  -9319451.01621        17.250           0.906
 91  6  6 18 52 15.0000000  0  3G 2G11G 6
  21151627.555   -15599040.749 7 -12155077.88623        27.750           2.656
  23715004.328    -1422889.874 6  -1108740.25721        14.250           0.625
  22319096.352   -12168201.136 6  -9341687.20121        16.750           0.969
 91  6  6 18 52 30.0000000  0  3G 2G11G 6
  21148871.359   -15613526.453 7 -12166365.44523        27.000           2.594
  23721092.117    -1390896.396 6  -1083810.29021        14.250           0.563
  22313669.094   -12196724.748 6  -9363913.38421        17.500           1.031
 91  6  6 18 52 45.0000000  0  3G 2G11G 6
  21146127.438   -15627943.585 7 -12177599.57223        27.250           2.688
  23727203.461    -1358784.786 6  -1058788.28821        14.500           0.625
  22308242.203   -12225233.284 6  -9386127.81921        17.500           0.938
 91  6  6 18 53  0.0000000  0  3G 2G11G 6
  21143397.984   -15642288.994 7 -12188777.81123        26.500           2.688
  23733335.898    -1326552.283 6  -1033672.08021        14.500           0.625
  22302822.781   -12253723.450 6  -9408327.94121        17.500           1.000
 91  6  6 18 53 15.0000000  0  3G 2G11G 6
  21140683.141   -15656561.749 7 -12199899.43923        27.000           2.625
  23739491.781    -1294198.118 6  -1008461.05221        14.250           0.625
  22297403.633   -12282194.060 6  -9430512.82521        17.500           1.031
 91  6  6 18 53 30.0000000  0  3G 2G11G 6
  21137980.406   -15670761.310 7 -12210964.02723        27.250           2.594
  23745670.961    -1261721.994 6   -983155.00521        13.750           0.594
  22291990.227   -12310644.570 6  -9452682.04421        17.000           1.031
 91  6  6 18 53 45.0000000  0  3G 2G11G 6
  21135291.719   -15684889.028 7 -12221972.63723        26.750           2.625
  23751876.242    -1229125.471 6   -957755.13521        14.250           0.594
  22286581.789   -12339076.165 6  -9474836.52221        18.000           0.938
 91  6  6 18 54  0.0000000  0  3G 2G11G 6
  21132615.805   -15698944.507 7 -12232924.95723        27.000           2.563
  23758102.734    -1196408.332 6   -932261.27821        14.500           0.625
  22281171.797   -12367488.187 6  -9496975.75521        18.000           1.031
 91  6  6 18 54 15.0000000  0  3G 2G11G 6
  21129954.969   -15712930.539 7 -12243823.16523        26.750           2.656
  23764351.266    -1163573.626 6   -906675.81821        14.250           0.563
  22275771.758   -12395883.360 6  -9519101.85421        18.500           0.969
 91  6  6 18 54 30.0000000  0  3G 2G11G 6
  21127307.836   -15726844.377 7 -12254665.11423        26.750           2.563
  23770620.242    -1130619.039 6   -880996.93521        14.250           0.625
  22270369.742   -12424258.949 6  -9541212.69921        18.750           0.969
 91  6  6 18 54 45.0000000  0  3G 2G11G 6
  21124673.531   -15740689.976 7 -12265453.89323        27.000           2.531
  23776912.797    -1097548.680 6   -855227.84521        13.500           0.656
  22264974.500   -12452618.587 6  -9563311.10621        18.750           1.000
 91  6  6 18 55  0.0000000  0  3G 2G11G 6
  21122051.586   -15754464.490 7 -12276187.28023        27.250           2.563
  23783231.102    -1064359.825 6   -829366.42721        13.250           0.563
  22259580.500   -12480959.202 6  -9585394.69821        18.000           1.063
 91  6  6 18 55 15.0000000  0  3G 2G11G 6
  21119443.852   -15768170.343 7 -12286867.16322        26.000           2.438
  23789568.000    -1031055.161 6   -803414.76121        13.750           0.688
  22254189.844   -12509283.113 6  -9607465.27221        18.750           1.000
 91  6  6 18 55 30.0000000  0  3G 2G11G 6
  21116849.328   -15781805.541 7 -12297491.99223        27.000           2.563
  23795927.703     -997633.304 6   -777371.77421        13.500           0.656
  22248803.906   -12537588.377 6  -9629521.31221        18.000           1.188
 91  6  6 18 55 45.0000000  0  3G 2G11G 6
  21114267.625   -15795366.710 7 -12308059.13323        26.250           2.531
  23802311.523     -964090.795 6   -751234.78021        13.750           0.563
  22243422.680   -12565871.451 6  -9651560.06221        18.750           1.000
 91  6  6 18 56  0.0000000  0  3G 2G11G 6
  21111702.461   -15808851.324 7 -12318566.61923        26.500           2.500
  23808716.656     -930425.419 6   -725002.05021        13.750           0.563
  22238044.625   -12594129.517 6  -9673579.32221        18.750           1.094
 91  6  6 18 56 15.0000000  0  3G 2G11G 6
  21109150.430   -15822264.503 7 -12329018.44222        26.500           2.438
  23815146.133     -896642.596 6   -698677.79521        13.750           0.594
  22232669.313   -12622367.670 6  -9695583.07421        19.000           1.094
 91  6  6 18 56 30.0000000  0  3G 2G11G 6
  21106609.930   -15835612.022 7 -12339419.10222        26.500           2.438
  23821595.703     -862748.206 6   -672266.59521        14.000           0.500
  22227301.445   -12650591.319 6  -9717575.51021        19.250           1.156
 91  6  6 18 56 45.0000000  0  3G 2G11G 6
  21104082.953   -15848887.065 7 -12349763.28523        26.000           2.531
  23828069.328     -828735.793 6   -645763.44521        13.750           0.531
  22221932.227   -12678793.584 6  -9739551.29221        18.750           1.031
 91  6  6 18 57  0.0000000  0  3G 2G11G 6
  21101570.852   -15862094.159 7 -12360054.52423        26.500           2.500
  23834562.188     -794610.149 6   -619172.06221        13.500           0.531
  22216570.320   -12706978.945 6  -9761513.89921        18.750           1.094
 91  6  6 18 57 15.0000000  0  3G 2G11G 6
  21099070.500   -15875229.881 7 -12370290.14623        25.750           2.500
  23841077.570     -760368.075 6   -592489.95121        13.750           0.594
  22211211.570   -12735143.883 6  -9783460.59421        18.250           1.031
 91  6  6 18 57 30.0000000  0  3G 2G11G 6
  21096584.813   -15888298.808 7 -12380473.71923        26.750           2.500
  23847617.102     -726014.478 6   -565720.92621        14.000           0.563
  22205852.008   -12763292.719 6  -9805394.74221        18.500           1.031
 91  6  6 18 57 45.0000000  0  4G19G 2G11G 6
  21887743.953          -0.61216                        16.750
  21094109.477   -15901300.060 7 -12390604.56122        27.000           2.344
  23854174.008     -691548.723 6   -538864.51021        13.750           0.469
  22200502.250   -12791424.370 6  -9827315.49521        18.500           0.969
 91  6  6 18 58  0.0000000  0  4G19G 2G11G 6
  21892832.289       26732.897 6                        16.500
  21091648.766   -15914232.678 7 -12400681.91922        27.250           2.406
  23860754.672     -656970.061 6   -511920.12721        13.750           0.594
  22195150.289   -12819537.775 6  -9849222.03521        18.250           1.000
 91  6  6 18 58 15.0000000  0  4G19G 2G11G 6
  21897929.977       53525.438 6        -0.31032        16.500           1.594
  21089200.422   -15927098.222 7 -12410707.01322        27.000           2.469
  23867354.688     -622280.109 6   -484889.03221        13.750           0.500
  22189805.422   -12847634.229 6  -9871115.36121        18.500           1.031
 91  6  6 18 58 30.0000000  0  4G19G 2G11G 6
  21903042.453       80379.482 6     20924.88822        16.000           1.656
  21086765.688   -15939894.267 7 -12420677.95122        27.000           2.438
  23873978.242     -587476.877 6   -457769.65321        14.000           0.531
  22184461.305   -12875711.162 6  -9892993.48221        18.500           1.063
 91  6  6 18 58 45.0000000  0  4G19G 2G11G 6
  21908163.266      107293.314 6     41896.67622        16.500           1.531
  21084343.727   -15952622.513 7 -12430596.05722        26.750           2.406
  23880622.859     -552562.331 6   -430563.53721        14.000           0.469
  22179121.656   -12903770.183 6  -9914857.64121        18.750           1.063
 91  6  6 18 59  0.0000000  0  4G19G 2G11G 6
  21913297.102      134270.313 6     62917.68122        16.000           1.531
  21081935.359   -15965279.497 7 -12440458.63522        26.750           2.344
  23887287.133     -517533.308 6   -403268.21721        13.750           0.469
  22173786.477   -12931807.737 6  -9936705.07921        18.750           1.156
 91  6  6 18 59 15.0000000  0  4G19G 2G11G 6
  21918439.289      161310.137 6     83987.64721        16.250           1.469
  21079539.016   -15977865.727 7 -12450266.08022        26.500           2.469
  23893974.875     -482390.627 6   -375884.33721        13.500           0.563
  22168456.547   -12959824.199 6  -9958536.07021        19.000           1.219
 91  6  6 18 59 30.0000000  0  4G19G 2G11G 6
  21923599.633      188412.713 6    105106.50321        15.500           1.469
  21077157.266   -15990381.211 7 -12460018.39922        26.500           2.344
  23900683.281     -447134.513 6   -348412.08221        13.500           0.438
  22163127.156   -12987819.438 6  -9980350.53521        19.000           1.313
 91  6  6 18 59 45.0000000  0  4G19G 2G11G 6
  21928767.938      215576.726 6    126273.23921        16.000           1.438
  21074787.266   -16002827.437 7 -12469716.74822        26.000           2.375
  23907414.000     -411766.675 6   -320852.75321        14.250           0.344
  22157804.328   -13015794.703 6 -10002149.42821        19.500           1.156
 91  6  6 19  0  0.0000000  0  4G19G 2G11G 6
  21933949.594      242802.798 6    147488.32721        15.500           1.469
  21072434.867   -16015203.796 7 -12479360.65622        26.500           2.344
  23914166.391     -376286.669 6   -293206.02021        14.000           0.500
  22152485.633   -13043749.082 6 -10023932.05221        19.500           1.156
 91  6  6 19  0 15.0000000  0  4G19G 2G11G 6
  21939141.859      270090.730 6    168751.61921        16.250           1.438
  21070092.125   -16027510.589 7 -12488950.35822        26.250           2.406
  23920939.641     -340695.162 6   -265472.39621        14.000           0.469
  22147168.813   -13071682.934 6 -10045698.68021        19.250           1.188
 91  6  6 19  0 30.0000000  0  4G19G 2G11G 6
  21944347.000      297438.383 6    190061.45021        15.750           1.406
  21067763.617   -16039750.021 7 -12498487.57122        26.250           2.469
  23927731.578     -304994.608 6   -237653.81221        14.000           0.531
  22141857.094   -13099598.194 6 -10067450.82221        19.000           1.219
 91  6  6 19  0 45.0000000  0  4G19G 2G11G 6
  21949561.648      324849.912 6    211421.04621        16.250           1.438
  21065448.414   -16051917.992 7 -12507969.10222        26.500           2.469
  23934548.805     -269181.230 6   -209747.30621        13.750           0.500
  22136549.125   -13127490.751 6 -10089185.26921        19.000           1.313
 91  6  6 19  1  0.0000000  0  4G19G 2G11G 6
  21954790.430      352323.611 6    232829.09621        16.250           1.406
  21063146.078   -16064016.203 7 -12517396.27422        26.500           2.469
  23941385.922     -233257.073 6   -181754.47521        13.500           0.563
  22131245.719   -13155361.950 6 -10110903.07421        18.750           1.188
 91  6  6 19  1 15.0000000  0  4G19G 2G11G 6
  21960030.531      379860.399 6    254286.30221        16.250           1.313
  21060857.984   -16076044.054 7 -12526768.61723        26.500           2.531
  23948240.141     -197221.539 6   -153674.86921        12.750           0.531
  22125944.711   -13183210.965 6 -10132603.59721        18.500           1.313
 91  6  6 19  1 30.0000000  0  4G19G 2G11G 6
  21965284.070      407456.778 6    275789.94021        15.750           1.406
  21058581.109   -16088004.991 7 -12536088.82922        26.250           2.469
  23955117.984     -161078.539 6   -125511.51821        13.000           0.563
  22120650.203   -13211041.201 6 -10154289.48421        18.750           1.281
 91  6  6 19  1 45.0000000  0  4G19G 2G11G 6
  21970544.375      435115.368 6    297342.05321        15.750           1.281
  21056317.898   -16099896.340 7 -12545354.81023        26.500           2.563
  23962017.516     -124825.641 6    -97262.53421        13.750           0.563
  22115358.578   -13238849.795 6 -10175958.50421        18.500           1.313
 91  6  6 19  2  0.0000000  0  4G19G 2G11G 6
  21975821.984      462838.926 6    318944.78921        15.250           1.406
  21054068.297   -16111715.562 7 -12554564.58923        26.000           2.500
  23968938.859      -88460.383 6    -68925.98221        13.750           0.531
  22110070.859   -13266633.966 6 -10197608.48921        18.750           1.375
 91  6  6 19  2 15.0000000  0  4G19G 2G11G 6
  21981107.922      490625.447 6    340596.58822        15.750           1.563
  21051832.422   -16123464.471 7 -12563719.58123        26.000           2.500
  23975879.961      -51985.036 6    -40503.66321        13.500           0.469
  22104788.430   -13294395.477 6 -10219240.82821        19.000           1.250
 91  6  6 19  2 30.0000000  0  4G19G 2G11G 6
  21986409.219      518472.025 6    362295.18822        15.500           1.500
  21049609.945   -16135145.919 7 -12572822.00122        25.500           2.438
  23982840.422      -15402.748 6    -11997.99521        13.750           0.531
  22099509.758   -13322137.059 6 -10240857.62921        18.500           1.344
 91  6  6 19  2 45.0000000  0  4G19G 2G11G 6
  21991717.836      546381.290 6    384042.63421        16.000           1.438
  21047400.719   -16146757.738 7 -12581870.16522        25.250           2.469
  23989822.883       21288.578 6     16592.62321        13.500           0.469
  22094233.906   -13349856.210 6 -10262456.95321        18.500           1.375
 91  6  6 19  3  0.0000000  0  4G19G 2G11G 6
  21997042.773      574352.041 6    405837.98221        15.250           1.469
  21045203.750   -16158301.074 7 -12590864.97322        25.750           2.469
  23996826.320       58087.416 6     45267.02621        13.250           0.500
  22088964.773   -13377553.933 6 -10284039.57721        18.500           1.313
 91  6  6 19  3 15.0000000  0  4G19G 2G11G 6
  22002374.383      602383.599 6    427680.71921        16.000           1.406
  21043020.938   -16169776.640 7 -12599806.96522        25.500           2.469
  24003847.805       94992.987 6     74024.58321        13.500           0.531
  22083694.398   -13405230.717 6 -10305605.89321        18.500           1.313
 91  6  6 19  3 30.0000000  0  4G19G 2G11G 6
  22007722.641      630480.727 6    449574.55021        15.250           1.469
  21040849.859   -16181179.688 7 -12608692.45423        25.500           2.500
  24010893.813      132009.597 6    102868.67721        14.000           0.438
  22078436.453   -13432881.752 6 -10327152.14421        19.000           1.250
 91  6  6 19  3 45.0000000  0  4G19G 2G11G 6
  22013079.492      658639.961 6    471516.77521        15.750           1.344
  21038693.836   -16192513.602 7 -12617524.06223        25.250           2.688
  24017957.180      169133.501 6    131796.36821        14.000           0.531
  22073177.523   -13460510.430 6 -10348680.97421        19.500           1.250
 91  6  6 19  4  0.0000000  0  4G19G 2G11G 6
  22018452.453      686861.970 6    493507.91621        15.250           1.281
  21036549.898   -16203777.996 7 -12626301.50822        25.000           2.469
  24025042.344      206364.870 6    160807.80421        13.750           0.500
  22067926.750   -13488116.047 7 -10370191.83521        20.000           1.313
 91  6  6 19  4 15.0000000  0  4G19G 2G11G 6
  22023833.031      715146.756 6    515547.97621        15.750           1.469
  21034419.195   -16214972.878 7 -12635024.79223        25.000           2.625
  24032147.438      243703.309 6    189902.68021        12.750           0.406
  22062675.266   -13515698.337 6 -10391684.52421        19.750           1.313
 91  6  6 19  4 30.0000000  0  4G19G 2G11G 6
  22029229.867      743498.086 6    537639.88621        15.250           1.406
  21032302.555   -16226094.529 7 -12643691.00523        25.000           2.500
  24039272.789      281152.463 6    219083.81421        12.500           0.500
  22057431.914   -13543253.307 6 -10413155.91921        19.750           1.375
 91  6  6 19  4 45.0000000  0  4G19G 2G11G 6
  22034635.500      771911.494 6    559780.17222        15.750           1.500
  21030198.453   -16237147.525 7 -12652303.72922        24.500           2.438
  24046418.711      318707.429 6    248347.39121        12.750           0.531
  22052193.195   -13570785.454 7 -10434609.53021        20.000           1.281
 91  6  6 19  5  0.0000000  0  4G19G 2G11G 6
  22040055.219      800387.766 6    581969.43522        15.000           1.531
  21028109.336   -16248131.092 7 -12660862.35223        25.250           2.594
  24053583.625      356368.735 6    277693.83321        12.250           0.469
  22046958.805   -13598293.826 6 -10456044.62421        19.750           1.344
 91  6  6 19  5 15.0000000  0  4G19G 2G11G 6
  22045485.055      828925.433 6    604206.54221        15.750           1.375
  21026032.430   -16259046.722 7 -12669368.03323        24.750           2.656
  24060772.250      394134.485 6    307121.66021        12.500           0.438
  22041727.156   -13625779.689 6 -10477462.17021        19.500           1.281
 91  6  6 19  5 30.0000000  0  4G19G 2G11G 6
  22050927.945      857526.453 6    626493.02221        15.250           1.438
  21023968.148   -16269892.597 7 -12677819.36223        24.750           2.594
  24067982.234      432006.473 6    336632.27821        13.000           0.438
  22036501.898   -13653241.197 6 -10498860.73721        19.750           1.281
 91  6  6 19  5 45.0000000  0  4G19G 2G11G 6
  22056382.078      886190.921 6    648828.93421        15.500           1.438
  21021917.969   -16280668.509 7 -12686216.17523        25.500           2.656
  24075207.188      469984.501 6    366225.53421        12.250           0.375
  22031279.859   -13680677.821 6 -10520239.91921        19.750           1.250
 91  6  6 19  6  0.0000000  0  4G19G 2G11G 6
  22061851.336      914920.000 6    671215.18821        15.250           1.406
  21019880.289   -16291373.239 7 -12694557.51923        25.250           2.563
  24082452.141      508069.347 6    395902.01221        12.250           0.375
  22026064.219   -13708088.421 7 -10541598.81621        20.000           1.344
 91  6  6 19  6 15.0000000  0  4G19G 2G11G 6
  22067326.086      943711.219 6    693649.86921        15.500           1.250
  21017857.828   -16302009.568 7 -12702845.56823        25.250           2.531
  24089720.547      546258.196 6    425659.51721        12.250           0.375
  22020853.336   -13735475.392 7 -10562939.30421        20.250           1.281
 91  6  6 19  6 30.0000000  0  4G19G 2G11G 6
  22072822.992      972567.962 6    716135.60921        14.750           1.375
  21015846.141   -16312574.161 7 -12711077.71322        25.500           2.469
  24097008.172      584554.053 5    455500.42521        11.750           0.531
  22015646.797   -13762835.099 6 -10584258.55121        19.500           1.313
 91  6  6 19  6 45.0000000  0  4G19G 2G11G 6
  22078323.984     1001489.777 6    738672.04921        16.000           1.375
  21013849.914   -16323067.460 7 -12719254.31322        24.750           2.469
  24104318.594      622956.239 5    485424.17621        11.750           0.344
  22010447.391   -13790167.819 7 -10605556.77021        20.000           1.344
 91  6  6 19  7  0.0000000  0  4G19G 2G11G 6
  22083843.836     1030478.508 6    761260.63721        15.000           1.344
  21011866.680   -16333487.604 7 -12727373.90523        25.000           2.594
  24111643.648      661466.279 6    515431.95921        12.000           0.438
  22005251.109   -13817471.743 7 -10626832.55421        20.000           1.281
 91  6  6 19  7 15.0000000  0  4G19G 2G11G 6
  22089366.813     1059530.406 6    783898.43721        16.250           1.313
  21009896.992   -16343838.554 7 -12735439.58023        25.000           2.594
  24118991.039      700079.955 6    545520.49021        12.500           0.344
  22000060.297   -13844750.503 6 -10648088.72821        19.750           1.281
 91  6  6 19  7 30.0000000  0  4G19G 2G11G 6
  22094909.469     1088641.626 6    806582.46521        15.000           1.313
  21007940.102   -16354124.158 7 -12743454.33323        25.250           2.594
  24126361.477      738793.193 6    575686.63921        12.750           0.344
  21994873.352   -13872007.591 6 -10669328.00621        19.750           1.406
 91  6  6 19  7 45.0000000  0  4G19G 2G11G 6
  22100458.992     1117816.340 6    829315.96421        16.000           1.406
  21005995.039   -16364340.302 7 -12751414.96523        25.250           2.719
  24133743.281      777609.888 6    605933.37921        12.250           0.438
  21989689.523   -13899238.886 6 -10690547.19921        19.750           1.313
 91  6  6 19  8  0.0000000  0  4G19G 2G11G 6
  22106024.563     1147057.724 6    852101.41921        15.500           1.281
  21004064.570   -16374483.768 7 -12759318.96323        25.250           2.656
  24141151.750      816532.751 6    636262.85421        12.500           0.500
  21984515.594   -13926441.056 7 -10711743.68921        20.000           1.313
 91  6  6 19  8 15.0000000  0  4G19G 2G11G 6
  22111600.719     1176365.662 6    874938.72421        16.250           1.313
  21002147.766   -16384554.578 7 -12767166.34923        25.000           2.656
  24148579.883      855561.395 6    666674.75621        12.250           0.438
  21979343.000   -13953614.046 6 -10732917.44421        19.750           1.281
 91  6  6 19  8 30.0000000  0  4G19G 2G11G 6
  22117190.242     1205732.557 6    897821.98021        16.000           1.375
  21000244.664   -16394560.607 7 -12774963.25423        25.250           2.750
  24156027.828      894687.880 6    697162.88621        12.500           0.438
  21974175.555   -13980765.372 6 -10754074.31121        19.500           1.344
 91  6  6 19  8 45.0000000  0  4G19G 2G11G 6
  22122789.805     1235161.626 6    920753.68221        16.250           1.281
  20998353.703   -16404498.744 7 -12782707.25623        25.000           2.563
  24163488.938      933914.937 6    727729.38921        12.500           0.375
  21969013.242   -14007891.682 6 -10775211.69021        19.250           1.313
 91  6  6 19  9  0.0000000  0  4G19G 2G11G 6
  22128405.344     1264652.478 6    943733.51721        15.750           1.313
  20996474.422   -16414369.354 7 -12790398.64623        25.000           2.594
  24170974.313      973241.948 6    758373.77121        12.250           0.375
  21963857.023   -14034993.180 6 -10796329.73421        19.250           1.375
 91  6  6 19  9 15.0000000  0  4G19G 2G11G 6
  22134026.328     1294208.033 6    966763.77821        16.750           1.344
  20994609.891   -16424169.600 7 -12798035.19723        25.000           2.594
  24178477.469     1012671.662 6    789098.18921        12.750           0.375
  21958705.008   -14062066.877 6 -10817426.11221        19.500           1.406
 91  6  6 19  9 30.0000000  0  4G19G 2G11G 6
  22139665.758     1323824.256 6    989841.31021        15.500           1.219
  20992757.383   -16433903.528 7 -12805620.07423        25.000           2.531
  24185996.742     1052199.703 6    819899.24421        12.500           0.438
  21953557.594   -14089116.429 6 -10838503.67921        19.500           1.344
 91  6  6 19  9 45.0000000  0  4G19G 2G11G 6
  22145308.297     1353500.093 6   1012965.29521        16.500           1.281
  20990918.609   -16443572.113 7 -12813154.03323        25.000           2.688
  24193539.711     1091824.529 6    850775.69921        12.500           0.375
  21948415.477   -14116142.822 6 -10859563.19721        19.500           1.469
 91  6  6 19 10  0.0000000  0  4G19G 2G11G 6
  22150969.836     1383235.405 6   1036135.62721        15.250           1.281
  20989090.945   -16453175.705 7 -12820637.35023        25.500           2.531
  24201099.797     1131545.734 6    881727.25221        12.250           0.469
  21943276.141   -14143146.162 6 -10880604.75121        19.500           1.438
 91  6  6 19 10 15.0000000  0  4G19G 2G11G 6
  22156638.531     1413035.211 6   1059356.21421        16.250           1.156
  20987276.820   -16462709.447 7 -12828066.23523        25.250           2.625
  24208675.648     1171367.917 6    912757.49421        12.500           0.344
  21938142.516   -14170121.254 6 -10901624.29522        19.250           1.500
 91  6  6 19 10 30.0000000  0  4G19G 2G11G 6
  22162321.094     1442895.732 6   1082624.11021        15.750           1.188
  20985475.180   -16472177.031 7 -12835443.56923        25.250           2.563
  24216271.961     1211287.023 6    943863.27821        12.500           0.375
  21933013.266   -14197071.802 6 -10922624.71221        19.750           1.469
 91  6  6 19 10 45.0000000  0  4G19G 2G11G 6
  22168014.297     1472821.874 6   1105943.14321        16.000           1.219
  20983688.523   -16481573.482 7 -12842765.47323        26.000           2.531
  24223885.453     1251307.743 6    975048.23521        12.000           0.344
  21927891.641   -14223992.777 6 -10943602.08521        19.750           1.469
 91  6  6 19 11  0.0000000  0  4G19G 2G11G 6
  22173723.000     1502808.874 6   1129309.58921        15.500           1.344
  20981910.945   -16490903.864 7 -12850035.90223        25.750           2.625
  24231521.680     1291424.858 6   1006308.28321        12.500           0.438
  21922773.484   -14250888.546 6 -10964559.81821        19.750           1.438
 91  6  6 19 11 15.0000000  0  4G19G 2G11G 6
  22179439.953     1532859.057 6   1152725.27121        15.750           1.313
  20980149.484   -16500165.783 7 -12857252.97523        25.750           2.594
  24239177.031     1331640.389 6   1037645.02821        12.500           0.438
  21917659.766   -14277756.856 6 -10985496.15621        19.750           1.375
 91  6  6 19 11 30.0000000  0  4G19G 2G11G 6
  22185170.688     1562970.382 6   1176188.59621        15.750           1.313
  20978399.484   -16509361.195 7 -12864418.23123        26.250           2.594
  24246843.852     1371952.029 6   1069056.66021        12.000           0.344
  21912552.664   -14304599.630 6 -11006412.59621        19.500           1.438
 91  6  6 19 11 45.0000000  0  4G19G 2G11G 6
  22190911.984     1593143.955 6   1199700.42221        15.750           1.313
  20976662.633   -16518489.121 7 -12871530.89723        26.000           2.500
  24254531.883     1412360.574 5   1100543.80321        11.750           0.469
  21907449.859   -14331415.426 7 -11027308.01221        20.000           1.438
 91  6  6 19 12  0.0000000  0  4G19G 2G11G 6
  22196668.469     1623382.467 6   1223262.85521        15.250           1.313
  20974938.422   -16527546.937 7 -12878588.93723        26.000           2.594
  24262243.789     1452868.221 5   1132108.18321        11.500           0.375
  21902352.867   -14358201.431 7 -11048180.22021        20.000           1.375
 91  6  6 19 12 15.0000000  0  4G19G 2G11G 6
  22202431.570     1653683.069 6   1246873.66021        15.750           1.344
  20973228.031   -16536537.362 7 -12885594.45523        26.250           2.688
  24269970.031     1493471.995 5   1163747.44321        11.500           0.438
  21897260.344   -14384960.377 7 -11069031.33721        20.000           1.469
 91  6  6 19 12 30.0000000  0  4G19G 2G11G 6
  22208211.813     1684046.988 6   1270533.81021        14.750           1.438
  20971529.914   -16545459.487 7 -12892546.76023        26.000           2.594
  24277715.648     1534172.717 6   1195462.25421        12.000           0.375
  21892173.875   -14411691.031 6 -11089860.41821        19.500           1.438
 91  6  6 19 12 45.0000000  0  4G19G 2G11G 6
  22213999.617     1714474.137 6   1294243.22621        15.500           1.281
  20969845.195   -16554313.656 7 -12899446.11123        26.250           2.656
  24285478.680     1574969.786 5   1227252.14121        11.500           0.250
  21887093.180   -14438393.268 6 -11110667.35522        19.750           1.500
 91  6  6 19 13  0.0000000  0  4G19G 2G11G 6
  22219805.125     1744962.860 6   1318000.62621        15.000           1.250
  20968172.438   -16563101.497 7 -12906293.77123        26.250           2.656
  24293259.164     1615861.246 5   1259115.58821        11.250           0.406
  21882015.016   -14465068.689 6 -11131453.39121        19.500           1.438
 91  6  6 19 13 15.0000000  0  4G19G 2G11G 6
  22225616.445     1775515.061 6   1341807.47721        15.500           1.281
  20966513.102   -16571821.076 7 -12913088.24723        26.250           2.625
  24301059.461     1656848.731 5   1291053.84721        11.250           0.344
  21876947.531   -14491715.197 6 -11152216.89822        19.750           1.563
 91  6  6 19 13 30.0000000  0  4G19G 2G11G 6
  22231442.672     1806130.118 6   1365663.31721        15.500           1.281
  20964867.758   -16580473.073 7 -12919830.05723        26.500           2.688
  24308877.555     1697931.282 5   1323066.20321        11.000           0.375
  21871880.500   -14518333.069 6 -11172958.09321        19.500           1.469
 91  6  6 19 13 45.0000000  0  4G19G 2G11G 6
  22237278.836     1836808.425 6   1389568.43421        15.250           1.250
  20963233.813   -16589057.073 7 -12926518.88723        26.500           2.656
  24316710.797     1739109.028 5   1355152.71921        11.250           0.406
  21866819.227   -14544921.688 6 -11193676.49222        19.750           1.531
 91  6  6 19 14  0.0000000  0  4G19G 2G11G 6
  22243130.633     1867548.723 6   1413521.86621        14.750           1.313
  20961612.563   -16597574.264 7 -12933155.66023        26.500           2.656
  24324568.219     1780380.236 5   1387312.06821        11.750           0.406
  21861765.500   -14571482.443 7 -11214373.17622        20.250           1.594
 91  6  6 19 14 15.0000000  0  4G19G 2G11G 6
  22248991.320     1898350.623 6   1437523.29021        15.500           1.375
  20960004.031   -16606025.270 7 -12939740.85223        26.500           2.531
  24332437.617     1821744.184 5   1419543.69621        11.750           0.438
  21856718.438   -14598015.412 7 -11235048.21221        20.500           1.438
 91  6  6 19 14 30.0000000  0  4G19G 2G11G 6
  22254865.758     1929215.410 6   1461573.72421        14.750           1.250
  20958408.820   -16614408.681 7 -12946273.37923        26.250           2.719
  24340329.281     1863202.089 6   1451848.52321        12.000           0.406
  21851673.742   -14624519.143 7 -11255700.46122        21.000           1.500
 91  6  6 19 14 45.0000000  0  4G19G 2G11G 6
  22260750.359     1960146.048 6   1485675.46321        15.500           1.250
  20956827.641   -16622721.642 7 -12952751.00623        26.750           2.719
  24348236.258     1904756.369 5   1484228.45421        11.000           0.375
  21846636.883   -14650990.649 7 -11276327.60122        21.000           1.531
 91  6  6 19 15  0.0000000  0  4G19G 2G11G 6
  22266649.688     1991141.798 6   1509827.94521        14.500           1.219
  20955258.633   -16630964.829 7 -12959174.26123        27.000           2.688
  24356158.695     1946405.964 5   1516682.65021        10.750           0.438
  21841605.031   -14677430.270 7 -11296929.89122        21.250           1.656
 91  6  6 19 15 15.0000000  0  4G19G 2G11G 6
  22272557.516     2022200.710 6   1534029.64621        14.750           1.250
  20953703.164   -16639140.420 7 -12965544.84823        26.500           2.656
  24364108.008     1988148.667 5   1549209.38221        11.250           0.406
  21836581.336   -14703839.999 7 -11317508.89122        21.250           1.531
 91  6  6 19 15 30.0000000  0  4G19G 2G11G 6
  22278482.633     2053321.710 6   1558279.71421        14.250           1.281
  20952159.000   -16647249.623 7 -12971863.70423        26.750           2.688
  24372062.531     2029982.831 5   1581807.40521        11.250           0.281
  21831560.172   -14730220.850 7 -11338065.39322        21.250           1.688
 91  6  6 19 15 45.0000000  0  4G19G 2G11G 6
  22284412.938     2084502.367 6   1582576.28221        15.000           1.375
  20950628.344   -16655294.842 7 -12978132.70323        27.250           2.656
  24380040.672     2071905.773 5   1614474.60021        10.500           0.344
  21826543.922   -14756574.915 7 -11358601.02222        21.000           1.656
 91  6  6 19 16  0.0000000  0  4G19G 2G11G 6
  22290361.086     2115745.607 6   1606921.60921        14.500           1.281
  20949109.875   -16663273.065 7 -12984349.49623        27.250           2.594
  24388041.609     2113920.185 5   1647213.07721        10.500           0.313
  21821535.531   -14782899.003 7 -11379113.29422        21.250           1.688
 91  6  6 19 16 15.0000000  0  4G19G 2G11G 6
  22296317.086     2147049.655 6   1631314.32321        15.250           1.219
  20947605.617   -16671186.207 7 -12990515.58023        27.500           2.719
  24396048.125     2156023.987 5   1680021.18921        10.750           0.406
  21816530.227   -14809194.837 7 -11399603.55022        20.750           1.625
 91  6  6 19 16 30.0000000  0  4G19G 2G11G 6
  22302287.016     2178414.349 6   1655754.29221        14.500           1.313
  20946111.625   -16679034.504 8 -12996631.13223        28.000           2.656
  24404077.180     2198216.685 5   1712898.57421        10.500           0.438
  21811531.023   -14835462.225 7 -11420071.63822        20.500           1.594
 91  6  6 19 16 45.0000000  0  4G19G 2G11G 6
  22308265.500     2209842.082 6   1680243.37321        15.000           1.188
  20944631.695   -16686815.303 8 -13002694.09323        28.250           2.656
  24412127.359     2240500.379 5   1745846.87321        10.750           0.344
  21806539.719   -14861698.717 7 -11440515.65322        20.500           1.656
 91  6  6 19 17  0.0000000  0  4G19G 2G11G 6
  22314260.859     2241331.552 6   1704780.56421        14.500           1.219
  20943163.406   -16694530.180 8 -13008705.68723        28.250           2.594
  24420189.242     2282873.414 5   1778864.78321        10.500           0.406
  21801551.523   -14887905.435 7 -11460936.46322        20.750           1.750
 91  6  6 19 17 15.0000000  0  4G19G 2G11G 6
  22320263.141     2272884.235 6   1729367.02021        15.250           1.188
  20941707.680   -16702177.684 7 -13014664.77823        27.750           2.625
  24428270.484     2325336.854 5   1811953.14221        10.500           0.219
  21796571.852   -14914080.843 7 -11481332.87322        21.000           1.594
 91  6  6 19 17 30.0000000  0  4G19G 2G11G 6
  22326280.320     2304495.283 6   1753998.94821        14.250           1.250
  20940264.773   -16709762.619 7 -13020575.11923        27.750           2.563
  24436367.023     2367885.689 5   1845108.05321        11.000           0.344
  21791595.508   -14940229.366 7 -11501708.34022        21.000           1.656
 91  6  6 19 17 45.0000000  0  4G19G 2G11G 6
  22332305.789     2336168.088 6   1778679.00121        15.000           1.250
  20938833.586   -16717281.703 7 -13026434.14623        27.500           2.688
  24444479.039     2410522.860 5   1878331.75821        10.500           0.344
  21786626.469   -14966347.614 7 -11522060.21122        21.500           1.656
 91  6  6 19 18  0.0000000  0  4G19G 2G11G 6
  22338345.094     2367902.584 6   1803407.12221        14.750           1.188
  20937415.422   -16724735.059 7 -13032241.95123        27.500           2.594
  24452609.078     2453247.922 5   1911623.97721        11.000           0.344
  21781662.648   -14992435.553 7 -11542388.47122        21.250           1.625
 91  6  6 19 18 15.0000000  0  4G19G 2G11G 6
  22344394.805     2399697.805 6   1828182.56921        15.000           1.125
  20936008.055   -16732123.846 7 -13037999.44923        27.250           2.563
  24460758.500     2496059.630 5   1944983.74121        11.500           0.281
  21776704.898   -15018493.836 7 -11562693.61922        21.500           1.688
 91  6  6 19 18 30.0000000  0  4G19G 2G11G 6
  22350459.383     2431556.336 6   1853007.34721        14.750           1.219
  20934616.305   -16739445.427 7 -13043704.57823        27.250           2.563
  24468921.297     2538960.251 5   1978412.73821        11.750           0.125
  21771750.969   -15044519.725 7 -11582973.52322        21.750           1.719
 91  6  6 19 18 45.0000000  0  4G19G 2G11G 6
  22356532.063     2463479.325 6   1877882.35021        15.000           1.094
  20933235.305   -16746698.488 7 -13049356.31423        27.250           2.594
  24477101.961     2581950.737 5   2011911.78521        11.750           0.250
  21766803.836   -15070511.928 7 -11603227.18322        22.000           1.656
 91  6  6 19 19  0.0000000  0  4G19G 2G11G 6
  22362621.133     2495461.718 6   1902803.64321        14.000           1.156
  20931867.359   -16753888.374 7 -13054958.82323        27.250           2.563
  24485300.992     2625025.402 5   2045476.41621        11.500           0.281
  21761863.758   -15096475.370 7 -11623458.41722        22.500           1.719
 91  6  6 19 19 15.0000000  0  4G19G 2G11G 6
  22368715.836     2527506.724 6   1927773.72721        15.000           1.094
  20930511.984   -16761011.939 7 -13060509.65623        27.000           2.625
  24493510.172     2668187.117 6   2079108.90521        12.000           0.281
  21756930.531   -15122406.681 7 -11643664.63522        22.500           1.656
 91  6  6 19 19 30.0000000  0  4G19G 2G11G 6
  22374828.898     2559612.939 6   1952791.50521        14.000           1.094
  20929167.828   -16768070.298 7 -13066009.67723        27.250           2.625
  24501739.664     2711434.358 6   2112808.02021        12.000           0.375
  21752000.969   -15148306.884 7 -11663846.60022        22.500           1.719
 91  6  6 19 19 45.0000000  0  4G19G 2G11G 6
  22380947.344     2591781.124 6   1977857.57021        15.000           1.094
  20927838.477   -16775062.860 7 -13071458.42923        27.250           2.625
  24509986.313     2754767.403 5   2146573.97821        11.250           0.344
  21747076.828   -15174175.130 7 -11684003.66922        22.000           1.625
 91  6  6 19 20  0.0000000  0  4G19G 2G11G 6
  22387083.609     2624008.442 6   2002969.71021        14.000           1.031
  20926520.094   -16781992.739 7 -13076858.33423        27.250           2.625
  24518251.406     2798183.003 6   2180404.29321        12.250           0.313
  21742159.281   -15200014.285 7 -11704138.06422        22.000           1.625
 91  6  6 19 20 15.0000000  0  4G19G 2G11G 6
  22393224.039     2656298.286 6   2028130.57921        15.000           0.969
  20925213.156   -16788856.538 7 -13082206.74923        27.500           2.594
  24526526.898     2841684.402 5   2214301.45221        11.750           0.344
  21737249.477   -15225820.590 7 -11724246.87022        21.750           1.688
 91  6  6 19 20 30.0000000  0  4G19G 2G11G 6
  22399383.984     2688647.450 6   2053337.65821        14.250           0.969
  20923919.406   -16795657.528 7 -13087506.21723        27.250           2.563
  24534821.500     2885267.973 6   2248262.62521        12.250           0.375
  21732343.867   -15251597.135 7 -11744332.48022        21.250           1.625
 91  6  6 19 20 45.0000000  0  4G19G 2G11G 6
  22405548.297     2721057.065 6   2078591.84821        15.000           0.938
  20922637.117   -16802394.520 7 -13092755.82223        27.000           2.563
  24543128.828     2928934.496 6   2282288.45021        12.000           0.406
  21727444.016   -15277342.661 7 -11764393.92522        21.250           1.656
 91  6  6 19 21  0.0000000  0  4G19G 2G11G 6
  22411729.281     2753526.822 6   2103892.90521        14.750           1.094
  20921367.172   -16809067.837 7 -13097955.80623        27.250           2.500
  24551454.023     2972683.403 5   2316378.47321        11.250           0.406
  21722552.906   -15303057.089 7 -11784431.13222        21.750           1.656
 91  6  6 19 21 15.0000000  0  4G19G 2G11G 6
  22417916.930     2786058.021 6   2129241.83921        14.750           1.125
  20920108.945   -16815676.323 7 -13103105.27223        27.250           2.656
  24559798.188     3016515.615 5   2350533.39321        11.000           0.406
  21717665.258   -15328739.041 7 -11804443.03322        21.500           1.656
 91  6  6 19 21 30.0000000  0  4G19G 2G11G 6
  22424123.945     2818652.678 6   2154640.22521        13.750           1.156
  20918864.844   -16822218.006 7 -13108202.68323        27.750           2.500
  24568152.844     3060432.775 5   2384754.50921        10.250           0.406
  21712783.938   -15354386.301 7 -11824427.90522        21.750           1.688
 91  6  6 19 21 45.0000000  0  4G19G 2G11G 6
  22430334.625     2851308.991 6   2180086.64621        14.750           1.063
  20917632.609   -16828694.775 7 -13113249.51323        27.750           2.688
  24576529.680     3104432.636 5   2419040.09121        10.500           0.344
  21707910.266   -15380000.671 7 -11844387.14522        21.250           1.750
 91  6  6 19 22  0.0000000  0  4G19G 2G11G 6
  22436564.625     2884027.781 6   2205581.75421        13.500           1.094
  20916413.383   -16835105.802 8 -13118245.11423        28.000           2.625
  24584916.969     3148515.801 5   2453390.56821        10.250           0.313
  21703041.680   -15405580.919 7 -11864319.79622        21.500           1.781
 91  6  6 19 22 15.0000000  0  4G19G 2G11G 6
  22442797.016     2916804.516 6   2231122.01321        14.250           1.031
  20915203.516   -16841455.359 7 -13123192.81723        27.500           2.656
  24593318.305     3192677.628 5   2487802.35021         9.750           0.406
  21698180.633   -15431131.430 7 -11884229.27822        21.500           1.688
 91  6  6 19 22 30.0000000  0  4G19G 2G11G 6
  22449048.555     2949644.759 6   2256711.75721        13.250           0.875
  20914009.461   -16847737.917 8 -13128088.31423        28.000           2.625
  24601740.469     3236923.268 5   2522279.42821         9.500           0.438
  21693324.156   -15456646.294 7 -11904110.98122        21.500           1.688
 91  6  6 19 22 45.0000000  0  4G19G 2G11G 6
  22455307.086     2982546.085 6   2282349.10221        14.000           0.969
  20912825.266   -16853956.296 7 -13132933.80323        27.750           2.719
  24610174.813     3281249.790 5   2556819.53621         9.250           0.438
  21688475.914   -15482127.852 7 -11923966.74022        21.250           1.656
 91  6  6 19 23  0.0000000  0  4G19G 2G11G 6
  22461579.383     3015505.035 6   2308031.34621        13.500           0.906
  20911655.414   -16860113.899 8 -13137731.93423        28.250           2.563
  24618625.992     3325653.497 5   2591419.79221         9.000           0.438
  21683632.938   -15507579.518 7 -11943799.20222        21.500           1.656
 91  6  6 19 23 15.0000000  0  4G19G 2G11G 6
  22467863.258     3048526.649 6   2333762.41221        14.000           0.969
  20910494.898   -16866205.538 8 -13142478.66323        28.000           2.594
  24627091.758     3370139.148 5   2626083.87721         9.500           0.438
  21678796.984   -15532995.877 7 -11963604.15422        21.250           1.625
 91  6  6 19 23 30.0000000  0  4G19G 2G11G 6
  22474159.945     3081609.296 6   2359541.04421        13.250           1.031
  20909348.031   -16872233.275 8 -13147175.60223        28.250           2.594
  24635567.258     3414704.529 5   2660810.10821         9.000           0.344
  21673966.219   -15558378.608 7 -11983382.90122        21.250           1.656
 91  6  6 19 23 45.0000000  0  4G19G 2G11G 6
  22480465.023     3114750.507 6   2385365.30921        13.750           1.000
  20908212.531   -16878199.536 7 -13151824.63222        27.750           2.438
  24644065.945     3459346.897 5   2695596.31821         9.250           0.469
  21669140.016   -15583730.026 7 -12003137.25022        21.250           1.563
 91  6  6 19 24  0.0000000  0  4G19G 2G11G 6
  22486784.070     3147951.441 6   2411236.10721        13.250           1.000
  20907087.977   -16884103.026 7 -13156424.75223        27.250           2.750
  24652579.000     3504067.179 5   2730443.23421        10.000           0.344
  21664323.148   -15609048.525 7 -12022865.94122        21.000           1.625
 91  6  6 19 24 15.0000000  0  4G19G 2G11G 6
  22493112.156     3181209.510 6   2437151.42921        13.750           1.031
  20905976.500   -16889946.294 7 -13160977.94723        27.500           2.563
  24661099.563     3548862.449 5   2765348.60221        10.000           0.281
  21659510.906   -15634336.462 7 -12042570.82322        21.250           1.625
 91  6  6 19 24 30.0000000  0  4G19G 2G11G 6
  22499455.070     3214529.415 6   2463114.93121        13.250           1.031
  20904877.078   -16895724.670 7 -13165480.57523        27.000           2.625
  24669642.578     3593737.185 5   2800315.90621        10.500           0.313
  21654706.945   -15659588.959 7 -12062248.09022        21.500           1.531
 91  6  6 19 24 45.0000000  0  4G19G 2G11G 6
  22505804.367     3247905.021 6   2489121.84121        13.750           0.969
  20903787.945   -16901444.486 7 -13169937.57323        26.750           2.719
  24678192.281     3638684.789 5   2835339.99621        11.000           0.313
  21649907.625   -15684811.970 7 -12081902.37622        21.500           1.594
 91  6  6 19 25  0.0000000  0  4G19G 2G11G 6
  22512168.438     3281337.625 6   2515173.15521        13.250           1.000
  20902711.391   -16907104.329 7 -13174347.83723        26.750           2.531
  24686759.680     3683706.306 5   2870421.62821        11.000           0.250
  21645112.906   -15710003.940 7 -12101532.47722        21.500           1.688
 91  6  6 19 25 15.0000000  0  4G19G 2G11G 6
  22518541.398     3314830.765 6   2541271.65121        13.750           1.031
  20901645.430   -16912700.665 7 -13178708.61223        26.750           2.500
  24695343.297     3728805.029 5   2905563.43721        11.250           0.188
  21640326.195   -15735161.179 7 -12121135.51122        21.500           1.813
 91  6  6 19 25 30.0000000  0  4G19G 2G11G 6
  22524926.453     3348385.795 6   2567418.37121        13.000           1.094
  20900594.023   -16918232.141 7 -13183018.85323        27.000           2.531
  24703939.508     3773981.873 5   2940766.18021        11.500           0.219
  21635546.414   -15760282.144 7 -12140710.28222        21.750           1.688
 91  6  6 19 25 45.0000000  0  4G19G 2G11G 6
  22531321.406     3381996.749 6   2593608.66021        13.750           1.094
  20899552.336   -16923704.818 7 -13187283.27022        26.750           2.438
  24712551.867     3819230.409 5   2976024.73221        11.750           0.250
  21630770.914   -15785372.614 7 -12160261.28522        21.750           1.656
 91  6  6 19 26  0.0000000  0  3G19G 2G 6
  22537728.586     3415665.387 6   2619843.90521        14.000           1.000
  20898522.367   -16929117.038 7 -13191500.58523        27.000           2.500
  21626003.313   -15810430.563 7 -12179786.95022        21.750           1.781
 91  6  6 19 26 15.0000000  0  3G19G 2G 6
  22544147.859     3449391.887 6   2646124.23521        13.750           1.031
  20897503.352   -16934468.715 7 -13195670.71623        27.250           2.531
  21621241.031   -15835455.679 7 -12199287.03122        21.500           1.813
 91  6  6 19 26 30.0000000  0  3G19G 2G 6
  22550577.336     3483172.641 6   2672446.83821        13.500           1.063
  20896496.422   -16939763.328 7 -13199796.38822        27.250           2.406
  21616484.422   -15860451.303 7 -12218764.13322        21.500           1.781
 91  6  6 19 26 45.0000000  0  3G19G 2G 6
  22557013.617     3517011.722 6   2698814.89321        13.750           1.094
  20895500.984   -16944996.820 7 -13203874.42923        27.000           2.563
  21611733.930   -15885413.163 7 -12238214.92222        21.750           1.750
 91  6  6 19 27  0.0000000  0  3G19G 2G 6
  22563467.594     3550912.912 6   2725231.34921        13.250           1.031
  20894517.852   -16950165.591 7 -13207902.04223        27.250           2.594
  21606989.336   -15910337.180 7 -12257636.22622        21.500           1.813
 91  6  6 19 27 15.0000000  0  3G19G 2G 6
  22569927.109     3584873.446 6   2751694.04021        13.500           1.031
  20893545.234   -16955272.231 7 -13211881.24123        27.250           2.594
  21602253.063   -15935225.947 7 -12277030.06322        21.250           1.813
 91  6  6 19 27 30.0000000  0  3G19G 2G 6
  22576404.836     3618893.613 6   2778203.19821        13.250           1.063
  20892585.297   -16960316.682 7 -13215811.98223        26.750           2.563
  21597524.594   -15960079.107 7 -12296396.15522        21.500           1.875
 91  6  6 19 27 45.0000000  0  3G19G 2G 6
  22582886.992     3652973.442 6   2804758.85521        13.750           1.125
  20891636.234   -16965299.023 7 -13219694.32323        26.750           2.688
  21592803.250   -15984896.387 7 -12315734.29022        21.500           1.844
 91  6  6 19 28  0.0000000  0  3G19G 2G 6
  22589384.625     3687108.525 6   2831357.56321        13.250           1.031
  20890699.609   -16970223.495 7 -13223531.57423        27.000           2.594
  21588086.992   -16009682.007 7 -12335047.75022        21.750           1.750
 91  6  6 19 28 15.0000000  0  3G19G 2G 6
  22595890.180     3721302.720 6   2858002.32921        13.750           0.938
  20889774.219   -16975086.360 7 -13227320.81523        27.000           2.656
  21583376.492   -16034431.859 7 -12354333.34522        21.750           1.781
 91  6  6 19 28 30.0000000  0  3G19G 2G 6
  22602407.852     3755556.359 6   2884693.40921        13.250           1.000
  20888860.289   -16979887.524 7 -13231061.98023        27.000           2.563
  21578673.500   -16059145.480 7 -12373590.70322        22.250           1.688
 91  6  6 19 28 45.0000000  0  3G19G 2G 6
  22608937.008     3789866.670 6   2911428.66221        13.750           1.031
  20887959.492   -16984629.467 7 -13234756.99523        27.000           2.625
  21573976.477   -16083825.300 7 -12392821.72422        22.500           1.719
 91  6  6 19 29  0.0000000  0  3G19G 2G 6
  22615478.500     3824236.028 6   2938209.91621        13.500           1.031
  20887067.297   -16989310.094 7 -13238404.23523        26.500           2.688
  21569287.445   -16108468.662 7 -12412024.33722        22.750           1.750
 91  6  6 19 29 15.0000000  0  3G19G 2G 6
  22622027.289     3858662.296 6   2965035.52321        13.750           1.031
  20886188.984   -16993931.698 7 -13242005.48323        26.750           2.531
  21564604.188   -16133077.685 7 -12431200.19222        23.000           1.781
 91  6  6 19 29 30.0000000  0  3G19G 2G 6
  22628592.828     3893145.405 6   2991905.42621        13.500           0.969
  20885320.547   -16998493.921 7 -13245560.46023        26.500           2.563
  21559928.008   -16157651.914 7 -12450348.93422        23.250           1.688
 91  6  6 19 29 45.0000000  0  3G19G 2G 6
  22635164.055     3927686.098 6   3018820.18321        14.000           0.969
  20884463.648   -17002996.174 7 -13249068.70823        26.500           2.563
  21555259.148   -16182190.534 7 -12469469.93222        23.250           1.750
 91  6  6 19 30  0.0000000  0  3G19G 2G 6
  22641749.656     3962287.239 6   3045782.05521        13.500           0.969
  20883618.570   -17007435.576 7 -13252527.97923        26.500           2.500
  21550597.180   -16206690.492 7 -12488560.80022        23.000           1.938
 91  6  6 19 30 15.0000000  0  3G19G 2G 6
  22648342.969     3996944.080 6   3072787.32221        13.750           0.969
  20882783.844   -17011816.842 7 -13255941.95423        26.750           2.531
  21545942.305   -16231156.266 7 -12507625.03522        23.000           2.000
 91  6  6 19 30 30.0000000  0  3G19G 2G 6
  22654950.180     4031658.371 6   3099837.36321        13.500           0.844
  20881962.219   -17016138.571 7 -13259309.53223        27.000           2.656
  21541292.688   -16255586.002 7 -12526661.18722        22.750           1.969
 91  6  6 19 30 45.0000000  0  3G19G 2G 6
  22661564.195     4066429.705 6   3126931.85321        13.500           0.906
  20881150.422   -17020401.157 7 -13262631.02122        26.750           2.469
  21536649.195   -16279979.894 7 -12545669.40722        22.250           1.906
 91  6  6 19 31  0.0000000  0  3G19G 2G 6
  22668193.922     4101259.036 6   3154071.52621        13.000           0.906
  20880352.195   -17024603.552 7 -13265905.60923        27.250           2.594
  21532014.648   -16304336.651 7 -12564648.68322        22.500           1.938
 91  6  6 19 31 15.0000000  0  3G19G 2G 6
  22674831.836     4136146.360 6   3181256.39121        13.500           0.938
  20879563.508   -17028745.823 7 -13269133.34623        27.000           2.563
  21527386.109   -16328656.067 7 -12583598.86422        22.500           1.969
 91  6  6 19 31 30.0000000  0  3G19G 2G 6
  22681485.500     4171092.651 6   3208487.21421        12.750           0.906
  20878787.102   -17032826.729 7 -13272313.26823        26.750           2.531
  21522764.828   -16352936.883 7 -12602518.97322        22.500           1.938
 91  6  6 19 31 45.0000000  0  3G19G 2G 6
  22688144.063     4206096.048 6   3235762.53121        13.750           0.875
  20878022.195   -17036848.272 7 -13275446.93623        26.500           2.656
  21518152.188   -16377180.720 7 -12621410.27122        22.250           1.969
 91  6  6 19 32  0.0000000  0  3G19G 2G 6
  22694818.070     4241153.246 6   3263079.77321        12.500           0.906
  20877268.031   -17040813.754 7 -13278536.91923        26.500           2.531
  21513546.195   -16401390.635 7 -12640275.13122        22.500           1.938
 91  6  6 19 32 15.0000000  0  3G19G 2G 6
  22701495.156     4276265.233 6   3290439.69421        13.250           0.844
  20876523.133   -17044722.459 7 -13281582.65823        26.500           2.500
  21508946.266   -16425565.678 7 -12659112.82122        22.500           2.000
 91  6  6 19 32 30.0000000  0  3G19G 2G 6
  22708190.867     4311431.604 6   3317841.99521        12.750           0.844
  20875790.055   -17048574.718 7 -13284584.41722        26.250           2.469
  21504351.813   -16449705.802 7 -12677923.30422        22.250           1.906
 91  6  6 19 32 45.0000000  0  3G19G 2G 6
  22714891.219     4346655.230 6   3345288.91821        13.250           0.969
  20875067.461   -17052367.671 7 -13287539.95923        26.000           2.625
  21499765.461   -16473807.998 7 -12696704.23322        22.000           1.906
 91  6  6 19 33  0.0000000  0  3G19G 2G 6
  22721608.398     4381934.142 6   3372778.91621        13.000           0.906
  20874357.820   -17056103.329 7 -13290450.86323        26.250           2.500
  21495186.586   -16497873.971 7 -12715456.93122        22.250           1.906
 91  6  6 19 33 15.0000000  0  3G19G 2G 6
  22728330.109     4417274.036 6   3400316.43821        13.750           0.875
  20873658.602   -17059775.983 7 -13293312.66823        26.250           2.500
  21490614.602   -16521897.753 7 -12734176.75722        22.250           1.844
 91  6  6 19 33 30.0000000  0  3G19G 2G 6
  22735067.852     4452675.900 6   3427902.24521        13.250           0.906
  20872971.000   -17063384.694 7 -13296124.64723        26.000           2.594
  21486051.539   -16545878.182 7 -12752862.79922        22.000           1.906
 91  6  6 19 33 45.0000000  0  3G19G 2G 6
  22741814.828     4488134.674 6   3455532.39521        13.250           1.000
  20872296.008   -17066934.485 7 -13298890.71923        26.250           2.688
  21481495.180   -16569820.011 7 -12771518.76422        21.500           1.906
 91  6  6 19 34  0.0000000  0  3G19G 2G 6
  22748576.188     4523652.165 6   3483208.29821        12.500           0.969
  20871631.883   -17070423.434 7 -13301609.37723        26.250           2.656
  21476946.930   -16593721.290 7 -12790143.12922        21.500           1.813
 91  6  6 19 34 15.0000000  0  3G19G 2G 6
  22755343.180     4559224.226 6   3510926.71921        13.500           0.844
  20870980.344   -17073855.913 7 -13304284.03223        26.250           2.563
  21472405.398   -16617585.791 7 -12808738.83722        21.250           1.906
 91  6  6 19 34 30.0000000  0  3G19G 2G 6
  22762127.414     4594855.362 6   3538691.18321        12.250           0.875
  20870338.156   -17077227.173 7 -13306910.98723        26.750           2.563
  21467872.750   -16641408.780 7 -12827302.19622        21.000           1.938
 91  6  6 19 34 45.0000000  0  3G19G 2G 6
  22768913.547     4630545.670 6   3566501.74621        13.250           0.906
  20869707.547   -17080537.471 7 -13309490.43923        26.750           2.594
  21463347.477   -16665190.075 7 -12845833.06822        20.750           1.969
 91  6  6 19 35  0.0000000  0  3G19G 2G 6
  22775721.156     4666296.368 6   3594359.37021        12.500           0.844
  20869090.141   -17083785.503 7 -13312021.36923        27.000           2.563
  21458828.469   -16688928.140 7 -12864330.24922        20.750           1.844
 91  6  6 19 35 15.0000000  0  4G19G 2G15G 6
  22782531.828     4702104.966 6   3622262.12221        13.250           0.906
  20868482.375   -17086973.889 7 -13314505.82323        27.000           2.656
  24429822.594      -26183.765 5                         7.500
  21454318.328   -16712625.260 7 -12882795.53322        20.500           1.969
 91  6  6 19 35 30.0000000  0  4G19G 2G15G 6
  22789356.492     4737962.183 6   3650202.73921        13.000           0.813
  20867886.313   -17090111.715 7 -13316950.88123        26.750           2.625
  24424856.258      -52291.474 5                         8.000
  21449816.945   -16736290.301 7 -12901235.82022        20.750           1.844
 91  6  6 19 35 45.0000000  0  4G19G 2G15G 6
  22796188.031     4773879.223 6   3678189.98821        12.750           0.844
  20867301.367   -17093187.871 7 -13319347.88323        27.000           2.656
  24419901.609      -78312.506 5        -0.43031         7.750           0.281
  21445321.305   -16759911.868 7 -12919642.22722        21.000           2.031
 91  6  6 19 36  0.0000000  0  4G19G 2G15G 6
  22803036.125     4809856.601 6   3706224.24021        12.250           0.813
  20866727.109   -17096202.044 7 -13321696.58523        27.000           2.594
  24414967.875     -104246.228 5    -20208.48121         8.000           0.344
  21440834.453   -16783489.428 7 -12938014.34722        21.250           1.875
 91  6  6 19 36 15.0000000  0  4G19G 2G15G 6
  22809893.289     4845894.253 6   3734305.46321        12.750           0.844
  20866165.117   -17099154.097 7 -13323996.88523        27.000           2.688
  24410049.328     -130091.923 5    -40347.96321         7.750           0.313
  21436357.711   -16807022.694 7 -12956351.94622        21.500           1.906
 91  6  6 19 36 30.0000000  0  4G19G 2G15G 6
  22816764.078     4881989.200 6   3762431.32821        12.750           0.844
  20865616.336   -17102046.991 7 -13326251.08923        27.000           2.594
  24405148.008     -155852.338 5    -60420.96221         8.250           0.313
  21431886.727   -16830514.231 7 -12974657.03022        21.500           1.969
 91  6  6 19 36 45.0000000  0  4G19G 2G15G 6
  22823641.414     4918146.575 6   3790605.84621        12.500           0.813
  20865076.836   -17104875.646 7 -13328455.23323        27.000           2.625
  24400263.836     -181521.870 5    -80423.12821         8.500           0.250
  21427426.672   -16853958.806 7 -12992925.51922        21.500           2.031
 91  6  6 19 37  0.0000000  0  4G19G 2G15G 6
  22830535.695     4954366.196 6   3818828.86721        12.250           0.875
  20864551.078   -17107640.322 7 -13330609.52723        27.250           2.594
  24395391.211     -207100.176 5   -100354.23121         8.750           0.281
  21422973.398   -16877356.173 7 -13011157.22322        21.500           1.969
 91  6  6 19 37 15.0000000  0  4G19G 2G15G 6
  22837439.328     4990649.554 6   3847101.54421        12.500           0.781
  20864037.477   -17110339.267 7 -13332712.59923        27.000           2.688
  24390541.398     -232585.490 5   -120212.86421         8.750           0.313
  21418529.531   -16900704.697 7 -13029350.86722        21.250           1.875
 91  6  6 19 37 30.0000000  0  4G19G 2G15G 6
  22844358.422     5026992.487 6   3875420.64821        12.250           0.813
  20863534.688   -17112976.766 7 -13334767.79723        27.000           2.719
  24385716.594     -257981.612 5   -140002.01421         9.250           0.344
  21414095.594   -16924008.406 7 -13047509.59222        21.250           1.906
 91  6  6 19 37 45.0000000  0  4G19G 2G15G 6
  22851283.727     5063396.809 6   3903787.59521        12.750           0.813
  20863045.805   -17115551.057 7 -13336773.74123        27.000           2.563
  24380893.445     -283286.263 5   -159719.86321         8.500           0.375
  21409669.648   -16947265.145 7 -13065631.72122        21.250           1.875
 91  6  6 19 38  0.0000000  0  4G19G 2G15G 6
  22858225.758     5099861.574 5   3932201.63021        11.750           0.750
  20862566.727   -17118063.428 7 -13338731.43823        27.250           2.688
  24376104.828     -308500.159 5   -179366.98421        10.250           0.313
  21405252.875   -16970475.684 7 -13083717.84322        20.750           1.938
 91  6  6 19 38 15.0000000  0  4G19G 2G15G 6
  22865172.586     5136384.221 6   3960660.77021        12.250           0.750
  20862100.820   -17120516.247 7 -13340642.72623        27.250           2.688
  24371320.328     -333625.327 5   -198944.99521        10.000           0.219
  21400842.586   -16993642.236 7 -13101769.69522        21.250           1.875
 91  6  6 19 38 30.0000000  0  4G19G 2G15G 6
  22872135.648     5172965.954 6   3989165.95521        12.000           0.813
  20861644.492   -17122908.295 7 -13342506.66223        27.250           2.625
  24366565.492     -358660.103 5   -218452.58621        10.500           0.250
  21396443.914   -17016763.320 7 -13119786.12122        21.500           1.750
 91  6  6 19 38 45.0000000  0  4G19G 2G15G 6
  22879106.664     5209607.048 6   4017717.39421        12.000           0.813
  20861200.086   -17125239.446 7 -13344323.14623        27.250           2.594
  24361808.000     -383604.202 5   -237889.48621         9.750           0.344
  21392054.000   -17039838.581 7 -13137766.83822        21.750           1.750
 91  6  6 19 39  0.0000000  0  4G19G 2G15G 6
  22886092.250     5246306.300 5   4046314.14321        11.250           0.781
  20860770.336   -17127510.539 7 -13346092.83223        26.500           2.688
  24357083.336     -408458.099 5   -257256.11621        10.250           0.219
  21387672.078   -17062868.775 7 -13155712.44122        22.500           1.844
 91  6  6 19 39 15.0000000  0  4G19G 2G15G 6
  22893084.047     5283062.972 5   4074955.64621        11.750           0.719
  20860348.922   -17129722.373 7 -13347816.34923        26.500           2.594
  24352370.797     -433222.172 5   -276552.75921        10.500           0.250
  21383297.438   -17085854.439 7 -13173623.34222        22.750           1.875
 91  6  6 19 39 30.0000000  0  4G19G 2G15G 6
  22900094.133     5319878.604 5   4103643.09121        11.750           0.781
  20859939.047   -17131873.629 7 -13349492.65223        26.250           2.500
  24347666.461     -457894.630 5   -295777.99121         9.250           0.188
  21378931.766   -17108793.655 7 -13191498.04722        23.250           1.813
 91  6  6 19 39 45.0000000  0  4G19G 2G15G 6
  22907108.953     5356753.056 5   4132376.37021        11.750           0.813
  20859540.813   -17133964.504 7 -13351121.90523        26.000           2.563
  24342996.695     -482475.085 5   -314931.54521         9.750           0.188
  21374575.734   -17131686.550 7 -13209336.66422        23.250           1.688
 91  6  6 19 40  0.0000000  0  4G19G 2G15G 6
  22914137.438     5393686.519 5   4161155.61621        11.500           0.781
  20859154.336   -17135994.810 7 -13352703.96823        26.000           2.563
  24338334.844     -506963.192 5   -334013.13621         9.250           0.250
  21370228.008   -17154532.675 7 -13227138.83322        23.250           1.844
 91  6  6 19 40 15.0000000  0  5G19G 2G15G13G 6
  22921175.172     5430680.355 6   4189981.92121        12.500           0.813
  20858780.016   -17137962.938 7 -13354237.57023        25.750           2.594
  24333698.031     -531357.079 5   -353021.33421         9.500           0.281
  24255068.836      -60454.720 4                         6.750
  21365889.445   -17177330.270 7 -13244903.18722        23.250           1.969
 91  6  6 19 40 30.0000000  0  5G19G 2G15G13G 6
  22928229.836     5467728.389 5   4218850.45421        11.750           0.813
  20858415.602   -17139875.224 7 -13355727.66623        26.000           2.594
  24329072.195     -555662.326 5   -371960.44121        10.250           0.094
  24243568.680     -120889.467 4                         7.000
  21361559.164   -17200085.135 7 -13262634.24622        23.000           1.844
 91  6  6 19 40 45.0000000  0  5G19G 2G15G13G 6
  22935286.305     5504834.159 6   4247763.97521        12.000           0.719
  20858063.406   -17141728.222 7 -13357171.56123        25.750           2.625
  24324450.984     -579875.206 5   -390827.59621         8.750           0.313
  24232072.281     -181301.375 4                         6.750
  21357236.695   -17222793.836 7 -13280329.33222        23.500           1.906
 91  6  6 19 41  0.0000000  0  5G19G 2G15G13G 6
  22942360.289     5541996.951 5   4276721.92721        11.750           0.719
  20857721.406   -17143522.546 7 -13358569.73623        25.500           2.625
  24319873.688     -603995.964 5   -409622.95421         9.750           0.281
  24220580.055     -241690.584 4                         6.750
  21352925.703   -17245456.447 7 -13297988.50622        23.750           1.969
 91  6  6 19 41 15.0000000  0  5G19G 2G15G13G 6
  22949440.016     5579214.540 6   4305722.57421        12.500           0.688
  20857392.117   -17145260.350 7 -13359923.87023        25.750           2.563
  24315288.797     -628026.544 5   -428348.02321         8.500           0.250
  24209093.266     -302058.770 4                         6.750
  21348622.258   -17268075.053 7 -13315613.38922        24.000           1.938
 91  6  6 19 41 30.0000000  0  5G19G 2G15G13G 6
  22956537.883     5616494.580 6   4334771.89621        12.250           0.781
  20857073.305   -17146934.018 7 -13361228.02323        26.000           2.563
  24310739.047     -651958.971 5   -446996.61821         9.000           0.188
  24197607.938     -362397.775 4                         6.500
  21344326.594   -17290641.695 7 -13333197.78422        23.750           1.969
 91  6  6 19 41 45.0000000  0  5G19G 2G15G13G 6
  22963641.063     5653831.468 6   4363865.51021        12.500           0.750
  20856766.008   -17148549.141 7 -13362486.56423        25.750           2.750
  24306209.703     -675798.433 5   -465572.77021        10.000           0.344
  24186130.359     -422712.773 4                         6.750
  21340041.086   -17313161.719 7 -13350745.85222        24.000           1.938
 91  6  6 19 42  0.0000000  0  5G19G 2G15G13G 6
  22970757.641     5691223.903 6   4393002.39621        12.000           0.719
  20856468.781   -17150107.236 7 -13363700.66423        25.750           2.719
  24301687.313     -699545.780 5   -484077.17121        10.000           0.438
  24174657.445     -483004.895 4        -0.43431         7.000           0.063
  21335765.617   -17335636.284 7 -13368258.49822        24.000           1.969
 91  6  6 19 42 15.0000000  0  5G19G 2G15G13G 6
  22977882.719     5728678.502 6   4422187.73421        12.500           0.719
  20856184.891   -17151601.631 7 -13364865.12723        26.000           2.688
  24297184.422     -723194.219 5   -502504.46921         9.500           0.281
  24163187.328     -543267.020 4    -46957.77021         7.000           0.063
  21331498.078   -17358058.512 7 -13385730.36322        23.750           2.000
 91  6  6 19 42 30.0000000  0  5G19G 2G15G13G 6
  22985022.305     5766191.570 6   4451418.63021        12.000           0.781
  20855912.406   -17153035.994 7 -13365982.81423        26.000           2.656
  24292704.961     -746747.002 5   -520857.23621         9.250           0.313
  24151726.922     -603502.299 4    -93894.15821         6.750           0.094
  21327239.469   -17380431.733 7 -13403164.03822        23.750           2.000
 91  6  6 19 42 45.0000000  0  5G19G 2G15G13G 6
  22992168.914     5803759.923 5   4480692.60421        11.750           0.813
  20855649.586   -17154413.384 7 -13367056.10423        26.250           2.625
  24288238.430     -770206.762 5   -539137.52721         9.250           0.344
  24140267.992     -663713.556 4   -140811.84921         6.750           0.188
  21322993.586   -17402758.929 7 -13420561.85422        24.000           2.000
 91  6  6 19 43  0.0000000  0  5G19G 2G15G13G 6
  22999333.633     5841389.127 5   4510013.99521        11.750           0.750
  20855400.039   -17155728.313 7 -13368080.72523        26.250           2.625
  24283793.188     -793567.722 5   -557340.81921         9.000           0.375
  24128816.508     -723894.668 4   -187706.06021         6.250           0.188
  21318752.867   -17425034.117 7 -13437919.13722        23.750           1.969
 91  6  6 19 43 15.0000000  0  5G19G 2G15G13G 6
  23006502.555     5879079.103 6   4539382.73721        12.000           0.750
  20855161.852   -17156980.853 7 -13369056.73623        26.000           2.656
  24279375.203     -816829.343 5   -575466.70721        10.000           0.375
  24117369.633     -784045.542 3   -234576.68621         6.000           0.031
  21314524.078   -17447257.173 7 -13455235.80722        23.500           1.969
 91  6  6 19 43 30.0000000  0  5G19G 2G15G13G 6
  23013688.164     5916828.800 5   4568798.02221        11.750           0.688
  20854934.555   -17158171.957 7 -13369984.87223        26.000           2.594
  24274956.727     -839992.342 5   -593515.73821         9.500           0.313
  24105929.516     -844166.742 3   -281424.21521         6.000           0.188
  21310305.555   -17469428.961 7 -13472512.52122        24.000           2.000
 91  6  6 19 43 45.0000000  0  5G19G 2G15G13G 6
  23020881.930     5954634.552 5   4598256.98821        11.750           0.688
  20854720.125   -17159305.313 7 -13370868.01123        26.250           2.563
  24270567.070     -863059.943 5   -611490.48221         9.750           0.375
  24094494.766     -904261.381 4   -328251.05421         6.250           0.125
  21306093.945   -17491552.799 7 -13489751.87722        23.500           2.031
 91  6  6 19 44  0.0000000  0  5G19G 2G15G13G 6
  23028091.984     5992496.390 5   4627759.64921        11.000           0.688
  20854514.188   -17160380.877 7 -13371706.11123        26.500           2.688
  24266201.875     -886031.826 5   -629390.58821         9.500           0.375
  24083064.281     -964328.959 4   -375056.81821         6.750           0.156
  21301893.438   -17513628.340 7 -13506953.59422        23.500           2.000
 91  6  6 19 44 15.0000000  0  5G19G 2G15G13G 6
  23035303.664     6030417.336 5   4657308.36821        11.750           0.625
  20854321.586   -17161395.682 7 -13372496.87223        26.250           2.625
  24261850.305     -908904.483 5   -647213.41121         9.500           0.375
  24071641.711    -1024366.092 4   -421838.86621         6.750           0.156
  21297704.492   -17535652.293 7 -13524115.11222        23.500           2.031
 91  6  6 19 44 30.0000000  0  5G19G 2G15G13G 6
  23042534.563     6068399.878 5   4686905.08421        11.250           0.688
  20854139.281   -17162347.174 7 -13373238.29823        26.000           2.750
  24257512.133     -931674.945 5   -664956.55321         9.250           0.469
  24060221.656    -1084369.612 4   -468594.77521         7.000           0.094
  21293522.656   -17557621.822 7 -13541234.22022        23.750           1.938
 91  6  6 19 44 45.0000000  0  5G19G 2G15G13G 6
  23049769.992     6106440.817 5   4716547.31321        11.750           0.656
  20853970.297   -17163238.732 7 -13373933.01923        26.000           2.688
  24253202.625     -954346.338 5   -682622.54221         9.500           0.406
  24048808.664    -1144342.492 4   -515326.77021         7.000           0.094
  21289352.766   -17579539.972 7 -13558313.30022        23.750           2.031
 91  6  6 19 45  0.0000000  0  5G19G 2G15G13G 6
  23057024.336     6144537.881 5   4746233.27721        11.250           0.656
  20853811.250   -17164072.577 7 -13374582.77623        26.000           2.688
  24248909.063     -976920.546 5   -700212.76521         9.000           0.313
  24037401.234    -1204286.439 4   -562036.22121         7.000           0.125
  21285189.773   -17601408.825 7 -13575353.96422        23.750           2.031
 91  6  6 19 45 15.0000000  0  5G19G 2G15G13G 6
  23064280.141     6182694.023 6   4775965.26921        12.000           0.656
  20853664.844   -17164845.656 7 -13375185.17723        26.250           2.563
  24244621.695     -999394.219 5   -717724.66821         8.500           0.344
  24025999.500    -1264198.061 4   -608720.53121         7.000           0.094
  21281037.773   -17623225.157 7 -13592353.70322        23.250           2.000
 91  6  6 19 45 30.0000000  0  5G19G 2G15G13G 6
  23071554.539     6220911.128 5   4805744.75021        11.500           0.625
  20853528.086   -17165556.065 7 -13375738.74423        26.250           2.719
  24240371.375    -1021764.972 5   -735156.39421         9.250           0.406
  24014603.953    -1324075.016 4   -655377.80021         7.000           0.063
  21276898.820   -17644986.652 7 -13609310.71222        23.250           2.063
 91  6  6 19 45 45.0000000  0  5G19G 2G15G13G 6
  23078834.977     6259182.461 5   4835566.51221        11.500           0.625
  20853405.063   -17166210.608 7 -13376248.78723        26.250           2.625
  24236129.477    -1044039.259 5   -752512.94321         8.500           0.281
  24003218.359    -1383923.602 5   -702012.99421         7.500           0.031
  21272765.953   -17666699.799 7 -13626230.04322        23.250           2.063
 91  6  6 19 46  0.0000000  0  5G19G 2G15G13G 6
  23086130.711     6297510.870 5   4865432.74321        11.500           0.531
  20853293.078   -17166806.513 7 -13376713.12723        26.250           2.563
  24231905.430    -1066213.744 5   -769791.70821         8.250           0.469
  23991835.477    -1443740.538 5   -748623.51021         7.500           0.156
  21268643.383   -17688361.443 7 -13643109.24322        23.250           2.219
 91  6  6 19 46 15.0000000  0  5G19G 2G15G13G 6
  23093434.141     6335893.817 5   4895341.46421        11.500           0.625
  20853188.164   -17167346.123 7 -13377133.61123        26.250           2.656
  24227711.125    -1088290.720 5   -786994.48921         8.750           0.375
  23980457.602    -1503528.049 4                         7.250
  21264530.844   -17709973.898 7 -13659950.11722        23.000           2.063
 91  6  6 19 46 30.0000000  0  5G19G 2G15G13G 6
  23100752.656     6374338.721 5   4925298.46521        11.000           0.688
  20853100.344   -17167822.025 7 -13377504.44923        26.500           2.563
  24223530.906    -1110262.333 5   -804115.18721         8.750           0.375
  23969085.391    -1563278.166 4                         7.250
  21260429.641   -17731529.397 7 -13676746.60622        23.250           2.156
 91  6  6 19 46 45.0000000  0  5G19G 2G15G13G 6
  23108076.547     6412841.608 5   4955300.65421        11.250           0.688
  20853019.328   -17168238.189 7 -13377828.73423        26.500           2.688
  24219370.781    -1132132.030 5   -821156.47721         9.000           0.406
  23957724.172    -1622994.356 4                         7.250
  21256337.953   -17753031.626 7 -13693501.58622        22.750           2.188
 91  6  6 19 47  0.0000000  0  5G19G 2G15G13G 6
  23115418.266     6451400.849 5   4985346.75021        10.750           0.563
  20852952.148   -17168596.386 7 -13378107.85123        26.750           2.656
  24215213.758    -1153901.422 5   -838119.61221         8.000           0.406
  23946367.203    -1682677.974 4        -0.32531         7.250           0.063
  21252255.219   -17774482.086 7 -13710216.22522        22.750           2.250
 91  6  6 19 47 15.0000000  0  5G19G 2G15G13G 6
  23122762.367     6490016.119 5   5015436.50621        11.250           0.594
  20852894.625   -17168896.997 7 -13378342.10023        27.000           2.563
  24211095.188    -1175570.387 5   -855004.47621         8.000           0.469
  23935014.648    -1742328.747 5    -46481.41321         7.500           0.094
  21248183.148   -17795880.735 7 -13726890.49822        22.500           2.219
 91  6  6 19 47 30.0000000  0  5G19G 2G15G13G 6
  23130124.234     6528686.643 5   5045569.31621        11.000           0.594
  20852849.766   -17169140.698 7 -13378532.00023        27.250           2.719
  24206994.805    -1197139.232 5   -871811.32221         8.000           0.406
  23923670.391    -1801947.065 4    -92937.18621         7.250           0.094
  21244121.063   -17817228.021 7 -13743524.74022        22.500           2.094
 91  6  6 19 47 45.0000000  0  5G19G 2G15G13G 6
  23137489.063     6567416.049 5   5075748.00321        11.750           0.563
  20852813.672   -17169323.618 7 -13378674.54323        27.000           2.688
  24202920.047    -1218603.895 5   -888536.98921         9.000           0.344
  23912333.008    -1861528.895 4   -139364.55521         7.250           0.094
  21240068.906   -17838519.963 7 -13760115.85822        22.500           2.250
 91  6  6 19 48  0.0000000  0  5G19G 2G15G13G 6
  23144872.766     6606203.379 5   5105971.82621        11.500           0.594
  20852788.867   -17169446.716 7                        27.250
  24198850.828    -1239965.019 5   -905181.99721         8.250           0.469
  23901000.859    -1921074.683 4   -185763.83621         7.000           0.063
  21236029.000   -17859757.260 7 -13776664.39822        22.500           2.313
 91  6  6 19 48 15.0000000  0  5G19G 2G15G13G 6
  23152260.688     6645051.668 5   5136243.15821        11.750           0.625
  20852779.422   -17169507.239 7                        27.000
  24194812.016    -1261219.249 5                         8.500
  23889675.680    -1980580.981 4   -232132.30721         7.000           0.156
  21231998.281   -17880936.794 7                        22.500
 91  6  6 19 48 30.0000000  0  5G19G 2G15G13G 6
  23159670.539     6683955.592 5   5166557.83421        11.000           0.500
  20852779.188   -17169510.253 7                        27.250
  24190780.781    -1282371.419 5                         8.250
  23878361.109    -2040052.548 4   -278473.73721         7.250           0.188
  21227977.500   -17902063.396 7                        22.250
 91  6  6 19 48 45.0000000  0  5G19G 2G15G13G 6
  23167081.492     6722917.066 5   5196917.35021        11.500           0.531
  20852787.383   -17169453.987 7                        27.000
  24186772.852    -1303419.273 5                         8.250
  23867050.227    -2099487.158 4   -324786.39121         7.000           0.031
  21223967.789   -17923134.994 7                        22.250
 91  6  6 19 49  0.0000000  0  5G19G 2G15G13G 6
  23174509.336     6761935.342 5   5227321.12321        11.250           0.531
  20852811.258   -17169339.256 7                        27.500
  24182779.016    -1324363.149 5   -970946.62221         7.500           0.563
  23855746.188    -2158884.914 4   -371070.29221         7.250           0.188
  21219968.203   -17944151.962 7 -13842426.48522        21.750           2.188
 91  6  6 19 49 15.0000000  0  5G19G 2G15G13G 6
  23181944.242     6801014.383 5   5257772.26921        11.750           0.531
  20852845.461   -17169161.864 7                        27.500
  24178822.813    -1345198.720 5   -987182.11821         8.250           0.656
  23844452.523    -2218241.437 5   -417321.99321         7.500           0.031
  21215978.461   -17965109.987 7 -13858757.41422        22.000           2.219
 91  6  6 19 49 30.0000000  0  5G19G 2G15G13G 6
  23189391.227     6840151.601 5   5288268.72321        11.000           0.500
  20852889.750   -17168924.440 8                        28.000
  24174880.438    -1365928.474 5  -1003335.13021         9.000           0.531
  23833163.367    -2277559.073 4   -463543.50121         7.000           0.125
  21212002.070   -17986011.478 7 -13875044.29122        22.000           2.188
 91  6  6 19 49 45.0000000  0  5G19G 2G15G13G 6
  23196848.398     6879346.486 5   5318810.12521        11.250           0.625
  20852944.250   -17168627.495 8 -13378132.15523        28.250           2.625
  24170953.992    -1386552.306 5  -1019405.60421         8.750           0.469
  23821879.336    -2336837.708 4   -509734.58921         7.250           0.156
  21208037.313   -18006856.573 7 -13891287.22222        22.250           2.125
 91  6  6 19 50  0.0000000  0  5G19G 2G15G13G 6
  23204320.859     6918595.235 5   5349393.49421        10.750           0.438
  20853011.000   -17168274.756 8 -13377857.29823        28.250           2.656
  24167052.539    -1407073.633 5  -1035396.19921         8.750           0.438
  23810606.180    -2396080.699 5   -555897.85521         7.500           0.219
  21204079.563   -18027648.818 7 -13907488.96822        22.250           2.156
 91  6  6 19 50 15.0000000  0  5G19G 2G15G13G 6
  23211798.961     6957900.747 5   5380021.07621        11.250           0.625
  20853090.000   -17167863.521 8 -13377536.86023        28.000           2.688
  24163157.766    -1427489.413 5  -1051304.57421         9.000           0.531
  23799340.453    -2455284.941 4   -602030.93621         7.000           0.156
  21200132.422   -18048385.057 7 -13923647.07422        22.250           2.188
 91  6  6 19 50 30.0000000  0  5G19G 2G15G13G 6
  23219288.398     6997258.637 5   5410689.50121        11.250           0.594
  20853181.039   -17167398.081 8 -13377174.18623        28.250           2.719
  24159295.563    -1447803.698 5  -1067133.83521         8.750           0.438
  23788082.367    -2514454.131 5   -648136.64721         7.750           0.188
  21196197.133   -18069069.466 7 -13939764.79222        22.250           1.938
 91  6  6 19 50 45.0000000  0  5G19G 2G15G13G 6
  23226790.820     7036680.019 5   5441407.39221        11.500           0.563
  20853280.594   -17166867.191 8 -13376760.50923        28.000           2.719
  24155454.578    -1468004.774 5  -1082874.88921         9.250           0.469
  23776832.758    -2573576.788 5   -694206.14221         8.000           0.031
  21192273.656   -18089690.425 7 -13955833.07222        22.000           2.125
 91  6  6 19 51  0.0000000  0  5G19G 2G15G13G 6
  23234302.359     7076163.498 5   5472173.65821        11.250           0.625
  20853395.555   -17166272.284 8 -13376296.94623        28.750           2.688
  24151630.391    -1488093.534 5  -1098528.42721         9.750           0.625
  23765592.844    -2632653.708 5   -740240.01421         8.250           0.219
  21188361.609   -18110248.945 7 -13971852.69122        22.000           2.281
 91  6  6 19 51 15.0000000  0  5G19G 2G15G13G 6
  23241826.180     7115702.212 5   5502982.97421        11.250           0.469
  20853517.641   -17165620.214 8 -13375788.84223        28.500           2.781
  24147823.109    -1508076.486 5  -1114099.52321         9.000           0.563
  23754356.539    -2691691.360 5   -786243.22121         8.250           0.188
  21184458.508   -18130751.807 7 -13987828.94322        22.250           2.188
 91  6  6 19 51 30.0000000  0  5G19G 2G15G13G 6
  23249364.906     7155297.828 5   5533836.61721        11.000           0.531
  20853654.492   -17164909.246 8 -13375234.84323        28.500           2.781
  24144042.461    -1527951.847 5  -1129586.78221         9.250           0.438
  23743129.625    -2750687.682 5   -832214.27821         7.750           0.125
  21180569.781   -18151196.940 7 -14003760.20922        22.500           2.250
 91  6  6 19 51 45.0000000  0  5G19G 2G15G13G 6
  23256907.250     7194946.953 5   5564731.96421        11.250           0.625
  20853799.758   -17164142.676 8 -13374637.51523        28.250           2.719
  24140283.961    -1547722.479 5  -1144992.41121        10.000           0.563
  23731908.656    -2809645.419 5   -878155.18821         8.250           0.188
  21176688.563   -18171587.482 7 -14019648.94022        22.500           2.219
 91  6  6 19 52  0.0000000  0  5G19G 2G15G13G 6
  23264466.023     7234654.905 5   5595673.15721        11.000           0.563
  20853956.625   -17163315.137 8 -13373992.68523        28.000           2.781
  24136547.367    -1567382.642 5  -1160311.96221        11.000           0.500
  23720700.469    -2868558.745 5   -924061.50421         8.250           0.219
  21172819.531   -18191917.733 7 -14035490.68622        22.500           2.219
 91  6  6 19 52 15.0000000  0  5G19G 2G15G13G 6
  23272028.195     7274423.970 5   5626661.96921        10.750           0.625
  20854127.273   -17162424.551 8 -13373298.73023        28.500           2.750
  24132824.602    -1586929.727 5  -1175543.41621        10.750           0.469
  23709496.484    -2927425.096 5   -969931.20021         8.250           0.188
  21168962.203   -18212185.140 7 -14051283.46522        22.500           2.125
 91  6  6 19 52 30.0000000  0  5G19G 2G15G13G 6
  23279613.438     7314255.158 5   5657699.16321        10.250           0.563
  20854307.633   -17161469.812 8 -13372554.78023        28.250           2.844
  24129131.742    -1606362.413 5  -1190685.71821        11.000           0.531
  23698302.492    -2986243.040 5  -1015763.22021         8.000           0.094
  21165118.422   -18232388.550 7 -14067026.37722        22.500           2.156
 91  6  6 19 52 45.0000000  0  5G19G 2G15G13G 6
  23287200.313     7354145.687 5   5688782.62021        10.750           0.469
  20854501.641   -17160453.780 8 -13371763.07123        28.000           2.750
  24125445.695    -1625683.277 5  -1205740.89521        10.500           0.469
  23687117.289    -3045015.074 5  -1061559.40321         7.750           0.125
  21161286.250   -18252530.368 7 -14082721.29422        22.750           2.156
 91  6  6 19 53  0.0000000  0  5G19G 2G15G13G 6
  23294805.930     7394094.891 5   5719911.79621        10.000           0.500
  20854705.844   -17159376.934 8 -13370923.97423        28.000           2.750
  24121793.086    -1644892.466 5  -1220709.04921        11.500           0.500
  23675947.086    -3103741.169 5  -1107319.78621         8.000           0.125
  21157464.047   -18272610.873 7 -14098368.43522        22.750           2.188
 91  6  6 19 53 15.0000000  0  5G19G 2G15G13G 6
  23302416.711     7434096.331 5   5751081.67421        10.750           0.688
  20854918.969   -17158245.823 7 -13370042.59523        27.750           2.750
  24118157.602    -1663995.886 6  -1235594.77021        12.000           0.375
  23664777.102    -3162427.271 5  -1153049.00521         7.750           0.125
  21153653.047   -18292636.167 7 -14113972.55122        23.000           2.094
 91  6  6 19 53 30.0000000  0  5G19G 2G15G13G 6
  23310040.906     7474154.135 5   5782295.45821        10.000           0.750
  20855148.086   -17157056.377 8 -13369115.75223        28.250           2.719
  24114543.883    -1682989.310 5  -1250394.79421        11.750           0.563
  23653615.453    -3221069.028 5  -1198743.68321         7.500           0.031
  21149855.016   -18312602.020 7 -14129530.35822        23.250           2.031
 91  6  6 19 53 45.0000000  0  5G19G 2G15G13G 6
  23317672.008     7514269.426 5   5813554.04721        10.500           0.594
  20855385.500   -17155807.397 8 -13368142.52023        28.000           2.656
  24110956.078    -1701871.461 6  -1265108.10621        12.000           0.406
  23642465.617    -3279664.902 5  -1244402.60621         7.500           0.063
  21146066.242   -18332507.045 7 -14145040.76222        23.500           2.125
 91  6  6 19 54  0.0000000  0  5G19G 2G15G13G 6
  23325318.922     7554442.310 5   5844857.52421        10.250           0.563
  20855634.680   -17154498.527 8 -13367122.63123        28.000           2.781
  24107375.422    -1720641.631 5  -1279734.16321        11.750           0.531
  23631322.914    -3338214.270 5  -1290025.24921         7.500           0.125
  21142290.695   -18352350.661 7 -14160503.32322        23.750           2.156
 91  6  6 19 54 15.0000000  0  5G19G 2G15G13G 6
  23332971.531     7594672.313 5   5876205.49521        10.250           0.531
  20855895.227   -17153130.326 8 -13366056.49223        28.000           2.688
  24103824.344    -1739299.729 5  -1294272.88621        11.750           0.438
  23620189.875    -3396717.009 5  -1335611.60621         7.750           0.125
  21138526.773   -18372132.965 7 -14175918.09922        23.750           2.063
 91  6  6 19 54 30.0000000  0  5G19G 2G15G13G 6
  23340641.156     7634958.222 5   5907597.02421        10.250           0.656
  20856165.477   -17151703.880 7 -13364944.97823        27.750           2.781
  24100297.164    -1757846.617 5  -1308724.94521        11.500           0.563
  23609068.250    -3455173.622 5  -1381161.98321         7.750           0.188
  21134773.781   -18391854.760 7 -14191285.72922        24.000           2.125
 91  6  6 19 54 45.0000000  0  5G19G 2G15G13G 6
  23348317.492     7675301.323 5   5939033.12621        10.500           0.531
  20856448.859   -17150217.984 8 -13363787.13423        28.000           2.781
  24096791.633    -1776280.927 5  -1323089.30521        11.750           0.438
  23597953.344    -3513582.740 5                         8.250
  21131031.523   -18411514.740 7 -14206605.18522        24.000           2.031
 91  6  6 19 55  0.0000000  0  5G19G 2G15G13G 6
  23356007.539     7715703.237 5   5970515.07521        10.250           0.469
  20856744.469   -17148671.031 8 -13362581.71523        28.000           2.781
  24093304.953    -1794600.382 6  -1337364.15221        12.000           0.438
  23586850.484    -3571942.234 5                         8.250
  21127302.523   -18431110.879 7 -14221874.90222        24.000           2.094
 91  6  6 19 55 15.0000000  0  5G19G 2G15G13G 6
  23363703.242     7756159.982 5   6002039.72521         9.750           0.531
  20857047.930   -17147067.102 8 -13361331.90223        28.250           2.813
  24089839.742    -1812808.967 6  -1351552.61521        12.250           0.406
  23575750.172    -3630255.669 5                         8.500
  21123586.172   -18450646.912 7 -14237097.77522        23.750           2.094
 91  6  6 19 55 30.0000000  0  5G19G 2G15G13G 6
  23371411.633     7796675.710 5   6033610.34421         9.750           0.563
  20857366.453   -17145401.891 8 -13360034.33123        28.750           2.813
  24086392.516    -1830902.166 6  -1365651.16321        12.000           0.375
  23564661.867    -3688518.426 5        -0.17131         8.250           0.156
  21119881.219   -18470118.340 7 -14252270.31622        23.750           2.000
 91  6  6 19 55 45.0000000  0  5G19G 2G15G13G 6
  23379134.516     7837248.038 5   6065225.06021        10.250           0.625
  20857693.383   -17143677.409 8 -13358690.58323        28.500           2.781
  24082974.273    -1848881.715 6  -1379661.15621        12.250           0.500
  23553589.844    -3746732.294 5    -45361.44121         8.500           0.156
  21116186.734   -18489527.022 7 -14267393.96422        23.750           2.063
 91  6  6 19 56  0.0000000  0  5G19G 2G15G13G 6
  23386865.563     7877879.912 5   6096886.18621        10.000           0.594
  20858034.352   -17141891.032 8 -13357298.60023        28.500           2.938
  24079574.898    -1866744.626 6  -1393580.24721        12.500           0.406
  23542517.031    -3804893.990 5    -90681.97821         8.500           0.188
  21112504.914   -18508869.912 7 -14282466.34622        23.500           2.063
 91  6  6 19 56 15.0000000  0  5G19G 2G15G13G 6
  23394607.234     7918565.944 5   6128589.49821        10.250           0.563
  20858383.367   -17140048.162 8 -13355862.59923        28.250           2.875
  24076201.367    -1884495.810 6  -1407412.29521        12.500           0.469
  23531458.508    -3863008.303 5   -135965.63521         8.750           0.094
  21108838.016   -18528151.995 7 -14297491.34622        23.500           2.031
 91  6  6 19 56 30.0000000  0  5G19G 2G15G13G 6
  23402364.305     7959309.019 5   6160337.27621         9.500           0.531
  20858744.617   -17138145.767 8 -13354380.21423        28.500           2.813
  24072842.930    -1902131.883 6  -1421154.65921        12.000           0.406
  23520409.188    -3921071.911 5   -181209.78821         8.750           0.125
  21105178.898   -18547370.121 7 -14312466.50722        23.500           2.000
 91  6  6 19 56 45.0000000  0  5G19G 2G15G13G 6
  23410127.000     8000107.931 5   6192128.54821        10.250           0.500
  20859120.781   -17136184.991 8 -13352852.33823        28.500           2.906
  24069509.180    -1919653.603 6  -1434807.90221        12.250           0.438
  23509369.141    -3979085.544 5   -226415.00821         9.250           0.156
  21101534.992   -18566525.186 7 -14327392.53322        23.250           2.063
 91  6  6 19 57  0.0000000  0  5G19G 2G15G13G 6
  23417901.680     8040964.487 5   6223964.73721         9.250           0.469
  20859503.875   -17134163.857 8 -13351277.42923        28.250           2.813
  24066196.695    -1937058.702 6  -1448370.27021        12.000           0.375
  23498340.406    -4037046.911 5   -271579.49921         9.750           0.094
  21097901.328   -18585614.936 7 -14342267.66222        23.250           2.125
 91  6  6 19 57 15.0000000  0  5G19G 2G15G13G 6
  23425683.922     8081878.608 5   6255845.78021         9.750           0.563
  20859900.078   -17132082.602 8 -13349655.67023        28.500           2.938
  24062904.203    -1954347.039 5  -1461841.66321        11.500           0.438
  23487318.555    -4094955.774 5   -316703.12521         9.500           0.188
  21094282.523   -18604639.197 7 -14357091.76222        23.500           2.031
 91  6  6 19 57 30.0000000  0  5G19G 2G15G13G 6
  23433485.453     8122845.606 5   6287768.03221         9.750           0.500
  20860307.398   -17129945.756 8 -13347990.60123        28.250           2.875
  24059636.672    -1971523.089 5  -1475225.55721        11.750           0.406
  23476305.883    -4152816.243 5   -361788.99521         9.000           0.188
  21090672.633   -18623602.323 7 -14371868.21922        23.500           1.969
 91  6  6 19 57 45.0000000  0  5G19G 2G15G13G 6
  23441286.383     8163866.875 5   6319732.58121         9.750           0.531
  20860723.227   -17127751.930 8 -13346281.13023        28.000           2.906
  24056390.180    -1988584.863 5  -1488520.41221        11.750           0.406
  23465309.031    -4210626.477 5   -406835.69821         9.250           0.219
  21087075.547   -18642502.634 7 -14386595.73422        23.750           2.094
 91  6  6 19 58  0.0000000  0  5G19G 2G15G13G 6
  23449105.078     8204942.754 5   6351739.65821         9.500           0.500
  20861152.922   -17125500.917 8 -13344527.09723        28.000           2.906
  24053162.188    -2005532.168 6  -1501726.08121        12.000           0.469
  23454319.484    -4268385.855 5   -451842.84121         9.500           0.125
  21083492.906   -18661339.544 7 -14401273.84122        23.750           2.063
 91  6  6 19 58 15.0000000  0  5G19G 2G15G13G 6
  23456929.586     8246070.926 5   6383787.50621         9.500           0.500
  20861591.063   -17123195.016 8 -13342730.29923        28.250           2.938
  24049957.789    -2022366.893 5  -1514843.99921        11.500           0.344
  23443338.188    -4326095.936 5   -496811.54721         9.250           0.250
  21079920.180   -18680115.076 7 -14415904.12222        24.000           2.000
 91  6  6 19 58 30.0000000  0  5G19G 2G15G13G 6
  23464765.477     8287252.376 5   6415876.86221         9.250           0.563
  20862041.758   -17120833.202 8 -13340889.93023        28.000           2.875
  24046783.797    -2039087.428 5  -1527872.95321        11.750           0.438
  23432361.727    -4383755.429 5   -541740.83221         9.000           0.281
  21076357.414   -18698827.887 7 -14430485.52922        23.750           2.031
 91  6  6 19 58 45.0000000  0  5G19G 2G15G13G 6
  23472611.781     8328487.754 5   6448008.24421         9.250           0.375
  20862501.242   -17118414.666 7 -13339005.36023        27.750           2.844
  24043620.742    -2055692.932 6  -1540812.27621        12.000           0.406
  23421400.188    -4441363.222 5   -586629.87321         9.250           0.188
  21072810.281   -18717476.987 7 -14445017.29322        24.000           2.031
 91  6  6 19 59  0.0000000  0  5G19G 2G15G13G 6
  23480473.852     8369778.700 5   6480182.92821         8.500           0.500
  20862972.922   -17115937.605 8 -13337075.18623        28.000           2.781
  24040485.570    -2072181.095 6  -1553660.14321        12.250           0.406
  23410444.680    -4498917.162 5   -631476.92921         9.000           0.156
  21069273.680   -18736060.264 7 -14459497.76122        23.750           2.063
 91  6  6 19 59 15.0000000  0  5G19G 2G15G13G 6
  23488338.984     8411124.279 5   6512400.16921         9.250           0.438
  20863455.242   -17113402.874 7 -13335100.07423        27.750           2.781
  24037367.602    -2088552.949 6  -1566417.39921        12.000           0.406
  23399504.164    -4556417.782 5   -676282.43821         9.000           0.188
  21065748.008   -18754578.421 7 -14473927.49322        22.750           2.094
 91  6  6 19 59 30.0000000  0  5G19G 2G15G13G 6
  23496218.891     8452525.456 5   6544660.74221         8.500           0.406
  20863948.008   -17110809.667 7 -13333079.39623        27.750           2.813
  24034269.242    -2104807.105 6  -1579082.94821        12.000           0.344
  23388574.383    -4613863.777 5   -721045.41221         9.500           0.281
  21062238.344   -18773030.215 7 -14488305.51222        23.000           2.063
 91  6  6 19 59 45.0000000  0  5G19G 2G15G13G 6
  23504107.367     8493979.811 5   6576962.75921         9.250           0.438
  20864452.430   -17108160.314 8 -13331014.96723        28.000           2.844
  24031201.258    -2120945.421 5  -1591658.23621        11.750           0.344
  23377654.359    -4671256.716 5   -765767.02021         9.500           0.156
  21058738.938   -18791417.713 7 -14502633.43022        22.750           2.125
 91  6  6 20  0  0.0000000  0  5G19G 2G15G13G 6
  23512010.422     8535484.011 5   6609303.59621         8.750           0.375
  20864965.656   -17105458.186 8 -13328909.42123        28.000           2.969
  24028152.656    -2136971.163 6  -1604145.77721        12.250           0.313
  23366739.938    -4728599.848 5   -810449.83721         9.000           0.188
  21055251.109   -18809743.948 7 -14516913.61322        22.750           2.094
